     2              OBSERVATION DATA    GPS                 RINEX VERSION / TYPE
teqc 1998Oct22 19990524 20:14:10UTC                         PGM / RUN BY / DATE
                                                            COMMENT
Original Marker Name: CJGG                                  COMMENT
Campaign Name: northern baja california 1999                COMMENT
4-Character Station Name: CJGG                              COMMENT
6-Character Antenna Code: DMRCHT                            COMMENT
Vertical Measurement Point: BCR                             COMMENT
Vertical Offset to Rinex Ref. Point: 0.0349                 COMMENT
Radial Measurement Point: ECF                               COMMENT
Radial Offset to Rinex Ref. Point: 0.1896                   COMMENT
Antenna Height from Field Measurement: 1.4491 m             COMMENT
Additional Antenna Identification Info.:                    COMMENT
Turborogue and Ashtech Choke Ring                           COMMENT
Original XYZ: -2431119.7872 -4846178.9179 3348018.9334      COMMENT
New XYZ position is based on association with SCEC monument COMMENT
E1C2W4P7+0011. Position of that monument is believed to be  COMMENT
valid to within 1 m horizontally; vertical accuracy         COMMENT
should be no worse than 3-times this value.                 COMMENT
                                                            COMMENT
Revised Rinex header created by UCSD GPS archive for        COMMENT
GSAC on 26-Jun-2003 (2003:177) 23:30:05 GMT                 COMMENT
For assistance contact dagnew@ucsd.edu or hjohnson@ucsd.edu COMMENT
                                                            COMMENT
UEPC UABC CICESE SAMCPE                                     MARKER NAME
JJG CICESE (ENSENADA)                                       OBSERVER / AGENCY
378 ASHTECH Z12-XII3 1E95                                   REC # / TYPE / VERS
758 DORNE-MARGOL. TYPE T                                    ANT # / TYPE
 -2431153.7404 -4846192.5940  3348020.9193                  APPROX POSITION XYZ
        1.4017        0.0000        0.0000                  ANTENNA: DELTA H/E/N
     1     1     0                                          WAVELENGTH FACT L1/2
     7    C1    L1    L2    P1    P2    S1    S2            # / TYPES OF OBSERV
     0                                                      INTERVAL
  1999     5    23    16    53   30.000000                  TIME OF FIRST OBS
  1999     5    24    12    14   60.000000                  TIME OF LAST OBS
                                                            END OF HEADER
 99  5 23 16 53 30.0000000  0  5G24G 4G 5G 7G 9
                       243.000
        74.000
                     -3878.70746

  19894409.076         242.000
       170.000         229.000
                        74.000
       215.000          74.000
                     -3491.26946                                  20778512.922
       241.000         166.000
 99  5 23 16 54  0.0000000  0  6G24G 4G 5G 7G 8G 9
  20055650.318     -122328.32349    -78587.33847  20055649.892    20055657.179
       243.000         204.000
  19891056.904      -27173.68049    -17582.87747  19891056.968    19891062.502
       242.000         206.000
  21493437.199     -156836.08149   -103156.92146  21493435.934    21493442.399
                       230.000
                       176.000
       213.000          74.000
                    -67306.04846                                  21419751.760
       227.000         171.000
  20775497.847      -24484.24849    -15811.05047  20775497.512    20775504.300
       242.000         201.000
 99  5 23 16 54 30.0000000  0  6G24G 4G 5G 7G 8G 9
  20637522.013     -215410.96349   -151119.23247  20637521.721    20637528.944
       242.000         209.000
  20487392.667      -44249.23249    -30888.50847  20487392.313    20487397.890
       242.000         209.000
  22069661.949     -279592.72149   -198811.41846  22069661.381    22069667.212
       230.000         182.000
                     31438.46945                                  23477299.507
       212.000         132.000
  22000679.947     -203839.86349   -143678.48146  22000679.017    22000686.529
       229.000         179.000
  21372174.111      -39770.94049    -27722.79947  21372173.242    21372179.842
       241.000         205.000
 99  5 23 16 55  0.0000000  0  6G24G 4G 5G 7G 8G 9
  20619898.289     -308023.36349   -223284.69947  20619898.092    20619905.261
       242.000         210.000
  20484235.434      -60840.89649    -43817.08847  20484235.229    20484240.829
       242.000         210.000
  22046320.702     -402251.99649   -294390.04646  22046319.870    22046326.408
       230.000         184.000
  23480645.249       60427.47949     45169.55745  23480643.998    23480652.733
       213.000         152.000
  21982120.846     -301369.48349   -219675.57446  21982119.825    21982127.435
       229.000         181.000
  21369356.626      -54574.39049    -39257.99347  21369356.452    21369363.039
       241.000         206.000
 99  5 23 16 55 30.0000000  0  6G24G 4G 5G 7G 8G 9
  20602358.184     -400197.86349   -295108.94647  20602358.014    20602365.189
       243.000         211.000
  20481166.251      -76968.91849    -56384.38447  20481166.194    20481171.830
       242.000         210.000
  22022994.191     -524835.07949   -389909.31046  22022993.289    22022999.280
       230.000         185.000
  23483987.381       77988.82749     58853.63345  23483986.085    23483994.112
       212.000         155.000
  21963652.358     -398417.00449   -295297.00646  21963652.220    21963659.531
       228.000         182.000
  21366627.575      -68914.92149    -50432.47547  21366627.262    21366634.137
       240.000         206.000
 99  5 23 16 56  0.0000000  0  6G24G 4G 5G 7G 8G 9
  20584909.594     -491891.45049   -366558.45647  20584909.344    20584916.410
       243.000         211.000
  20478197.022      -92572.22349    -68542.80947  20478197.259    20478202.730
       243.000         211.000
  21999692.681     -647283.73149   -485323.80846  21999691.710    21999698.437
       230.000         185.000
  23487329.766       95553.58649     72540.36845  23487328.471    23487336.081
       214.000         156.000
  21945287.969     -494924.50049   -370497.64446  21945288.163    21945295.013
       228.000         182.000
  21363993.718      -82756.75149    -61218.36247  21363993.855    21364000.339
       240.000         205.000
 99  5 23 16 56 30.0000000  0  6G24G 4G 5G 7G 8G 9
  20567552.520     -583103.51749   -437632.74847  20567552.230    20567559.483
       242.000         211.000
  20475329.799     -107639.64349    -80283.66147  20475329.714    20475335.208
       242.000         211.000
  21976417.862     -769592.88549   -580629.61846  21976416.843    21976423.337
       229.000         185.000
  23490673.918      113126.77249     86233.69045  23490672.716    23490680.659
       216.000         157.000
  21927026.430     -590891.12249   -445276.80346  21927026.186    21927033.169
       229.000         182.000
  21361449.843      -96125.60749    -71635.70047  21361449.786    21361456.108
       240.000         205.000
 99  5 23 16 57  0.0000000  0  6G24G 4G 5G 7G 8G 9
  20550284.814     -673845.75349   -508340.94747  20550284.484    20550291.530
       243.000         211.000
  20472565.681     -122165.30249    -91602.36847  20472565.688    20472571.124
       243.000         210.000
  21953170.413     -891758.38549   -675823.48546  21953169.677    21953175.773
       230.000         185.000
  23494017.467      130697.25149     99924.90545  23494017.200    23494024.236
       216.000         157.000
  21908870.432     -686301.90549   -519622.85646  21908870.095    21908876.843
       228.000         182.000
  21358994.125     -109030.68349    -81691.64547  21358993.946    21359000.580
       239.000         205.000
 99  5 23 16 57 30.0000000  0  6G24G 4G 5G 7G 8G 9
  20533111.774     -764090.93249   -578661.83147  20533111.713    20533118.527
       243.000         212.000
  20469907.762     -136132.88149   -102486.20847  20469907.818    20469913.488
       242.000         210.000
  21929956.872    -1013745.97649   -770878.72346  21929956.567    21929962.755
       231.000         186.000
  23497362.803      148276.94149    113623.30145  23497362.075    23497370.151
       215.000         157.000
  21890827.616     -781117.83449   -593505.38646  21890827.086    21890834.087
       228.000         182.000
  21356632.476     -121441.28749    -91362.28247  21356632.511    21356639.025
       240.000         205.000
 99  5 23 16 58  0.0000000  0  6G24G 4G 5G 7G 8G 9
  20516032.002     -853845.83949   -648600.67747  20516031.547    20516038.768
       243.000         212.000
  20467349.291     -149578.00749   -112962.93347  20467349.329    20467355.126
       242.000         210.000
  21906776.196    -1135561.93849   -865800.21846  21906775.865    21906782.128
       231.000         186.000
  23500706.651      165848.67449    127315.49645  23500705.720    23500714.251
       217.000         157.000
  21872893.788     -875361.14549   -666941.72546  21872893.201    21872899.623
       228.000         181.000
  21354361.439     -133376.04249   -100662.13047  21354361.553    21354367.995
       242.000         206.000
 99  5 23 16 58 30.0000000  0  6G24G 4G 5G 7G 8G 9
  20499053.762     -943067.08749   -718123.69147  20499053.551    20499060.460
       243.000         212.000
  20464894.254     -162479.63949   -123016.16547  20464894.448    20464899.702
       242.000         210.000
  21883632.830    -1257181.28849   -960568.52046  21883632.397    21883638.589
       231.000         187.000
  23504053.826      183437.67249    141021.12745  23504052.753    23504060.592
       215.000         156.000
  21855074.390     -969002.77149   -739909.21246  21855074.107    21855080.333
       229.000         181.000
  21352189.033     -144792.67749   -109558.25547  21352188.777    21352195.221
       241.000         206.000
 99  5 23 16 59  0.0000000  0  6G24G 4G 5G 7G 8G 9
  20482170.331    -1031790.24049   -787258.57147  20482170.049    20482176.943
       244.000         212.000
  20462532.509     -174890.78849   -132687.19247  20462532.354    20462537.992
       242.000         210.000
  21860516.067    -1378660.85549  -1055227.91046  21860516.000    21860521.472
       232.000         187.000
  23507394.579      200993.50949    154700.92945  23507393.820    23507401.809
       217.000         155.000
  21837359.905    -1062093.54149   -812447.46246  21837359.311    21837365.789
       227.000         181.000
  21350108.233     -155727.62349   -118079.02647  21350108.188    21350114.751
       241.000         206.000
 99  5 23 16 59 29.9990000  0  6G24G 4G 5G 7G 8G 9
  20465393.426    -1119953.48449   -855957.16347  20465392.883    20465399.877
       243.000         212.000
  20460275.055     -186753.80549   -141931.10847  20460274.916    20460280.565
       242.000         210.000
  21837435.718    -1499949.30849  -1149738.36046  21837434.649    21837441.744
       231.000         187.000
  23510740.696      218577.48649    168402.64645  23510740.103    23510748.063
       215.000         154.000
  21819758.045    -1154591.48149   -884523.76546  21819756.727    21819763.999
       228.000         182.000
  21348131.188     -166117.40349   -126174.99847  21348131.116    21348137.533
       241.000         206.000
 99  5 23 16 59 59.9990000  0  6G24G 4G 5G 7G 8G 9
  20448720.423    -1207570.71149   -924230.28947  20448720.016    20448726.738
       243.000         212.000
  20458121.851     -198069.01549   -150748.16547  20458122.077    20458127.283
       242.000         210.000
  21814386.303    -1621074.51749  -1244121.62446  21814385.315    21814391.945
       230.000         187.000
  23514091.795      236186.66749    182124.00845  23514092.413    23514099.285
       216.000         155.000
  21802263.950    -1246523.20849   -956158.86846  21802263.567    21802269.768
       230.000         182.000
  21346255.941     -175972.43849   -133854.29247  21346256.034    21346262.367
       242.000         206.000
 99  5 23 17  0 29.9990000  0  6G24G 4G 5G 7G 8G 9
  20432137.435    -1294715.01149   -992134.89247  20432137.026    20432144.004
       243.000         212.000
  20456061.969     -208894.02249   -159183.24247  20456062.263    20456067.527
       243.000         209.000
  21791355.452    -1742102.19649  -1338428.87646  21791354.539    21791360.509
       230.000         186.000
  23517434.041      253749.07949    195808.93545  23517433.659    23517440.700
       216.000         156.000
  21784865.399    -1337953.94149  -1027403.58446  21784865.262    21784871.385
       230.000         183.000
  21344468.644     -185365.42249   -141173.53847  21344468.612    21344474.850
       242.000         207.000
 99  5 23 17  0 59.9990000  0  6G24G 4G 5G 7G 8G 9
  20415650.548    -1381354.39649  -1059646.06547  20415650.269    20415656.887
       243.000         212.000
  20454099.425     -219207.98549   -167220.11347  20454099.462    20454104.967
       242.000         209.000
  21768349.920    -1862997.15249  -1432632.72146  21768349.305    21768355.099
       231.000         186.000
  23520775.433      271307.70849    209490.89945  23520774.816    23520782.249
       214.000         154.000
  21767570.113    -1428841.89049  -1098225.36646  21767569.635    21767575.716
       230.000         183.000
  21342774.925     -194266.65249   -148109.60047  21342774.934    21342781.016
       242.000         206.000
 99  5 23 17  1 29.9990000  0  6G24G 4G 5G 7G 8G 9
  20399284.246    -1467359.86349  -1126663.27647  20399283.520    20399290.799
       243.000         212.000
  20452259.073     -228878.88749   -174755.89347  20452258.856    20452264.828
       242.000         209.000
  21745397.959    -1983610.72949  -1526617.31146  21745397.585    21745403.412
       231.000         187.000
  23524141.384      288996.35949    223274.17545  23524139.957    23524148.188
       214.000         154.000
  21750403.457    -1519053.49049  -1168520.12246  21750403.219    21750409.169
       230.000         184.000
  21341198.671     -202550.13549   -154564.31747  21341198.416    21341205.207
       240.000         205.000
 99  5 23 17  1 59.9990000  0  6G24G 4G 5G 7G 8G 9
  20383015.288    -1552853.19949  -1193281.42347  20383014.773    20383022.054
       243.000         212.000
  20450514.428     -238047.34349   -181900.15547  20450514.723    20450519.994
       243.000         210.000
  21722476.319    -2104064.90949  -1620477.69246  21722475.783    21722481.890
       231.000         187.000
  23527506.410      306679.84249    237053.42745  23527505.457    23527513.962
       214.000         155.000
  21733342.462    -1608710.61549  -1238382.81046  21733341.521    21733348.376
       230.000         184.000
  21339715.086     -210346.74649   -160639.65047  21339715.073    21339721.318
       241.000         205.000
 99  5 23 17  2 29.9990000  0  6G24G 4G 5G 7G 8G 9
  20366842.498    -1637841.48249  -1259506.02347  20366842.229    20366849.168
       243.000         212.000
  20448864.925     -246716.19049   -188655.10747  20448865.175    20448870.566
       243.000         210.000
  21699584.747    -2224361.25049  -1714215.06547  21699584.140    21699590.257
       232.000         188.000
  23530867.801      324344.27649    250817.83845  23530866.880    23530875.449
       216.000         156.000
  21716387.529    -1697809.21849  -1307810.28546  21716386.488    21716393.521
       229.000         184.000
  21338324.049     -217657.43449   -166336.33047  21338324.246    21338330.501
       242.000         205.000
 99  5 23 17  2 59.9990000  0  6G24G 4G 5G 7G 8G 9
  20350761.484    -1722348.25149  -1325355.41848  20350761.061    20350767.915
       243.000         213.000
  20447304.969     -254914.21449   -195043.18847  20447304.696    20447310.461
       242.000         210.000
  21676716.242    -2344535.72549  -1807857.48747  21676715.642    21676721.703
       233.000         189.000
  23534218.131      341949.83149    264536.35845  23534217.540    23534225.706
       216.000         157.000
  21699533.131    -1786379.85449  -1376826.34846  21699532.456    21699539.198
       229.000         184.000
  21337020.635     -224507.55449   -171674.12647  21337020.418    21337026.666
       241.000         205.000
 99  5 23 17  3 29.9990000  0  6G24G 4G 5G 7G 8G 9
  20334771.263    -1806377.48649  -1390832.71148  20334770.911    20334777.683
       243.000         213.000
  20445837.847     -262623.69649   -201050.59047  20445837.781    20445843.363
       242.000         210.000
  21653872.671    -2464579.65749  -1901398.19447  21653871.846    21653878.226
       232.000         189.000
  23537553.961      359479.24949    278195.55345  23537553.361    23537560.920
       214.000         157.000
  21682779.335    -1874421.87649  -1445430.52146  21682778.525    21682784.963
       230.000         184.000
  21335806.347     -230888.84349   -176646.60347  21335806.349    21335812.498
       241.000         204.000
 99  5 23 17  3 59.9990000  0  6G24G 4G 5G 7G 8G 9
  20318867.392    -1889952.75249  -1455956.25748  20318866.861    20318873.881
       243.000         213.000
  20444459.895     -269865.17449   -206693.30847  20444459.845    20444465.170
       243.000         210.000
  21631049.635    -2584515.29349  -1994854.50547  21631048.946    21631054.579
       232.000         189.000
  23540871.744      376914.66349    291781.50545  23540870.954    23540879.214
       213.000         156.000
  21666124.805    -1961942.18649  -1513628.15246  21666123.765    21666130.348
       229.000         184.000
  21334676.708     -236825.60849   -181272.70047  21334676.281    21334682.589
       241.000         204.000
 99  5 23 17  4 29.9990000  0  6G24G 4G 5G 7G 8G 9
  20303049.300    -1973077.08349  -1520728.42947  20303048.822    20303055.946
       243.000         212.000
  20443171.212     -276637.37349   -211970.35747  20443171.037    20443176.658
       242.000         210.000
  21608246.765    -2704345.27149  -2088228.48047  21608245.773    21608251.424
       232.000         189.000
  23544171.775      394257.26549    305295.11645  23544170.260    23544180.174
       212.000         156.000
  21649567.393    -2048951.18449  -1581427.36646  21649566.137    21649573.440
       228.000         184.000
  21333626.474     -242344.92649   -185573.51147  21333626.078    21333632.518
       240.000         204.000
 99  5 23 17  4 59.9990000  0  6G24G 4G 5G 7G 8G 9
  20287319.912    -2055735.46949  -1585137.52247  20287319.071    20287326.412
       243.000         212.000
  20441970.048     -282949.40449   -216888.83447  20441970.039    20441975.716
       243.000         210.000
  21585468.942    -2824043.53049  -2181499.81747  21585468.411    21585474.088
       232.000         189.000
  23547457.939      411526.54849    318751.59445  23547457.934    23547465.480
       212.000         156.000
  21633107.111    -2135449.74949  -1648828.82446  21633106.122    21633113.779
       230.000         184.000
  21332653.713     -247457.05449   -189557.02647  21332653.401    21332659.858
       241.000         204.000
 99  5 23 17  5 29.9990000  0  6G24G 4G 5G 7G 8G 9
  20271677.090    -2137938.69649  -1649191.95248  20271676.650    20271683.509
       243.000         213.000
  20440851.607     -288826.81049   -221468.64247  20440851.363    20440857.199
       242.000         209.000
  21562716.820    -2943606.51049  -2274665.75647  21562716.052    21562722.109
       232.000         189.000
  23550730.374      428722.92849    332151.27945  23550730.499    23550738.710
       214.000         157.000
  21616743.405    -2221442.21349  -1715835.92946  21616742.880    21616749.667
       230.000         184.000
  21331752.332     -252194.14949   -193248.31747  21331752.285    21331758.497
       240.000         204.000
 99  5 23 17  5 59.9990000  0  6G24G 4G 5G 7G 8G 9
  20256121.742    -2219682.68849  -1712888.54148  20256121.469    20256127.949
       244.000         213.000
  20439813.025     -294284.51849   -225721.41547  20439813.002    20439818.475
       243.000         209.000
  21539990.175    -3063035.81149  -2367727.52847  21539989.056    21539995.460
       233.000         189.000
  23553993.869      445871.13949    345513.43345  23553993.260    23554001.491
       214.000         157.000
  21600477.647    -2306919.36649  -1782441.49946  21600477.131    21600483.812
       231.000         185.000
  21330917.764     -256580.01549   -196665.92247  21330917.603    21330924.056
       240.000         204.000
 99  5 23 17  6 29.9990000  0  6G24G 4G 5G 7G 8G 9
  20240654.787    -2300962.10649  -1776223.11347  20240654.217    20240661.233
       243.000         212.000
  20438850.471     -299342.85249   -229662.98847  20438850.608    20438855.917
       243.000         209.000
  21517289.030    -3182331.04849  -2460684.83447  21517288.141    21517294.242
       234.000         190.000
  23557246.946      462965.55549    358833.67845  23557246.128    23557254.322
       213.000         156.000
  21584308.422    -2391889.38549  -1848651.88846  21584307.975    21584314.161
       232.000         185.000
  21330150.545     -260612.18249   -199807.91647  21330149.984    21330156.446
       241.000         203.000
 99  5 23 17  6 59.9990000  0  6G24G 4G 5G 7G 8G 9
  20225277.444    -2381770.37949  -1839190.55847  20225276.932    20225283.839
       243.000         212.000
  20437964.347     -303999.66749   -233291.68947  20437964.392    20437970.270
       242.000         209.000
  21494615.796    -3301479.91149  -2553528.07547  21494615.198    21494620.821
       234.000         191.000
  23560492.184      480019.21549    372122.14445  23560491.771    23560500.520
       210.000         155.000
  21568240.031    -2476329.84549  -1914449.64246  21568239.039    21568245.892
       231.000         186.000
  21329458.091     -264250.97649   -202643.38547  21329457.734    21329464.015
       240.000         203.000
 99  5 23 17  7 29.9990000  0  6G24G 4G 5G 7G 8G 9
  20209985.060    -2462132.25249  -1901810.17348  20209984.699    20209991.524
       243.000         213.000
  20437151.420     -308271.66149   -236620.52747  20437151.684    20437156.891
       243.000         209.000
  21471964.162    -3420515.43649  -2646282.99847  21471963.059    21471969.178
       233.000         191.000
  23563725.003      497007.82949    385359.93045  23563724.613    23563733.322
       209.000         153.000
  21552270.221    -2560251.36649  -1979843.02946  21552269.244    21552276.061
       231.000         186.000
  21328840.534     -267496.34449   -205172.28647  21328840.071    21328846.463
       240.000         203.000
 99  5 23 17  7 59.9990000  0  6G24G 4G 5G 7G 8G 9
  20194780.832    -2542030.97349  -1964068.87948  20194780.334    20194787.343
       242.000         213.000
  20436416.602     -312133.55349   -239629.80747  20436416.773    20436422.143
       243.000         209.000
  21449335.223    -3539431.20849  -2738944.61447  21449334.215    21449340.747
       233.000         191.000
  23566946.522      513936.08549    398550.66445  23566945.613    23566954.684
       209.000         152.000
  21536399.970    -2643649.83549  -2044828.84646  21536399.311    21536405.538
       231.000         186.000
  21328304.324     -270314.39349   -207368.21347  21328304.252    21328310.558
       240.000         202.000
 99  5 23 17  8 29.9990000  0  6G24G 4G 5G 7G 8G 9
  20179666.691    -2621456.12749  -2025958.57447  20179666.268    20179672.833
       243.000         212.000
  20435763.459     -315565.77449   -242304.27847  20435763.345    20435768.975
       242.000         209.000
  21426731.651    -3658213.34049  -2831502.08947  21426731.033    21426737.059
       233.000         191.000
  23570154.405      530792.52749    411685.46245  23570154.562    23570161.295
       209.000         151.000
  21520627.947    -2726532.36949  -2109412.64446  21520627.590    21520633.817
       232.000         186.000
  21327855.795     -272671.62849   -209205.06147  21327855.193    21327861.810
       239.000         202.000
 99  5 23 17  8 59.9990000  0  7G24G 4G30G 5G 7G 8G 9
  20164637.001    -2700437.55949  -2087502.51447  20164636.772    20164643.244
       243.000         212.000
  20435190.797     -318575.02849   -244649.16547  20435190.982    20435196.400
       243.000         209.000
  24381403.125    -2128701.75549  -1622875.41845  24381402.366    24381411.545
       211.000         148.000
  21404148.827    -3776886.80249  -2923974.88847  21404148.057    21404154.367
       234.000         191.000
  23573344.542      547556.01349    424747.80945  23573343.964    23573352.650
       209.000         149.000
  21504950.916    -2808916.52849  -2173608.08846  21504950.662    21504957.287
       233.000         187.000
  21327489.883     -274594.58049   -210703.52347  21327489.746    21327496.289
       239.000         202.000
 99  5 23 17  9 29.9990000  0  7G24G 4G30G 5G 7G 8G 9
  20149697.854    -2778943.23649  -2148675.73948  20149697.695    20149704.308
       243.000         213.000
  20434705.153     -321127.13349   -246637.83047  20434705.228    20434710.641
       242.000         208.000
  24353507.733    -2275292.45349  -1737101.81845  24353507.158    24353515.580
       213.000         150.000
  21381591.752    -3895424.80349  -3016342.13747  21381590.893    21381597.322
       233.000         191.000
  23576520.918      564248.39149    437754.76545  23576519.635    23576528.313
       210.000         148.000
  21489373.889    -2890775.06249  -2237393.96047  21489373.147    21489379.921
       232.000         188.000
  21327207.024     -276081.70249   -211862.36747  21327206.712    21327213.214
       240.000         202.000
 99  5 23 17  9 59.9990000  0  7G24G 4G30G 5G 7G 8G 9
  20134848.322    -2856978.19849  -2209482.16848  20134847.895    20134854.369
       243.000         213.000
  20434307.100     -323219.02749   -248267.88147  20434307.373    20434312.997
       243.000         208.000
  24325595.058    -2421974.04249  -1851399.07145  24325595.311    24325603.384
       213.000         150.000
  21359063.275    -4013812.77049  -3108592.47547  21359062.569    21359068.637
       235.000         192.000
  23579683.602      580868.45649    450705.35945  23579683.225    23579692.024
       208.000         148.000
  21473895.821    -2972112.65349  -2300773.88946  21473894.952    21473901.451
       231.000         187.000
  21327003.140     -277152.94449   -212697.14547  21327002.493    21327009.207
       239.000         202.000
 99  5 23 17 10 29.9990000  0  7G24G 4G30G 5G 7G 8G 9
  20120089.146    -2934538.23549  -2269918.52148  20120088.662    20120095.448
       244.000         213.000
  20433995.619     -324856.33449   -249543.70847  20433995.679    20434001.099
       243.000         208.000
  24297665.288    -2568746.44849  -1965767.07345  24297665.356    24297673.075
       214.000         151.000
  21336565.161    -4132041.50449  -3200718.73847  21336564.554    21336570.368
       235.000         193.000
  23582836.205      597434.70749    463614.03245  23582835.123    23582843.523
       210.000         148.000
  21458519.816    -3052913.81649  -2363735.83746  21458518.597    21458524.737
       231.000         186.000
  21326877.431     -277813.31549   -213211.76347  21326876.820    21326883.738
       239.000         202.000
 99  5 23 17 10 59.9990000  0  7G24G 4G30G 5G 7G 8G 9
  20105417.468    -3011638.42749  -2329996.56048  20105417.059    20105423.574
       243.000         213.000
  20433765.684     -326064.75949   -250485.34747  20433765.678    20433770.918
       243.000         208.000
  24269711.683    -2715644.30949  -2080232.85545  24269711.328    24269719.622
       215.000         150.000
  21314094.157    -4250127.21549  -3292733.56047  21314093.610    21314099.577
       235.000         193.000
  23585976.520      613936.77749    476472.68545  23585975.299    23585984.463
       209.000         148.000
  21443243.778    -3133189.82949  -2426288.58546  21443242.612    21443248.852
       231.000         186.000
  21326822.599     -278101.21249   -213436.15047  21326822.378    21326828.918
       240.000         202.000
 99  5 23 17 11 29.9990000  0  7G24G 4G30G 5G 7G 8G 9
  20090833.815    -3088275.83949  -2389713.99148  20090833.266    20090839.790
       243.000         213.000
  20433617.327     -326844.33849   -251092.82247  20433617.251    20433622.652
       242.000         208.000
  24241736.272    -2862656.71949  -2194787.87545  24241736.345    24241743.662
       215.000         149.000
  21291651.795    -4368062.65249  -3384631.28947  21291651.027    21291656.821
       234.000         193.000
  23589104.453      630374.35649    489281.09545  23589104.263    23589112.532
       210.000         148.000
  21428066.433    -3212947.15849  -2488437.15246  21428065.559    21428072.522
       231.000         186.000
  21326838.447     -278018.04249   -213371.38947  21326838.477    21326844.663
       240.000         202.000
 99  5 23 17 11 59.9990000  0  7G24G 4G30G 5G 7G 8G 9
  20076336.230    -3164461.26949  -2449079.22848  20076335.812    20076342.207
       243.000         213.000
  20433546.735     -327215.17549   -251381.79647  20433546.710    20433552.475
       243.000         208.000
  24213741.760    -3009768.49049  -2309420.33845  24213740.526    24213748.798
       212.000         150.000
  21269236.319    -4485856.58949  -3476418.74447  21269235.095    21269241.445
       235.000         193.000
  23592219.406      646743.37449    502036.07945  23592218.687    23592227.603
       211.000         147.000
  21412986.225    -3292194.02449  -2550187.95846  21412984.799    21412992.661
       231.000         186.000
  21326925.428     -277561.75349   -213015.88347  21326925.207    21326931.676
       241.000         202.000
 99  5 23 17 12 29.9990000  0  7G24G 4G30G 5G 7G 8G 9
  20061928.310    -3240175.12449  -2508077.00448  20061927.607    20061934.524
       243.000         213.000
  20433555.651     -327168.65049   -251345.55347  20433555.914    20433561.385
       243.000         208.000
  24185732.756    -3156955.69249  -2424111.54545  24185733.165    24185739.906
       214.000         151.000
  21246848.338    -4603505.81249  -3568093.43847  21246847.074    21246853.737
       234.000         193.000
  23595324.040      663058.23949    514748.86645  23595323.398    23595332.048
       214.000         148.000
  21398007.401    -3370908.02749  -2611523.55146  21398006.838    21398013.304
       231.000         186.000
  21327086.571     -276715.32649   -212356.37447  21327086.076    21327092.806
       240.000         202.000
 99  5 23 17 12 59.9990000  0  7G24G 4G30G 5G 7G 8G 9
  20047606.109    -3315438.46649  -2566723.73448  20047605.741    20047612.643
       244.000         213.000
  20433642.152     -326714.47949   -250991.65947  20433642.194    20433647.402
       243.000         208.000
  24157709.146    -3304220.71949  -2538863.42345  24157708.446    24157715.536
       215.000         151.000
  21224486.736    -4721016.29049  -3659660.02247  21224486.334    21224492.432
       236.000         193.000
  23598414.137      679296.57949    527402.02345  23598413.538    23598422.923
       213.000         148.000
  21383127.997    -3449100.16149  -2672452.49546  21383127.179    21383133.133
       232.000         187.000
  21327317.886     -275499.55849   -211409.07547  21327317.395    21327324.189
       239.000         202.000
 99  5 23 17 13 29.9990000  0  7G24G 4G30G 5G 7G 8G 9
  20033366.872    -3390266.26649  -2625031.07748  20033366.379    20033373.274
       243.000         213.000
  20433802.859     -325870.00449   -250333.63347  20433802.793    20433808.017
       243.000         207.000
  24129671.825    -3451557.85849  -2653671.49145  24129672.246    24129679.011
       215.000         153.000
  21202152.167    -4838385.79149  -3751116.74447  21202151.736    21202157.412
       237.000         194.000
  23601489.212      695455.88549    539993.59945  23601489.259    23601498.216
       213.000         149.000
  21368348.526    -3526767.20949  -2732972.26846  21368346.931    21368353.696
       231.000         186.000
  21327619.361     -273915.38349   -210174.70047  21327618.837    21327625.781
       239.000         201.000
 99  5 23 17 13 59.9990000  0  7G24G 4G30G 5G 7G 8G 9
  20019211.338    -3464654.14749  -2682995.62348  20019210.839    20019217.387
       243.000         213.000
  20434037.518     -324637.00049   -249372.85247  20434037.260    20434042.962
       243.000         207.000
  24101618.730    -3598978.24749  -2768544.43345  24101619.076    24101625.142
       212.000         152.000
  21179847.537    -4955597.86949  -3842450.80747  21179846.877    21179852.242
       237.000         195.000
  23604551.129      711544.76049    552530.30345  23604550.859    23604559.633
       213.000         148.000
  21353671.870    -3603892.40149  -2793069.81246  21353670.741    21353677.527
       230.000         186.000
  21327992.309     -271955.50849   -208647.57347  21327991.958    21327998.888
       238.000         201.000
 99  5 23 17 14 29.9990000  0  7G24G 4G30G 5G 7G 8G 9
  20005138.318    -3538608.26949  -2740622.17948  20005137.651    20005144.638
       243.000         213.000
  20434346.358     -323014.03749   -248108.20947  20434346.137    20434351.909
       242.000         207.000
  24073547.113    -3746495.28149  -2883492.69745  24073547.050    24073553.951
       213.000         149.000
  21157572.963    -5072651.64949  -3933661.53047  21157572.178    21157577.949
       237.000         195.000
  23607598.176      727555.72449    565006.26845  23607597.590    23607605.809
       212.000         147.000
  21339097.152    -3680482.79649  -2852750.63946  21339096.331    21339103.488
       231.000         186.000
  21328435.659     -269625.63349   -206832.13747  21328435.351    21328442.439
       239.000         200.000
 99  5 23 17 14 59.9990000  0  7G24G 4G30G 5G 7G 8G 9
  19991147.152    -3612132.06749  -2797913.41548  19991146.697    19991153.173
       243.000         213.000
  20434728.385     -321006.09649   -246543.59247  20434728.162    20434734.329
       241.000         207.000
  24045456.817    -3894110.54949  -2998517.51245  24045456.767    24045463.334
       210.000         148.000
  21135328.715    -5189546.01649  -4024748.03447  21135328.057    21135334.177
       237.000         195.000
  23610630.305      743489.61849    577422.18545  23610629.451    23610637.690
       210.000         146.000
  21324623.919    -3756539.95949  -2912015.95446  21324623.011    21324630.031
       231.000         187.000
  21328950.943     -266918.09949   -204722.41247  21328950.935    21328957.291
       239.000         200.000
 99  5 23 17 15 29.9990000  0  7G24G 4G30G 5G 7G 8G 9
  19977243.799    -3685194.44849  -2854845.11048  19977243.132    19977249.629
       243.000         213.000
  20435186.815     -318596.78349   -244666.21647  20435186.665    20435192.046
       242.000         207.000
  24017351.420    -4041804.60849  -3113603.67845  24017351.853    24017358.374
       213.000         147.000
  21113116.689    -5306270.82549  -4115702.40047  21113115.774    21113121.880
       236.000         195.000
  23613652.630      759372.93849    589798.71145  23613652.079    23613660.651
       211.000         145.000
  21310256.079    -3832043.42349  -2970849.81646  21310255.247    21310262.276
       232.000         187.000
  21329543.405     -263805.14349   -202296.77747  21329543.264    21329550.003
       239.000         200.000
 99  5 23 17 15 59.9980000  0  7G24G 4G30G 5G 7G 8G 9
  19963430.961    -3757780.96049  -2911405.99348  19963430.225    19963437.120
       242.000         213.000
  20435723.108     -315778.56249   -242470.20847  20435723.203    20435728.499
       243.000         207.000
  23989231.492    -4189576.88349  -3228750.81645  23989231.231    23989237.657
       212.000         149.000
  21090933.324    -5422844.54049  -4206539.02847  21090932.841    21090938.568
       236.000         195.000
  23616663.417      775194.34349    602126.98445  23616663.644    23616672.470
       210.000         147.000
  21295992.019    -3907001.81549  -3029258.95846  21295991.452    21295997.883
       232.000         187.000
  21330211.067     -260296.62849   -199562.92447  21330210.752    21330217.410
       239.000         200.000
 99  5 23 17 16 29.9980000  0  7G24G 4G30G 5G 7G 8G 9
  19949713.026    -3829868.94249  -2967578.40748  19949712.471    19949719.219
       243.000         213.000
  20436338.820     -312543.16349   -239949.13247  20436338.647    20436344.294
       242.000         207.000
  23961104.809    -4337384.12649  -3343925.19645  23961103.293    23961111.691
       208.000         149.000
  21068780.129    -5539260.25849  -4297252.52847  21068779.348    21068785.483
       237.000         195.000
  23619666.035      790972.83549    614421.80045  23619665.586    23619675.126
       210.000         147.000
  21281834.221    -3981401.92049  -3087233.05946  21281833.453    21281839.756
       232.000         187.000
  21330955.729     -256383.98749   -196514.16647  21330955.946    21330961.823
       240.000         200.000
 99  5 23 17 16 59.9980000  0  7G24G 4G30G 5G 7G 8G 9
  19936093.284    -3901441.08449  -3023348.87348  19936092.960    19936099.239
       243.000         213.000
  20437035.135     -308883.92149   -237097.78847  20437034.915    20437040.695
       241.000         207.000
  23932973.405    -4485214.87049  -3459117.87245  23932973.167    23932979.861
       206.000         149.000
  21046659.431    -5655505.22249  -4387832.98847  21046658.561    21046664.756
       237.000         196.000
  23622662.843      806720.11749    626692.28645  23622663.181    23622670.351
       211.000         148.000
  21267787.196    -4055219.97549  -3144753.61946  21267786.468    21267792.840
       233.000         187.000
  21331776.547     -252071.46349   -193153.80147  21331776.209    21331782.689
       239.000         200.000
 99  5 23 17 17 29.9980000  0  7G24G 4G30G 5G 7G 8G 9
  19922574.348    -3972483.50649  -3078706.57748  19922573.729    19922580.530
       243.000         213.000
  20437813.485     -304793.64549   -233910.57947  20437813.476    20437819.474
       242.000         206.000
  23904836.242    -4633074.68849  -3574333.22345  23904836.056    23904843.104
       203.000         143.000
  21024575.484    -5771556.73849  -4478262.72947  21024575.219    21024580.886
       238.000         197.000
  23625655.569      822446.04349    638946.13745  23625655.829    23625664.741
       212.000         149.000
  21253852.616    -4128446.98049  -3201813.63447  21253851.875    21253858.500
       232.000         188.000
  21332670.728     -247372.40349   -189492.24447  21332670.010    21332676.574
       238.000         199.000
 99  5 23 17 17 59.9980000  0  7G24G 4G30G 5G 7G 8G 9
  19909154.377    -4043005.62349  -3133658.84448  19909154.119    19909160.683
       244.000         214.000
  20438672.762     -300278.45749   -230392.27247  20438672.711    20438678.166
       241.000         206.000
  23876695.248    -4780956.16449  -3689565.43545  23876694.328    23876701.199
       207.000         140.000
  21002532.329    -5887394.95249  -4568526.26047  21002531.750    21002537.481
       239.000         198.000
  23628644.738      838152.76049    651185.04945  23628643.710    23628651.575
       209.000         148.000
  21240029.232    -4201089.22849  -3258417.98347  21240028.324    21240034.505
       233.000         188.000
  21333637.720     -242290.54349   -185532.40747  21333636.960    21333644.274
       238.000         199.000
 99  5 23 17 18 29.9980000  0  8G24G 4G30G 5G 7G 8G 9G10
  19895830.638    -4113022.93649  -3188217.76448  19895830.383    19895836.596
       244.000         214.000
  20439609.995     -295352.98549   -226554.25847  20439609.982    20439615.323
       241.000         206.000
  23848549.932    -4928860.63449  -3804815.61245  23848549.783    23848557.089
       211.000         141.000
  20980531.418    -6003011.17249  -4658616.79147  20980530.881    20980536.037
       237.000         197.000
  23631631.434      853847.49649    663414.60445  23631630.513    23631639.769
       211.000         148.000
  21226318.208    -4273141.68349  -3314562.74547  21226317.256    21226323.886
       233.000         188.000
  21334677.667     -236825.58949   -181274.05147  21334677.240    21334683.767
       238.000         199.000

       200.000          74.000
 99  5 23 17 18 59.9980000  0  8G24G 4G30G 5G 7G 8G 9G10
  19882604.292    -4182527.64349  -3242377.24648  19882603.450    19882610.398
       242.000         213.000
  20440628.756     -289999.26149   -222382.54047  20440628.857    20440634.370
       241.000         206.000
  23820397.917    -5076801.94249  -3920094.47445  23820399.151    23820404.265
       212.000         146.000
  20958575.244    -6118391.88649  -4748523.81447  20958574.051    20958579.770
       236.000         196.000
  23634619.140      869547.57549    675648.32545  23634618.694    23634627.380
       213.000         148.000
  21212719.054    -4344605.80649  -3370249.08247  21212718.730    21212724.867
       234.000         189.000
  21335794.557     -230956.67449   -176700.92047  21335794.387    21335801.276
       238.000         199.000

       201.000          74.000
 99  5 23 17 19 29.9980000  0  8G24G 4G30G 5G 7G 8G 9G10
  19869478.085    -4251505.92649  -3296126.52848  19869477.487    19869484.284
       243.000         213.000
  20441729.413     -284215.56649   -217875.78547  20441729.125    20441735.104
       241.000         206.000
  23792245.952    -5224742.69849  -4035372.88445  23792246.630    23792253.419
       212.000         149.000
  20936669.680    -6233505.55949  -4838222.74847  20936668.246    20936674.332
       236.000         196.000
  23637610.994      885268.31149    687898.13345  23637611.192    23637619.017
       213.000         148.000
  21199231.618    -4415482.60249  -3425477.76047  21199230.948    21199237.271
       233.000         189.000
  21336992.886     -224659.79049   -171794.30847  21336992.597    21336999.151
       238.000         198.000

       204.000          74.000
 99  5 23 17 19 59.9980000  0  8G24G 4G30G 5G 7G 8G 9G10
  19856447.407    -4319982.25449  -3349484.67848  19856447.128    19856453.422
       243.000         213.000
  20442906.836     -278027.91949   -213054.25447  20442906.590    20442912.587
       241.000         205.000
  23764093.400    -5372685.07049  -4150652.52745  23764092.041    23764100.993
       209.000         147.000
  20914808.816    -6348384.87949  -4927739.08047  20914807.860    20914813.799
       237.000         196.000
  23640600.711      900977.66749    700139.08145  23640600.093    23640608.370
       214.000         148.000
  21185851.639    -4485794.64549  -3480266.37047  21185851.300    21185857.326
       233.000         188.000
  21338270.811     -217945.04649   -166562.09047  21338270.703    21338277.285
       239.000         198.000

       206.000          74.000
 99  5 23 17 20 29.9980000  0  8G24G 4G30G 5G 7G 8G 9G10
  19843512.033    -4387958.41049  -3402453.08448  19843511.743    19843518.103
       243.000         213.000
  20444160.298     -271441.13449   -207921.71447  20444160.352    20444165.711
       241.000         205.000
  23735936.922    -5520646.67649  -4265947.15745  23735935.834    23735943.470
       208.000         144.000
  20892990.608    -6463040.42849  -5017081.04347  20892989.564    20892995.739
       237.000         198.000
  23643584.989      916659.91649    712358.92145  23643583.328    23643593.666
       213.000         147.000
  21172579.951    -4555537.78249  -3534611.67947  21172579.188    21172585.902
       233.000         188.000
  21339625.832     -210824.99749   -161014.05947  21339625.824    21339632.339
       238.000         199.000

       206.000          74.000
 99  5 23 17 20 59.9980000  0  8G24G 4G30G 5G 7G 8G 9G10
  19830669.708    -4455445.25749  -3455040.21048  19830669.233    19830675.963
       243.000         213.000
  20445490.130     -264453.29049   -202476.65447  20445490.232    20445495.630
       242.000         205.000
  23707777.413    -5668624.66949  -4381254.60745  23707776.958    23707784.287
       213.000         143.000
  20871214.816    -6577473.15949  -5106249.39747  20871213.839    20871219.951
       237.000         198.000
  23646559.006      932288.46649    724536.91745  23646558.828    23646566.924
       210.000         145.000
  21159414.072    -4624724.84549  -3588523.67947  21159413.263    21159419.918
       233.000         189.000
  21341054.159     -203319.43649   -155165.62947  21341053.976    21341060.740
       238.000         199.000

       205.000          74.000
 99  5 23 17 21 29.9980000  0  8G24G 4G30G 5G 7G 8G 9G10
  19817918.951    -4522450.90449  -3507252.37548  19817918.491    19817925.041
       243.000         213.000
  20446895.847     -257066.64849   -196720.85247  20446895.899    20446901.214
       242.000         205.000
  23679616.234    -5816611.68949  -4496569.12045  23679616.253    23679623.671
       215.000         145.000
  20849481.241    -6691683.52649  -5195244.47547  20849480.205    20849486.587
       237.000         199.000
  23649519.194      947844.05249    736658.05245  23649518.379    23649527.439
       211.000         144.000
  21146358.613    -4693331.91549  -3641983.73747  21146358.051    21146364.573
       232.000         189.000
  21342553.131     -195442.40049   -149027.72947  21342552.668    21342559.694
       237.000         198.000

       204.000          74.000
 99  5 23 17 21 59.9980000  0  8G24G 4G30G 5G 7G 8G 9G10
  19805263.767    -4588953.87349  -3559072.84348  19805263.232    19805269.672
       243.000         213.000
  20448382.734     -249253.32749   -190632.56247  20448382.809    20448388.079
       242.000         205.000
  23651454.246    -5964602.98049  -4611886.95445  23651453.959    23651461.178
       214.000         147.000
  20827791.370    -6805664.48349  -5284060.78147  20827790.491    20827796.410
       237.000         198.000
  23652468.191      963341.76549    748734.08745  23652466.748    23652476.602
       208.000         143.000
  21133418.757    -4761331.00249  -3694970.04347  21133417.899    21133424.385
       232.000         188.000
  21344125.940     -187177.13749   -142587.32347  21344125.799    21344132.762
       237.000         198.000

       205.000          74.000
 99  5 23 17 22 29.9980000  0  8G24G 4G30G 5G 7G 8G 9G10
  19792703.799    -4654957.02949  -3610503.84348  19792703.337    19792709.943
       243.000         213.000
  20449950.571     -241014.35949   -184212.60147  20449950.454    20449955.874
       241.000         204.000
  23623290.506    -6112603.42649  -4727211.89545  23623288.937    23623296.376
       212.000         148.000
  20806145.965    -6919411.57049  -5372694.85947  20806144.906    20806151.217
       236.000         198.000
  23655407.339      978788.58649    760770.46645  23655407.622    23655415.294
       209.000         142.000
  21120593.776    -4828726.46049  -3747485.98847  21120593.018    21120599.887
       235.000         188.000
  21345771.446     -178530.21349   -135849.50147  21345771.210    21345778.227
       238.000         198.000

       204.000          74.000
 99  5 23 17 22 59.9980000  0  8G24G 4G30G 5G 7G 8G 9G10
  19780237.177    -4720469.39549  -3661552.41348  19780236.827    19780243.235
       245.000         213.000
  20451596.558     -232364.43049   -177472.41447  20451596.314    20451601.961
       241.000         204.000
  23595123.735    -6260619.01749  -4842548.60445  23595123.526    23595131.169
       213.000         150.000
  20784542.381    -7032938.98749  -5461157.76447  20784541.471    20784547.096
       237.000         198.000
  23658336.431      994181.02649    772764.48045  23658335.845    23658344.833
       211.000         143.000
  21107878.669    -4895545.20549  -3799552.54847  21107878.340    21107884.780
       234.000         188.000
  21347487.697     -169511.89549   -128822.29747  21347487.642    21347494.317
       239.000         198.000
  23413763.064    -1384523.34249   -373263.12644  23413759.851    23413774.916
       205.000         129.000
 99  5 23 17 23 29.9980000  0  8G24G 4G30G 5G 7G 8G 9G10
  19767863.803    -4785491.89749  -3712219.27248  19767863.283    19767869.877
       244.000         213.000
  20453315.200     -223332.75149   -170434.75247  20453315.025    20453320.523
       241.000         204.000
  23566949.057    -6408676.95049  -4957918.33745  23566949.271    23566955.968
       216.000         152.000
  20762978.275    -7146258.95249  -5549459.01247  20762977.220    20762983.034
       237.000         198.000
  23661257.815     1009531.62449    784725.87445  23661257.472    23661266.068
       211.000         143.000
  21095269.607    -4961806.48149  -3851184.70647  21095269.189    21095275.194
       233.000         189.000
  21349273.547     -160128.05749   -121510.26847  21349273.356    21349279.985
       238.000         199.000
  23386344.718    -1528606.19149   -485535.30145  23386342.182    23386354.404
       206.000         135.000
 99  5 23 17 23 59.9980000  0  8G24G 4G30G 5G 7G 8G 9G10
  19755584.691    -4850018.64449  -3762499.83048  19755584.024    19755590.868
       244.000         213.000
  20455105.852     -213923.16149   -163102.62447  20455105.775    20455111.259
       241.000         204.000
  23538767.816    -6556770.37849  -5073315.75645  23538767.490    23538774.254
       217.000         153.000
  20741453.388    -7259372.52949  -5637599.45047  20741452.541    20741458.572
       238.000         199.000
  23664174.949     1024860.36749    796670.22745  23664173.943    23664183.063
       209.000         143.000
  21082763.957    -5027524.17549  -3902393.30547  21082763.556    21082769.923
       234.000         189.000
  21351130.202     -150371.51249   -113907.82747  21351129.850    21351136.161
       238.000         198.000
  23358919.969    -1672722.35249   -597833.40145  23358918.127    23358929.706
       206.000         139.000
 99  5 23 17 24 29.9980000  0  8G24G 4G30G 5G 7G 8G 9G10
  19743400.705    -4914045.78649  -3812391.08248  19743400.458    19743406.972
       245.000         213.000
  20456969.619     -204128.60449   -155470.51047  20456969.165    20456974.962
       240.000         204.000
  23510581.526    -6704890.64849  -5188734.09745  23510581.273    23510587.230
       217.000         153.000
  20719970.933    -7372263.92149  -5725566.75247  20719970.073    20719975.995
       238.000         199.000
  23667091.336     1040185.52949    808611.79845  23667091.493    23667099.891
       206.000         142.000
  21070362.254    -5092695.77749  -3953176.36747  21070361.382    21070367.820
       233.000         188.000
  21353057.385     -140243.67249   -106016.06547  21353056.527    21353063.441
       236.000         197.000
  23331490.832    -1816862.79049   -710150.41245  23331490.086    23331501.363
       208.000         143.000
 99  5 23 17 24 59.9980000  0  8G24G 4G30G 5G 7G 8G 9G10
  19731309.940    -4977583.32949  -3861900.83148  19731309.349    19731315.751
       245.000         213.000
  20458904.718     -193958.93949   -147546.10447  20458904.475    20458910.277
       240.000         203.000
  23482388.391    -6853046.16549  -5304179.86745  23482387.082    23482393.417
       215.000         151.000
  20698530.396    -7484934.89749  -5813362.30147  20698529.636    20698535.525
       238.000         200.000
  23670005.531     1055499.70949    820544.81145  23670005.506    23670014.321
       207.000         141.000
  21058063.366    -5157326.05249  -4003537.63447  21058062.337    21058069.095
       233.000         188.000
  21355052.372     -129759.40649    -97846.57647  21355051.975    21355058.988
       236.000         196.000
  23304055.820    -1961034.01849   -822491.40945  23304053.889    23304066.975
       205.000         144.000
 99  5 23 17 25 29.9980000  0  8G24G 4G30G 5G 7G 8G 9G10
  19719312.418    -5040630.96849  -3911028.83248  19719312.134    19719318.537
       245.000         214.000
  20460910.426     -183418.65249   -139332.90347  20460910.207    20460915.982
       241.000         203.000
  23454190.333    -7001227.01449  -5419645.37145  23454190.582    23454198.497
       216.000         153.000
  20677134.266    -7597371.93349  -5900975.55747  20677133.179    20677139.310
       237.000         199.000
  23672915.762     1070792.89749    832461.46145  23672915.532    23672926.404
       204.000         141.000
  21045872.828    -5221387.43149  -4053455.60347  21045872.206    21045878.821
       232.000         188.000
  21357115.111     -118919.56349    -89400.00747  21357114.637    21357121.789
       235.000         196.000
  23276614.822    -2105235.89949   -934856.29645  23276613.915    23276625.253
       206.000         144.000
 99  5 23 17 25 59.9980000  0  8G24G 4G30G 5G 7G 8G 9G10
  19707406.522    -5103196.95949  -3959781.52448  19707406.147    19707412.516
       245.000         214.000
  20462986.803     -172507.76349   -130830.92547  20462987.199    20462992.231
       241.000         204.000
  23425990.714    -7149417.29449  -5535118.23645  23425991.354    23425998.121
       217.000         156.000
  20655783.980    -7709567.44349  -5988400.61347  20655783.009    20655789.220
       237.000         199.000
  23675819.400     1086050.57049    844350.43645  23675820.191    23675827.364
       204.000         140.000
  21033791.427    -5284875.01549  -4102926.45647  21033790.120    21033797.241
       232.000         188.000
  21359243.667     -107733.68749    -80683.80547  21359243.134    21359250.513
       235.000         195.000
  23249169.466    -2249461.02749  -1047239.30345  23249167.526    23249179.590
       206.000         143.000
 99  5 23 17 26 29.9980000  0  8G24G 4G30G 5G 7G 8G 9G10
  19695591.999    -5165282.72049  -4008160.02048  19695591.566    19695597.882
       245.000         213.000
  20465132.379     -161233.09149   -122045.48047  20465132.394    20465137.841
       241.000         204.000
  23397789.684    -7297614.86749  -5650596.78145  23397789.757    23397796.736
       215.000         157.000
  20634483.090    -7821504.21249  -6075624.05547  20634482.605    20634488.148
       238.000         199.000
  23678715.539     1101267.69249    856207.79645  23678714.747    23678724.898
       205.000         139.000
  21021820.060    -5347784.52949  -4151946.86047  21021819.227    21021825.956
       232.000         188.000
  21361436.959      -96207.99649    -71702.80247  21361436.685    21361443.864
       236.000         195.000
  23221723.135    -2393690.78449  -1159625.91145  23221720.927    23221732.763
       204.000         141.000
 99  5 23 17 26 59.9980000  0  8G24G 4G30G 5G 7G 8G 9G10
  19683874.041    -5226860.82549  -4056142.93348  19683873.368    19683880.140
       244.000         213.000
  20467350.543     -149576.71749   -112962.60047  20467350.348    20467356.588
       241.000         204.000
  23369595.886    -7445773.79749  -5766045.21845  23369595.116    23369602.854
       214.000         157.000
  20613238.568    -7933145.78649  -6162617.47347  20613238.262    20613243.449
       239.000         200.000
  23681608.263     1116467.85449    868051.97545  23681608.524    23681618.490
       201.000         137.000
  21009968.902    -5410062.92349  -4200475.49147  21009968.581    21009974.642
       234.000         189.000
  21363701.272      -84309.28749    -62431.13947  21363700.928    21363708.325
       236.000         195.000
  23194282.666    -2537889.44149  -1271988.27245  23194279.934    23194293.495
       205.000         140.000
 99  5 23 17 27 29.9980000  0  8G24G 4G30G 5G 7G 8G 9G10
  19672252.253    -5287933.21549  -4103731.78648  19672251.704    19672258.485
       244.000         213.000
  20469639.349     -137548.76149   -103590.18047  20469639.054    20469645.275
       241.000         204.000
  23341409.361    -7593894.15649  -5881463.62245  23341409.768    23341416.300
       213.000         156.000
  20592048.809    -8044498.88549  -6249386.11147  20592048.122    20592053.964
       238.000         200.000
  23684496.474     1131645.70249    879878.72245  23684495.315    23684504.568
       199.000         135.000
  20998238.153    -5471709.07249  -4248511.45647  20998237.822    20998243.516
       235.000         189.000
  21366036.360      -72038.58549    -52869.61947  21366035.951    21366043.059
       236.000         195.000
  23166847.800    -2682059.53549  -1384328.39345  23166846.616    23166857.809
       204.000         142.000
 99  5 23 17 27 59.9980000  0  8G24G 4G30G 5G 7G 8G 9G10
  19660724.136    -5348513.51149  -4150937.18848  19660723.604    19660729.942
       244.000         213.000
  20471999.324     -125147.41349    -93926.80647  20471999.350    20472004.719
       242.000         204.000
  23313225.773    -7741998.30049  -5996869.37445  23313223.971    23313233.390
       210.000         153.000
  20570910.554    -8155580.59349  -6335943.27347  20570909.845    20570915.658
       238.000         200.000
  23687381.135     1146804.66549    891690.75545  23687380.128    23687391.694
       197.000         133.000
  20986623.600    -5532744.59049  -4296071.60947  20986623.083    20986629.459
       234.000         190.000
  21368440.606      -59404.37849    -43024.84247  21368439.897    21368447.284
       235.000         195.000
  23139418.473    -2826200.60249  -1496645.89245  23139416.595    23139428.795
       206.000         142.000
 99  5 23 17 28 29.9980000  0  8G24G 4G30G 5G 7G 8G 9G10
  19649295.933    -5408569.19549  -4197733.80748  19649295.636    19649301.610
       245.000         213.000
  20474438.196     -112330.97749    -83939.99047  20474437.952    20474443.728
       240.000         203.000
  23285049.308    -7890064.72849  -6112245.72545  23285049.386    23285057.770
       207.000         153.000
  20549827.971    -8266370.11549  -6422272.75647  20549827.091    20549832.926
       238.000         201.000
  23690268.189     1161977.66748    903513.75744  23690265.720    23690278.793
       193.000         129.000
  20975132.565    -5593131.10949  -4343126.06147  20975132.518    20975138.217
       234.000         190.000
  21370919.284      -46379.02049    -32875.27847  21370919.210    21370925.683
       235.000         195.000
  23112000.535    -2970282.08049  -1608916.96045  23111999.196    23112010.935
       207.000         144.000
 99  5 23 17 28 59.9980000  0  8G24G 4G30G 5G 7G 8G 9G10
  19637970.019    -5468087.12249  -4244111.39748  19637969.716    19637975.975
       245.000         213.000
  20476958.943      -99084.08049    -73617.74047  20476958.966    20476964.687
       240.000         203.000
  23256879.726    -8038096.85349  -6227595.36345  23256879.447    23256887.345
       210.000         154.000
  20528798.095    -8376882.54949  -6508386.32247  20528797.429    20528802.937
       238.000         201.000
  23693157.171     1177160.42249    915344.33844  23693157.189    23693165.512
       196.000         127.000
  20963763.003    -5652878.74349  -4389682.66647  20963762.109    20963769.042
       234.000         190.000
  21373473.045      -32958.84049    -22418.05047  21373472.993    21373479.770
       236.000         194.000
  23084593.548    -3114306.68349  -1721143.70945  23084592.829    23084604.080
       210.000         146.000
 99  5 23 17 29 29.9980000  0  8G24G 4G30G 5G 7G 8G 9G10
  19626748.303    -5527057.46849  -4290062.29248  19626747.855    19626754.535
       245.000         213.000
  20479564.222      -85393.18849    -62949.52647  20479564.343    20479569.815
       241.000         203.000
  23228714.753    -8186104.71549  -6342926.07945  23228716.134    23228722.173
       212.000         155.000
  20507821.477    -8487115.64249  -6594282.22247  20507820.771    20507826.781
       239.000         201.000
  23696048.374     1192353.99948    927183.33344  23696044.969    23696057.795
       193.000         125.000
  20952509.238    -5712018.02849  -4435765.23047  20952509.160    20952514.711
       233.000         190.000
  21376100.946      -19149.61449    -11657.67347  21376100.943    21376107.723
       236.000         194.000
  23057196.250    -3258280.14649  -1833330.59545  23057195.156    23057206.681
       209.000         147.000
 99  5 23 17 29 59.9980000  0  8G24G 4G30G 5G 7G 8G 9G10
  19615635.257    -5585456.48849  -4335568.00448  19615634.759    19615641.085
       244.000         213.000
  20482257.760      -71238.86849    -51920.20647  20482257.978    20482263.812
       241.000         204.000
  23200559.765    -8334061.05449  -6458216.64945  23200560.316    23200567.407
       209.000         156.000
  20486902.606    -8597045.39149  -6679941.75347  20486902.213    20486908.017
       238.000         202.000
  23698945.503     1207578.52348    939046.49144  23698943.873    23698953.982
       193.000         124.000
  20941372.435    -5770542.55849  -4481368.77147  20941371.120    20941377.959
       232.000         190.000
  21378806.234       -4933.42749      -580.18347  21378806.240    21378812.873
       236.000         194.000
  23029813.152    -3402178.40749  -1945458.90045  23029812.203    23029823.617
       211.000         148.000
 99  5 23 17 30 29.9980000  0  8G24G 4G30G 5G 7G 8G 9G10
  19604633.028    -5643273.30249  -4380620.06147  19604632.375    19604638.821
       244.000         212.000
  20485035.572      -56641.76849    -40545.86947  20485035.645    20485041.125
       241.000         204.000
  23172419.320    -8481940.20949  -6573447.05945  23172418.588    23172427.063
       208.000         155.000
  20466042.662    -8706665.08349  -6765359.68747  20466041.934    20466047.796
       239.000         202.000
  23701848.370     1222833.16349    950933.11344  23701846.913    23701860.796
       199.000         122.000
  20930351.585    -5828456.66449  -4526496.67447  20930350.630    20930357.292
       232.000         189.000
  21381588.228        9685.89249     10811.41847  21381588.434    21381595.092
       235.000         193.000
  23002446.050    -3545993.66449  -2057522.53245  23002444.569    23002456.065
       210.000         149.000
 99  5 23 17 30 59.9980000  0  8G24G 4G30G 5G 7G 8G 9G10
  19593738.947    -5700521.71649  -4425229.20447  19593738.427    19593744.943
       244.000         212.000
  20487893.432      -41623.31449    -28843.20847  20487893.027    20487899.267
       239.000         203.000
  23144294.620    -8629735.82149  -6688612.39945  23144294.848    23144302.218
       212.000         155.000
  20445241.415    -8815976.41149  -6850537.34147  20445240.684    20445246.593
       239.000         202.000
  23704756.163     1238112.32348    962838.74544  23704757.118    23704765.868
       189.000         120.000
  20919446.909    -5885761.29349  -4571149.66247  20919446.219    20919453.050
       233.000         189.000
  21384445.339       24699.59349     22510.32447  21384445.456    21384452.346
       235.000         194.000
  22975091.960    -3689740.36049  -2169532.76445  22975090.636    22975102.070
       213.000         150.000
 99  5 23 17 31 29.9980000  0  8G24G 4G30G 5G 7G 8G 9G10
  19582950.066    -5757217.50849  -4469407.73747  19582949.526    19582956.201
       244.000         212.000
  20490828.306      -26200.56249    -16825.50747  20490828.415    20490833.655
       240.000         202.000
  23116189.405    -8777430.46749  -6803699.08545  23116189.845    23116196.139
       215.000         157.000
  20424501.625    -8924964.66649  -6935463.25047  20424500.862    20424506.741
       239.000         202.000
  23707672.377     1253436.55848    974779.55944  23707669.182    23707684.551
       191.000         117.000
  20908662.684    -5942433.20449  -4615309.61947  20908661.845    20908668.800
       233.000         190.000
  21387375.440       40097.06549     34508.27947  21387374.489    21387382.387
       235.000         194.000
  22947752.460    -3833410.16149  -2281483.04445  22947751.182    22947761.246
       214.000         150.000
 99  5 23 17 31 59.9970000  0  8G24G 4G30G 5G 7G 8G 9G10
  19572258.753    -5813400.83749  -4513186.93448  19572258.507    19572264.955
       245.000         213.000
  20493830.811      -10422.57449     -4530.98547  20493831.196    20493836.487
       241.000         202.000
  23088100.084    -8925041.16749  -6918720.31645  23088100.760    23088106.477
       219.000         158.000
  20403817.010    -9033662.84249  -7020163.10547  20403816.502    20403821.872
       238.000         202.000
  23710589.765     1268768.68948    986726.59244  23710589.760    23710599.571
       189.000         117.000
  20897995.844    -5998487.15549  -4658988.02847  20897994.599    20898002.283
       232.000         189.000
  21390371.410       55840.94749     46776.16247  21390371.544    21390378.859
       235.000         194.000
  22920424.102    -3977021.38249  -2393387.64545  22920422.072    22920433.374
       214.000         150.000
 99  5 23 17 32 29.9970000  0  8G24G 4G30G 5G 7G 8G 9G10
  19561666.616    -5869063.31749  -4556560.27648  19561666.390    19561672.656
       245.000         213.000
  20496904.840        5731.43549      8056.53947  20496904.638    20496910.460
       240.000         201.000
  23060027.564    -9072563.31849  -7033672.57045  23060027.055    23060034.261
       218.000         158.000
  20383190.765    -9142054.04149  -7104623.76047  20383190.061    20383195.683
       239.000         201.000
  23713512.658     1284127.76648    998694.63944  23713512.977    23713523.055
       194.000         116.000
  20887451.440    -6053897.88549  -4702165.22147  20887450.839    20887457.204
       232.000         189.000
  21393436.284       71946.42449     59325.81147  21393436.382    21393443.403
       235.000         194.000
  22893107.569    -4120570.24249  -2505243.66845  22893105.553    22893116.020
       214.000         152.000
 99  5 23 17 32 59.9970000  0  8G24G 4G30G 5G 7G 8G 9G10
  19551166.257    -5924242.87749  -4599557.31547  19551165.710    19551172.226
       244.000         212.000
  20500046.465       22240.90149     20921.04647  20500046.313    20500052.413
       240.000         201.000
  23031963.289    -9220041.85549  -7148590.83445  23031963.693    23031970.309
       220.000         159.000
  20362619.726    -9250155.30849  -7188858.49447  20362618.932    20362624.914
       239.000         202.000
  23716435.151     1299482.25249   1010659.06744  23716436.373    23716445.462
       196.000         114.000
  20877022.273    -6108703.44149  -4744870.86547  20877022.078    20877028.233
       233.000         190.000
  21396563.712       88380.51849     72131.52947  21396563.817    21396570.751
       235.000         193.000
  22865796.692    -4264087.98049  -2617075.45745  22865794.520    22865805.757
       212.000         152.000
 99  5 23 17 33 29.9970000  0  8G24G 4G30G 5G 7G 8G 9G10
  19540757.872    -5978939.02449  -4642177.66547  19540757.365    19540764.289
       243.000         212.000
  20503255.750       39105.54449     34062.30347  20503256.041    20503261.215
       240.000         201.000
  23003904.829    -9367490.38949  -7263485.70345  23003905.068    23003911.636
       222.000         160.000
  20342105.989    -9357955.81649  -7272858.86947  20342105.094    20342111.267
       239.000         203.000
  23719353.401     1314816.53548   1022607.72844  23719350.595    23719360.010
       189.000         111.000
  20866702.505    -6162934.77849  -4787129.05947  20866702.113    20866708.275
       233.000         190.000
  21399753.093      105140.28349     85191.01347  21399753.219    21399759.910
       234.000         193.000
  22838494.589    -4407559.63749  -2728871.33545  22838493.140    22838503.853
       216.000         154.000
 99  5 23 17 33 59.9970000  0  8G24G 4G30G 5G 7G 8G 9G10
  19530445.195    -6033132.63249  -4684406.42547  19530444.894    19530451.333
       244.000         212.000
  20506534.634       56335.92149     47488.55447  20506534.512    20506540.441
       239.000         201.000
  22975851.817    -9514910.51749  -7378358.48145  22975852.348    22975858.084
       221.000         159.000
  20321651.748    -9465443.71749  -7356615.65847  20321651.154    20321656.855
       239.000         203.000
  23722265.801     1330121.33248                                  23722272.223
       187.000         107.000
  20856491.060    -6216596.62149  -4828943.49847  20856490.222    20856496.916
       233.000         191.000
  21403008.897      122249.36449     98522.68347  21403008.426    21403016.277
       236.000         193.000
  22811203.120    -4550976.09849  -2840624.20845  22811202.013    22811212.962
       216.000         156.000
 99  5 23 17 34 29.9970000  0  8G24G 4G30G 5G 7G 8G 9G10
  19520226.254    -6086833.77749  -4726251.45547  19520225.599    19520231.832
       244.000         212.000
  20509882.381       73928.51749     61197.04947  20509882.264    20509888.390
       239.000         201.000
  22947803.728    -9662304.00149  -7493210.52045  22947803.496    22947810.045
       221.000         157.000
  20301257.028    -9572619.01749  -7440128.85847  20301256.513    20301262.057
       240.000         203.000
  23725174.071     1345403.66748                                  23725171.066
       182.000         106.000
  20846387.115    -6269693.14749  -4870317.42747  20846386.497    20846392.913
       234.000         191.000
  21406331.461      139709.10849    112127.61847  21406331.145    21406338.315
       236.000         193.000
  22783923.889    -4694329.13449  -2952327.64645  22783922.549    22783933.585
       216.000         158.000
 99  5 23 17 34 59.9970000  0  8G24G 4G30G 5G 7G 8G 9G10
  19510095.359    -6140071.53649  -4767735.39847  19510094.952    19510101.674
       245.000         212.000
  20513293.354       91853.49549     75164.55047  20513293.303    20513298.967
       240.000         200.000
  22919757.609    -9809687.21949  -7608054.51745  22919756.653    22919763.089
       221.000         156.000
  20280916.099    -9679511.53049  -7523421.69947  20280915.145    20280921.016
       239.000         203.000

       190.000         104.000
  20836385.726    -6322250.78549  -4911271.44947  20836385.690    20836391.260
       234.000         191.000
  21409715.292      157490.92149    125983.50747  21409714.903    21409722.400
       234.000         192.000
  22756655.198    -4837627.13749  -3063988.21245  22756653.756    22756664.595
       217.000         158.000
 99  5 23 17 35 29.9970000  0  8G24G 4G30G 5G 7G 8G 9G10
  19500058.034    -6192818.34649  -4808836.78548  19500057.901    19500064.011
       245.000         213.000
  20516771.022      110128.71349     89404.96147  20516770.595    20516777.220
       238.000         200.000
  22891721.693    -9957016.17049  -7722856.24845  22891720.901    22891726.815
       219.000         154.000
  20260631.385    -9786107.82849  -7606483.72847  20260630.467    20260636.342
       239.000         203.000

       184.000          74.000
  20826495.165    -6374226.03749  -4951771.64847  20826494.548    20826501.711
       234.000         191.000
  21413165.655      175622.65849    140112.06847  21413165.334    21413172.937
       234.000         192.000
  22729402.822    -4980838.46249  -3175581.23045  22729401.243    22729411.803
       215.000         158.000
 99  5 23 17 35 59.9970000  0  8G24G 4G30G 5G 7G 8G 9G10
  19490117.480    -6245056.51449  -4849541.83248  19490116.993    19490123.437
       244.000         213.000
  20520317.092      128763.37749    103925.46047  20520317.110    20520322.950
       239.000         200.000
  22863702.473   -10104257.61449  -7837589.76945  22863701.279    22863707.864
       218.000         154.000
  20240404.194    -9892402.39749  -7689310.65347  20240403.410    20240409.241
       239.000         203.000

       186.000          74.000
  20816724.955    -6425568.95349  -4991779.13747  20816724.581    20816731.305
       235.000         191.000
  21416685.764      194120.61549    154525.97747  21416685.707    21416692.983
       234.000         192.000
  22702171.173    -5123940.38149  -3287089.00545  22702168.786    22702180.075
       214.000         158.000
 99  5 23 17 36 29.9970000  0  8G24G 4G30G 5G 7G 8G 9G10
  19480271.696    -6296796.09949  -4889858.36848  19480271.269    19480277.841
       242.000         213.000
  20523930.240      147750.66849    118720.72447  20523930.299    20523936.115
       239.000         200.000
  22835698.019   -10251422.18649  -7952263.38545  22835697.635    22835705.265
       218.000         155.000
  20220232.400    -9998405.79149  -7771910.68547  20220231.545    20220237.710
       239.000         203.000

       179.000          74.000
  20807075.390    -6476278.44849  -5031293.04147  20807075.042    20807080.838
       235.000         192.000
  21420270.843      212960.09449    169206.02047  21420270.895    21420277.497
       234.000         192.000
  22674960.592    -5266931.52749  -3398510.46145  22674958.873    22674969.990
       214.000         158.000
 99  5 23 17 36 59.9970000  0  8G24G 4G30G 5G 7G 8G 9G10
  19470526.272    -6348008.54649  -4929764.15448  19470525.945    19470532.273
       243.000         213.000
  20527613.048      167103.93949    133801.16347  20527612.590    20527618.651
       239.000         199.000
  22807708.786   -10398506.21749  -8066874.23345  22807707.543    22807714.908
       214.000         155.000
  20200119.690   -10104098.60849  -7854268.71347  20200118.769    20200124.518
       239.000         203.000

       179.000          74.000
  20797549.201    -6526339.61249  -5070301.75747  20797548.597    20797555.006
       234.000         191.000
  21423920.564      232139.02849    184150.58447  21423919.849    21423927.298
       234.000         192.000
  22647772.250    -5409805.63149  -3509840.70245  22647770.785    22647781.319
       214.000         159.000
 99  5 23 17 37 29.9970000  0  8G24G 4G30G 5G 7G 8G 9G10
  19460878.362    -6398708.64749  -4969270.71047  19460877.695    19460884.251
       243.000         212.000
  20531361.712      186803.26449    149151.25747  20531361.734    20531367.268
       239.000         199.000
  22779728.545   -10545541.26049  -8181446.92745  22779727.523    22779734.722
       213.000         154.000
  20180064.091   -10209491.03149  -7936392.66447  20180063.073    20180069.378
       239.000         203.000

       167.000          74.000
  20788144.252    -6575762.92349  -5108813.44747  20788143.568    20788150.235
       233.000         190.000
  21427630.789      251635.91049    199342.88747  21427630.170    21427637.709
       233.000         191.000
  22620602.096    -5552584.55649  -3621096.79445  22620600.234    22620611.388
       216.000         159.000
 99  5 23 17 37 59.9970000  0  7G24G 4G30G 5G 8G 9G10
  19451328.460    -6448893.45549  -5008375.73648  19451328.196    19451334.687
       243.000         213.000
  20535176.639      206850.44149    164772.41447  20535176.683    20535182.315
       239.000         199.000
  22751758.986   -10692520.42149  -8295976.07245  22751758.835    22751765.476
       215.000         155.000
  20160070.483   -10314558.24949  -8018263.19947  20160069.524    20160075.581
       239.000         204.000
  20778862.100    -6624540.36949  -5146821.87047  20778861.693    20778868.133
       233.000         190.000
  21431401.833      271452.95449    214784.66247  21431401.020    21431408.779
       232.000         189.000
  22593452.003    -5695258.10949  -3732270.77245  22593450.370    22593460.877
       216.000         159.000
 99  5 23 17 38 29.9970000  0  7G24G 4G30G 5G 8G 9G10
  19441873.949    -6498577.42749  -5047090.50848  19441873.671    19441879.635
       244.000         213.000
  20539053.943      227225.72649    180649.24247  20539053.899    20539059.406
       238.000         198.000
  22723795.968   -10839467.17749  -8410479.96945  22723796.443    22723803.479
       215.000         157.000
  20140136.757   -10419310.73249  -8099888.49547  20140136.384    20140142.056
       240.000         204.000
  20769694.652    -6672716.32049  -5184361.58847  20769694.160    20769699.973
       236.000         191.000
  21435229.085      291565.80949    230456.93647  21435228.620    21435236.407
       232.000         189.000
  22566316.928    -5837853.08949  -3843383.53245  22566316.124    22566325.883
       218.000         160.000
 99  5 23 17 38 59.9970000  0  7G24G 4G30G 5G 8G 9G10
  19432511.297    -6547778.87949  -5085429.29248  19432511.182    19432517.111
       243.000         213.000
  20542991.381      247917.09649    196772.36347  20542991.133    20542997.231
       238.000         198.000
  22695839.374   -10986381.03849  -8524958.21645  22695839.687    22695846.149
       218.000         158.000
  20120261.916   -10523754.50549  -8181273.23447  20120261.163    20120267.013
       241.000         204.000
  20760636.126    -6720319.36949  -5221454.88847  20760635.631    20760641.981
       234.000         191.000
  21439111.435      311967.10949    246353.97847  21439111.442    21439118.532
       233.000         189.000
  22539193.978    -5980383.98849  -3954446.34445  22539192.282    22539202.253
       217.000         159.000
 99  5 23 17 39 29.9970000  0  7G24G 4G30G 5G 8G 9G10
  19423238.680    -6596507.13649  -5123399.34848  19423238.212    19423244.665
       243.000         213.000
  20546986.255      268910.14449    213130.56047  20546986.377    20546991.837
       239.000         198.000
  22667890.926   -11133251.95849  -8639403.00945  22667890.456    22667896.877
       219.000         161.000
  20100444.247   -10627897.00749  -8262423.22447  20100443.323    20100449.108
       239.000         204.000
  20751684.022    -6767362.78049  -5258112.11647  20751682.899    20751689.877
       233.000         190.000
  21443049.466      332660.83449    262478.89047  21443049.336    21443056.915
       234.000         190.000
  22512082.748    -6122853.52849  -4065461.35645  22512081.091    22512091.353
       218.000         159.000
 99  5 23 17 39 59.9970000  0  7G24G 4G30G 5G 8G 9G10
  19414061.441    -6644733.78149  -5160978.53748  19414060.935    19414067.313
       243.000         213.000
  20551041.481      290220.03249    229735.63947  20551041.370    20551047.028
       239.000         199.000
  22639957.400   -11280043.62149  -8753786.05246  22639956.754    22639963.734
       220.000         163.000
  20080687.912   -10731716.96549  -8343321.87747  20080687.210    20080692.689
       240.000         205.000
  20742839.490    -6813841.16349  -5294329.05447  20742838.871    20742845.253
       233.000         190.000
  21447045.437      353659.55149    278841.44647  21447044.940    21447052.843
       233.000         190.000
  22484987.354    -6265239.79949  -4176411.50545  22484985.369    22484996.667
       215.000         158.000
 99  5 23 17 40 29.9970000  0  7G24G 4G30G 5G 8G 9G10
  19404979.220    -6692461.01949  -5198168.58648  19404978.543    19404984.907
       243.000         213.000
  20555156.839      311846.24449    246587.21247  20555156.321    20555162.783
       238.000         198.000
  22612034.248   -11426779.35149  -8868125.53046  22612033.425    22612040.190
       221.000         165.000
  20060988.830   -10835236.51349  -8423986.44347  20060988.027    20060993.756
       240.000         205.000
  20734099.399    -6859770.53149  -5330118.19547  20734098.752    20734105.398
       232.000         190.000
  21451094.567      374937.80349    295421.81847  21451094.266    21451101.858
       233.000         189.000
  22457907.042    -6407546.86549  -4287299.92945  22457905.356    22457916.106
       216.000         158.000
 99  5 23 17 40 59.9970000  0  7G24G 4G30G 5G 8G 9G10
  19395990.139    -6739698.50549  -5234977.00348  19395989.536    19395996.107
       243.000         213.000
  20559332.202      333788.40649    263684.97747  20559332.101    20559338.256
       238.000         198.000
  22584122.642   -11573454.77349  -8982418.00746  22584122.357    22584128.800
       221.000         166.000
  20041347.596   -10938451.79549  -8504413.91447  20041346.614    20041352.372
       241.000         205.000
  20725467.189    -6905132.69449  -5365465.36847  20725466.408    20725473.213
       231.000         189.000
  21455196.918      396495.50449    312219.94247  21455196.477    21455204.487
       233.000         189.000
  22430841.138    -6549778.31849  -4398129.43445  22430838.803    22430850.447
       215.000         157.000
 99  5 23 17 41 29.9970000  0  7G24G 4G30G 5G 8G 9G10
  19387092.315    -6786456.63549  -5271411.89648  19387091.876    19387098.204
       243.000         213.000
  20563563.775      356025.48849    281012.55447  20563563.821    20563569.640
       238.000         198.000
  22556222.547   -11720069.40049  -9096663.11546  22556222.112    22556229.148
       221.000         166.000
  20021763.338   -11041367.43949  -8584607.90247  20021762.492    20021768.125
       241.000         205.000
  20716945.261    -6949915.91549  -5400361.41247  20716944.298    20716951.290
       232.000         189.000
  21459351.775      418328.74649    329232.77447  21459351.240    21459359.006
       233.000         188.000
  22403790.976    -6691927.41949  -4508894.76845  22403790.359    22403800.245
       215.000         158.000
 99  5 23 17 41 59.9970000  0  7G24G 4G30G 5G 8G 9G10
  19378286.928    -6832729.34049  -5307468.54548  19378286.821    19378292.648
       243.000         213.000
  20567854.527      378573.03249    298582.03947  20567854.750    20567860.304
       238.000         197.000
  22528335.700   -11866615.21249  -9210854.60146  22528335.898    22528342.109
       224.000         166.000
  20002239.505   -11143965.59149  -8664554.50147  20002238.688    20002244.385
       241.000         205.000
  20708536.997    -6994101.28649  -5434791.60847  20708536.319    20708543.232
       233.000         190.000
  21463561.854      440452.81149    346472.22546  21463561.166    21463569.304
       231.000         187.000
  22376761.218    -6833970.22349  -4619577.27345  22376759.871    22376770.579
       213.000         157.000
 99  5 23 17 42 29.9970000  0  7G24G 4G30G 5G 8G 9G10
  19369566.811    -6878554.10349  -5343176.14148  19369566.488    19369572.560
       243.000         213.000
  20572198.297      401399.48649    316368.86447  20572198.353    20572203.924
       238.000         197.000
  22500456.870   -12013119.59449  -9325013.80346  22500457.567    22500463.900
       223.000         167.000
  19982772.825   -11246263.55249  -8744267.18947  19982772.025    19982778.062
       240.000         205.000
  20700237.108    -7037717.50049  -5468778.29047  20700236.415    20700243.267
       233.000         190.000
  21467824.966      462855.80549    363929.00846  21467824.634    21467831.902
       232.000         187.000
  22349748.032    -6975924.63249  -4730190.91145  22349746.083    22349756.272
       212.000         155.000
 99  5 23 17 42 59.9970000  0  7G24G 4G30G 5G 8G 9G10
  19360929.570    -6923943.33949  -5378544.36448  19360929.258    19360935.267
       243.000         213.000
  20576591.535      424486.07149    334358.38947  20576591.812    20576597.106
       238.000         197.000
  22472590.201   -12159560.00649  -9439123.16546  22472589.670    22472596.582
       219.000         165.000
  19963364.281   -11348256.16649  -8823741.93847  19963363.521    19963369.179
       240.000         205.000
  20692041.836    -7080783.78049  -5502336.45747  20692040.868    20692047.516
       233.000         190.000
  21472142.987      485546.75049    381610.19246  21472142.635    21472150.384
       233.000         187.000
  22322750.934    -7117794.05049  -4840738.30645  22322748.693    22322760.483
       212.000         155.000
 99  5 23 17 43 29.9970000  0  7G24G 4G30G 5G 8G 9G10
  19352377.513    -6968884.67349  -5413563.57748  19352376.958    19352383.425
       243.000         213.000
  20581035.739      447840.04049    352556.26747  20581035.725    20581041.146
       238.000         197.000
  22444735.641   -12305936.18349  -9553182.47545  22444736.103    22444743.131
       218.000         162.000
  19944014.953   -11449937.48049  -8902974.12447  19944014.136    19944020.067
       241.000         206.000
  20683949.714    -7123308.12049  -5535472.32447  20683949.260    20683955.643
       232.000         190.000
  21476515.117      508521.90849    399512.82747  21476515.078    21476522.358
       232.000         188.000
  22295776.173    -7259546.30949  -4951194.42945  22295774.566    22295785.848
       212.000         154.000
 99  5 23 17 43 59.9970000  0  7G24G 4G30G 5G 8G 9G10
  19343913.560    -7013362.67449  -5448221.74147  19343913.068    19343919.559
       243.000         212.000
  20585533.751      471476.84349    370974.53447  20585533.752    20585539.353
       238.000         197.000
  22416893.067   -12452250.84449  -9667193.84745  22416892.848    22416900.206
       218.000         160.000
  19924725.990   -11551301.70549  -8981959.22247  19924725.430    19924731.198
       240.000         206.000
  20675958.060    -7165305.00249  -5568197.19447  20675957.722    20675963.651
       233.000         190.000
  21480935.713      531751.63549    417613.83947  21480935.248    21480943.097
       232.000         188.000
  22268821.435    -7401193.32949  -5061568.54945  22268820.586    22268830.268
       215.000         155.000
 99  5 23 17 44 29.9970000  0  7G24G 4G30G 5G 8G 9G10
  19335545.293    -7057338.07949  -5482488.27848  19335544.661    19335551.067
       243.000         213.000
  20590095.527      495449.20249    389654.26347  20590095.154    20590101.402
       237.000         197.000
  22389072.785   -12598447.56849  -9781113.31545  22389073.607    22389079.322
       218.000         159.000
  19905505.801   -11652304.68249  -9060662.83247  19905504.896    19905510.975
       241.000         207.000
  20668077.018    -7206720.26949  -5600468.85647  20668076.418    20668082.420
       233.000         189.000
  21485411.255      555270.67249    435940.26947  21485411.119    21485418.698
       231.000         188.000
  22241894.009    -7542697.39749  -5171831.30045  22241892.538    22241902.703
       216.000         157.000
 99  5 23 17 44 59.9970000  0  7G24G 4G30G 5G 8G 9G10
  19327273.130    -7100808.50349  -5516361.32848  19327272.638    19327278.940
       243.000         213.000
  20594723.743      519770.82949    408606.15147  20594723.620    20594729.471
       237.000         197.000
  22361275.873   -12744521.73849  -9894937.27845  22361275.921    22361282.421
       216.000         158.000
  19886354.064   -11752947.59549  -9139085.86847  19886353.044    19886359.230
       240.000         207.000
  20660311.276    -7247529.63149  -5632268.38847  20660310.804    20660317.388
       233.000         189.000
  21489939.013      579064.04349    454480.47946  21489938.795    21489946.492
       230.000         187.000
  22214995.234    -7684050.80749  -5281976.63945  22214993.660    22215004.670
       218.000         159.000
 99  5 23 17 45 29.9970000  0  7G24G 4G30G 5G 8G 9G10
  19319095.049    -7143784.88649  -5549849.40448  19319094.719    19319100.980
       243.000         213.000
  20599416.900      544433.67949    427823.93247  20599417.080    20599422.990
       238.000         197.000
  22333498.227   -12890494.00449 -10008681.84445  22333497.481    22333504.560
       218.000         159.000
  19867271.195   -11853228.16849  -9217226.56447  19867270.355    19867276.464
       240.000         206.000
  20652663.048    -7287721.88749  -5663587.05647  20652662.679    20652669.065
       234.000         190.000
  21494516.504      603119.02249    473224.52646  21494516.116    21494524.444
       229.000         187.000
  22188123.760    -7825260.02149  -5392009.62445  22188122.123    22188132.411
       217.000         162.000
 99  5 23 17 45 59.9970000  0  7G24G 4G30G 5G 8G 9G10
  19311006.799    -7186289.09949  -5582969.55648  19311006.558    19311012.350
       243.000         213.000
  20604171.811      569420.49349    447294.14947  20604171.969    20604177.268
       236.000         196.000
  22305740.433   -13036361.59049 -10122344.83445  22305739.968    22305745.577
       218.000         160.000
  19848256.175   -11953152.36049  -9295089.56247  19848255.359    19848261.295
       240.000         206.000
  20645128.875    -7327314.68849  -5694438.61647  20645128.355    20645135.169
       234.000         190.000
  21499143.615      627434.21349    492171.34246  21499143.982    21499151.292
       231.000         186.000
  22161273.267    -7966359.39949  -5501957.02545  22161271.841    22161282.363
       219.000         162.000
 99  5 23 17 46 29.9970000  0  7G24G 4G30G 5G 8G 9G10
  19303005.442    -7228336.65749  -5615733.87348  19303004.738    19303011.237
       243.000         213.000
  20608984.426      594711.09149    467001.08447  20608984.207    20608990.121
       236.000         195.000
  22278001.282   -13182131.14249 -10235931.45146  22278001.101    22278007.372
       221.000         163.000
  19829307.658   -12052727.40849  -9372680.49747  19829306.857    19829312.428
       240.000         206.000
  20637707.300    -7366315.41449  -5724828.82047  20637706.423    20637713.732
       233.000         190.000
  21503825.060      652034.72849    511340.48946  21503825.062    21503832.503
       231.000         187.000
  22134445.673    -8107339.90849  -5611811.79745  22134445.063    22134454.142
       219.000         162.000
 99  5 23 17 46 59.9970000  0  7G24G 4G30G 5G 8G 9G10
  19295095.670    -7269902.23249  -5648122.61847  19295095.044    19295101.489
       242.000         212.000
  20613853.239      620297.21949    486938.30147  20613853.256    20613859.289
       237.000         195.000
  22250281.546   -13327799.40749 -10349439.13746  22250280.911    22250288.101
       222.000         166.000
  19810429.675   -12151931.83349  -9449982.63347  19810429.135    19810434.461
       241.000         206.000
  20630398.028    -7404725.89449  -5754759.09147  20630397.123    20630403.811
       232.000         190.000
  21508561.612      676924.84449    530735.29746  21508561.183    21508568.810
       232.000         187.000
  22107645.583    -8248175.08149  -5721553.33346  22107643.797    22107654.452
       221.000         163.000
 99  5 23 17 47 29.9960000  0  8G24G 4G30G 5G 8G 9G10G 6
  19287276.327    -7310993.04849  -5680141.42447  19287275.887    19287282.235
       243.000         212.000
  20618771.972      646144.81249    507079.26447  20618771.981    20618777.828
       237.000         195.000
  22222579.389   -13473375.00649 -10462874.60146  22222579.338    22222586.821
       224.000         170.000
  19791619.755   -12250779.22149  -9527006.55347  19791619.317    19791624.810
       242.000         207.000
  20623194.375    -7442580.94749  -5784256.57447  20623193.560    20623200.471
       233.000         190.000
  21513351.280      702094.40549    550347.86146  21513350.997    21513358.560
       232.000         187.000
  22080870.007    -8388880.95349  -5831194.11446  22080868.403    22080877.953
       222.000         165.000
  23953404.042    -7058099.94549  -5471415.19045  23953402.225    23953411.004
       203.000         132.000
 99  5 23 17 47 59.9960000  0  8G24G 4G30G 5G 8G 9G10G 6
  19279544.865    -7351622.19849  -5711800.48847  19279544.359    19279550.400
       243.000         212.000
  20623737.136      672236.60649    527410.50847  20623737.504    20623743.054
       238.000         196.000
  22194890.982   -13618879.08549 -10576254.34146  22194890.867    22194897.752
       225.000         172.000
  19772868.776   -12349316.69949  -9603788.98547  19772867.988    19772873.682
       243.000         207.000
  20616093.064    -7479898.80549  -5813335.45247  20616092.556    20616099.055
       233.000         190.000
  21518189.464      727519.13249    570159.25246  21518189.377    21518196.513
       232.000         187.000
  22054116.299    -8529471.33549  -5940744.90546  22054115.134    22054124.624
       222.000         166.000
  23931019.711    -7175729.74149  -5563074.62644  23931017.741    23931027.377
       201.000         131.000
 99  5 23 17 48 29.9960000  0  8G24G 4G30G 5G 8G 9G10G 6
  19271906.120    -7391763.71549  -5743079.58247  19271905.707    19271911.893
       243.000         212.000
  20628748.180      698569.24449    547929.41747  20628748.175    20628753.660
       237.000         195.000
  22167216.486   -13764310.08449 -10689577.12946  22167215.766    22167223.149
       225.000         173.000
  19754177.096   -12447542.02149  -9680328.18747  19754176.408    19754182.259
       243.000         207.000
  20609100.112    -7516647.31949  -5841970.69647  20609099.357    20609106.231
       232.000         190.000
  21523075.953      753196.68449    590167.64646  21523076.384    21523082.967
       232.000         187.000
  22027392.239    -8669906.24249  -6050174.54546  22027390.855    22027400.694
       222.000         168.000
  23908640.663    -7293330.53649  -5654711.46944  23908638.474    23908648.177
       197.000         129.000
 99  5 23 17 48 59.9960000  0  8G24G 4G30G 5G 8G 9G10G 6
  19264362.737    -7431404.28549  -5773968.32847  19264362.090    19264368.619
       243.000         212.000
  20633806.194      725149.07149    568640.93347  20633806.183    20633811.509
       236.000         195.000
  22139556.908   -13909662.30049 -10802838.54046  22139556.104    22139563.537
       224.000         173.000
  19735546.139   -12545448.26349  -9756618.75647  19735545.266    19735551.018
       243.000         207.000
  20602218.346    -7552811.37049  -5870150.51347  20602217.622    20602224.506
       233.000         190.000
  21528009.028      779119.43549    610367.11046  21528008.480    21528016.598
       231.000         185.000
  22000699.003    -8810179.21749  -6159477.99546  22000697.094    22000707.138
       223.000         169.000
  23886265.611    -7410910.18149  -5746331.81644  23886263.914    23886273.836
       200.000         129.000
 99  5 23 17 49 29.9960000  0  8G24G 4G30G 5G 8G 9G10G 6
  19256910.138    -7470567.92849  -5804485.44148  19256909.819    19256916.146
       243.000         213.000
  20638911.349      751977.12549    589545.88047  20638911.319    20638916.898
       235.000         194.000
  22111911.295   -14054939.48349 -10916041.48646  22111911.043    22111917.830
       222.000         172.000
  19716973.807   -12643046.50349  -9832669.32047  19716973.243    19716978.761
       243.000         207.000
  20595445.487    -7588403.11549  -5897884.36847  20595444.650    20595451.493
       233.000         190.000
  21532987.596      805281.78249    630753.27746  21532987.253    21532994.870
       228.000         183.000
  21974034.002    -8950303.72649  -6268665.76846  21974032.384    21974042.460
       222.000         169.000
  23863890.360    -7528491.05249  -5837953.12344  23863889.353    23863898.832
       202.000         130.000
 99  5 23 17 49 59.9960000  0  8G24G 4G30G 5G 8G 9G10G 6
  19249545.857    -7509267.68649  -5834641.08848  19249545.357    19249551.749
       243.000         213.000
  20644064.085      779055.08949    610645.56247  20644063.612    20644069.636
       236.000         194.000
  22084280.029   -14200141.35249 -11029185.74846  22084279.891    22084286.602
       221.000         171.000
  19698462.982   -12740321.61549  -9908468.09747  19698462.258    19698468.010
       243.000         208.000
  20588781.137    -7623424.36949  -5925173.68547  20588780.294    20588786.998
       232.000         190.000
  21538008.401      831666.85149    651312.97546  21538007.967    21538015.630
       227.000         181.000
  21947398.933    -9090270.91349  -6377730.95346  21947396.933    21947407.056
       222.000         167.000
  23841512.115    -7646087.40849  -5929586.47145  23841511.465    23841521.936
       202.000         133.000
 99  5 23 17 50 29.9960000  0  8G24G 4G30G 5G 8G 9G10G 6
  19242269.437    -7547505.42149  -5864436.71647  19242268.854    19242275.231
       243.000         212.000
  20649264.613      806384.06349    631940.83447  20649264.442    20649270.023
       236.000         193.000
  22056664.906   -14345259.54349 -11142264.79846  22056665.138    22056672.171
       221.000         169.000
  19680022.556   -12837226.85049  -9983978.65647  19680021.964    19680027.491
       244.000         208.000
  20582223.613    -7657884.25849  -5952025.57947  20582222.994    20582229.582
       233.000         189.000
  21543072.173      858276.94349    672048.01846  21543072.631    21543079.840
       228.000         181.000
  21920793.768    -9230081.35249  -6486673.96746  21920792.211    21920801.467
       221.000         167.000
  23819128.811    -7763709.86049  -6021240.18145  23819127.941    23819138.947
       201.000         133.000
 99  5 23 17 50 59.9960000  0  8G24G 4G30G 5G 8G 9G10G 6
  19235082.582    -7585272.34049  -5893865.48047  19235082.110    19235088.031
       243.000         212.000
  20654521.623      834009.58749    653467.18447  20654521.572    20654527.257
       235.000         193.000
  22029075.886   -14490241.52249 -11255237.71446  22029075.478    22029082.447
       219.000         167.000
  19661663.380   -12933705.07649 -10059156.47347  19661662.494    19661668.271
       243.000         208.000
  20575776.596    -7691763.95849  -5978425.39147  20575775.627    20575782.807
       233.000         190.000
  21548183.861      885138.49849    692979.00946  21548183.733    21548191.108
       229.000         182.000
  21894224.581    -9369702.75449  -6595469.69246  21894222.805    21894231.806
       222.000         168.000
  23796746.638    -7881327.31249  -6112890.00045  23796745.796    23796756.768
       205.000         134.000
 99  5 23 17 51 29.9960000  0  8G24G 4G30G 5G 8G 9G10G 6
  19227978.962    -7622602.12349  -5922953.61647  19227978.557    19227984.648
       243.000         212.000
  20659832.285      861917.05149    675213.22947  20659832.066    20659838.083
       235.000         193.000
  22001512.052   -14635089.67949 -11368106.36146  22001512.200    22001517.572
       219.000         164.000
  19643385.403   -13029756.19549 -10134001.48747  19643384.538    19643390.390
       243.000         208.000
  20569436.440    -7725081.66049  -6004387.27947  20569435.736    20569442.694
       233.000         189.000
  21553339.314      912229.95349    714089.14546  21553338.874    21553346.792
       230.000         182.000
  21867691.543    -9509134.32749  -6704117.49846  21867689.853    21867699.583
       222.000         167.000
  23774365.465    -7998940.60649  -6204536.57745  23774365.389    23774375.314
       207.000         137.000
 99  5 23 17 51 59.9960000  0  8G24G 4G30G 5G 8G 9G10G 6
  19220961.394    -7659479.82849  -5951689.48047  19220961.046    19220967.185
       244.000         212.000
  20665196.219      890105.18049    697177.97047  20665196.072    20665202.667
       234.000         192.000
  21973975.196   -14779796.16049 -11480864.61346  21973974.914    21973981.362
       220.000         163.000
  19625188.444   -13125381.51549 -10208514.70947  19625187.465    19625193.468
       243.000         208.000
  20563205.517    -7757825.18749  -6029901.75747  20563204.460    20563211.849
       232.000         189.000
  21558541.196      939565.79749    735389.71046  21558540.813    21558549.122
       228.000         182.000
  21841198.267    -9648357.34549  -6812602.80546  21841196.834    21841206.197
       224.000         167.000
  23751988.988    -8116531.36249  -6296165.58445  23751989.210    23752000.140
       211.000         138.000
 99  5 23 17 52 29.9960000  0  8G24G 4G30G 5G 8G 9G10G 6
  19214026.742    -7695921.94349  -5980085.93048  19214026.276    19214032.440
       243.000         213.000
  20670613.043      918570.84349    719358.98147  20670613.112    20670618.997
       235.000         192.000
  21946460.094   -14924389.17349 -11593534.44546  21946459.932    21946466.393
       223.000         165.000
  19607064.517   -13220623.22149 -10282729.01547  19607063.782    19607069.407
       243.000         208.000
  20557081.721    -7790006.17349  -6054977.89247  20557081.049    20557087.746
       233.000         189.000
  21563787.717      967136.40649    756873.19546  21563787.630    21563795.640
       229.000         182.000
  21814742.111    -9787385.13849  -6920935.98746  21814740.809    21814749.639
       222.000         167.000
  23729615.533    -8234106.23049  -6387782.25945  23729616.658    23729625.148
       210.000         141.000
 99  5 23 17 52 59.9960000  0  8G24G 4G30G 5G 8G 9G10G 6
  19207178.782    -7731908.29049  -6008127.24148  19207178.417    19207184.465
       243.000         213.000
  20676088.794      947345.81649    741781.01347  20676088.882    20676094.936
       235.000         192.000
  21918970.292   -15068849.12049 -11706100.60046  21918969.293    21918976.842
       225.000         167.000
  19589011.888   -13315490.64849 -10356651.67947  19589011.240    19589016.676
       243.000         208.000
  20551069.150    -7821602.99949  -6079598.83747  20551068.621    20551075.280
       233.000         189.000
  21569083.893      994967.66149    778559.80646  21569084.124    21569091.702
       229.000         182.000
  21788328.556    -9926188.71649  -7029094.44946  21788327.535    21788335.874
       222.000         167.000
  23707250.278    -8351637.16749  -6479364.67345  23707250.192    23707259.931
       209.000         142.000
 99  5 23 17 53 29.9960000  0  8G24G 4G30G 5G 8G 9G10G 6
  19200420.181    -7767424.81349  -6035802.44747  19200419.596    19200426.049
       243.000         212.000
  20681620.665      976415.92549    764433.01847  20681620.622    20681626.698
       235.000         192.000
  21891505.065   -15213179.55849 -11818565.85446  21891505.606    21891510.878
       226.000         169.000
  19571025.373   -13410010.06449 -10430303.16147  19571024.472    19571030.176
       243.000         208.000
  20545167.031    -7852618.79849  -6103767.03747  20545166.487    20545173.222
       233.000         189.000
  21574430.343     1023063.01349    800452.19546  21574430.383    21574438.371
       229.000         182.000
  21761955.356   -10064780.52249  -7137087.89946  21761953.653    21761963.715
       222.000         167.000
  23684891.874    -8469130.97149  -6570918.13345  23684891.401    23684901.190
       210.000         142.000
 99  5 23 17 53 59.9960000  0  8G24G 4G30G 5G 8G 9G10G 6
  19193752.885    -7802461.67449  -6063103.90047  19193752.302    19193758.259
       243.000         212.000
  20687209.094     1005783.03249    787316.45447  20687209.353    20687215.117
       236.000         192.000
  21864065.127   -15357377.61249 -11930927.92846  21864064.913    21864071.919
       227.000         172.000
  19553103.466   -13504190.12549 -10503690.21747  19553102.549    19553108.404
       243.000         208.000
  20539375.453    -7883053.86949  -6127482.72647  20539374.767    20539381.748
       233.000         189.000
  21579825.075     1051411.67349    822541.95946  21579825.178    21579832.307
       229.000         182.000
  21735620.910   -10203168.31349  -7244922.39546  21735618.924    21735628.900
       221.000         166.000
  23662537.602    -8586604.74249  -6662456.00545  23662537.526    23662545.241
       212.000         143.000
 99  5 23 17 54 29.9960000  0  8G24G 4G30G 5G 8G 9G10G 6
  19187173.926    -7837034.10849  -6090043.45647  19187173.446    19187179.529
       243.000         212.000
  20692850.784     1035429.96649    810417.92947  20692851.207    20692856.889
       235.000         192.000
  21836652.324   -15501432.57949 -12043178.51646  21836652.370    21836658.931
       227.000         174.000
  19535247.331   -13598024.24049 -10576807.70347  19535246.280    19535252.355
       243.000         208.000
  20533692.944    -7912916.10649  -6150752.04547  20533692.381    20533698.628
       233.000         189.000
  21585261.222     1079978.61249    844801.81946  21585260.985    21585269.116
       228.000         181.000
  21709323.478   -10341361.30949  -7352605.10846  21709321.879    21709331.739
       220.000         165.000
  23640184.473    -8704071.79049  -6753988.63745  23640183.681    23640192.723
       211.000         144.000
 99  5 23 17 54 59.9960000  0  8G24G 4G30G 5G 8G 9G10G 6
  19180683.391    -7871142.16749  -6116621.16047  19180683.029    19180689.331
       243.000         212.000
  20698537.541     1065313.88849    833704.08247  20698537.850    20698544.309
       235.000         192.000
  21809270.292   -15645326.17549 -12155303.35746  21809270.436    21809276.320
       227.000         176.000
  19517460.226   -13691496.26049 -10649643.04247  19517459.714    19517465.378
       244.000         208.000
  20528117.777    -7942214.59649  -6173582.06647  20528117.410    20528123.782
       234.000         189.000
  21590736.609     1108751.67049    867222.28346  21590736.604    21590744.152
       229.000         180.000
  21683062.968   -10479360.07549  -7460136.47146  21683060.659    21683071.111
       219.000         164.000
  23617830.326    -8821543.12249  -6845524.62545  23617829.597    23617838.220
       214.000         144.000
 99  5 23 17 55 29.9960000  0  8G24G 4G30G 5G 8G 9G10G 6
  19174280.384    -7904790.19849  -6142840.40247  19174280.152    19174286.377
       243.000         212.000
  20704264.222     1095407.93449    857153.95247  20704263.976    20704270.544
       233.000         191.000
  21781918.327   -15789062.02249 -12267305.27046  21781918.062    21781925.058
       224.000         175.000
  19499743.285   -13784599.62049 -10722191.11647  19499742.669    19499748.272
       243.000         209.000
  20522647.776    -7970960.18049  -6195981.24547  20522646.767    20522653.712
       233.000         189.000
  21596246.976     1137708.34949    889785.83346  21596246.879    21596254.385
       229.000         180.000
  21656838.939   -10617167.28049  -7567518.56846  21656837.274    21656846.700
       219.000         164.000
  23595473.967    -8939025.92349  -6937069.56045  23595473.474    23595481.642
       211.000         145.000
 99  5 23 17 55 59.9960000  0  8G24G 4G30G 5G 8G 9G10G 6
  19167962.541    -7937990.84249  -6168711.03047  19167962.146    19167968.218
       244.000         212.000
  20710028.768     1125700.94549    880758.87047  20710029.165    20710034.982
       235.000         190.000
  21754593.133   -15932656.48649 -12379197.01346  21754592.999    21754599.566
       223.000         174.000
  19482100.504   -13877313.03949 -10794435.33647  19482099.733    19482105.502
       242.000         208.000
  20517279.569    -7999170.26649  -6217963.16147  20517278.833    20517285.947
       234.000         189.000
  21601789.480     1166834.01049    912481.06446  21601789.562    21601797.313
       230.000         180.000
  21630650.979   -10754784.89549  -7674752.93146  21630649.533    21630659.831
       219.000         163.000
  23573116.026    -9056516.44049  -7028620.48445  23573115.342    23573123.777
       210.000         144.000
 99  5 23 17 56 29.9960000  0  8G24G 4G30G 5G 8G 9G10G 6
  19161730.684    -7970739.53349  -6194229.48847  19161730.180    19161736.406
       243.000         212.000
  20715830.242     1156187.69249    904514.73347  20715830.749    20715836.425
       234.000         191.000
  21727293.800   -16076114.92649 -12490982.76346  21727292.728    21727299.611
       222.000         173.000
  19464533.742   -13969627.13249 -10866368.39547  19464533.004    19464538.475
       242.000         209.000
  20512013.760    -8026842.77149  -6239526.20047  20512013.638    20512019.918
       233.000         189.000
  21607369.604     1196157.54249    935330.47246  21607369.090    21607377.777
       229.000         180.000
  21604498.673   -10892215.33849  -7781841.45446  21604497.048    21604506.899
       220.000         164.000
  23550760.203    -9173996.80849  -7120163.48545  23550759.219    23550767.938
       208.000         144.000
 99  5 23 17 56 59.9960000  0  8G24G 4G30G 5G 8G 9G10G 6
  19155581.335    -8003054.75449  -6219410.18047  19155581.167    19155587.168
       243.000         212.000
  20721668.439     1186866.94549    928420.61547  20721668.248    20721674.426
       235.000         191.000
  21700013.120   -16219474.85849 -12602691.74346  21700013.114    21700019.439
       221.000         172.000
  19447040.354   -14061555.80649 -10938001.12647  19447039.755    19447045.162
       242.000         209.000
  20506845.272    -8054004.40649  -6260691.16647  20506844.497    20506851.253
       232.000         189.000
  21612987.875     1225681.10649    958335.75046  21612987.350    21612996.165
       229.000         180.000
  21578377.198   -11029484.51349  -7888804.30946  21578375.202    21578385.119
       221.000         166.000
  23528401.466    -9291492.32249  -7211718.29145  23528400.997    23528410.425
       208.000         143.000
 99  5 23 17 57 29.9960000  0  8G24G 4G30G 5G 8G 9G10G 6
  19149513.395    -8034942.06149  -6244257.43447  19149512.738    19149519.307
       243.000         212.000
  20727549.569     1217772.29149    952502.66747  20727549.696    20727555.870
       234.000         190.000
  21672750.989   -16362738.17749 -12714325.42746  21672750.557    21672757.007
       222.000         172.000
  19429621.526   -14153092.64549 -11009328.52647  19429620.883    19429626.259
       243.000         209.000
  20501776.282    -8080641.89149  -6281447.69347  20501775.786    20501782.378
       232.000         188.000
  21618647.769     1255423.75049    981511.72846  21618647.522    21618655.590
       228.000         180.000
  21552287.448   -11166586.40549  -7995636.83346  21552286.243    21552295.453
       221.000         167.000
  23506041.043    -9408996.52749  -7303279.87545  23506040.287    23506048.992
       206.000         144.000
 99  5 23 17 57 59.9960000  0  8G24G 4G30G 5G 8G 9G10G 6
  19143525.656    -8066407.49249  -6268775.94847  19143525.043    19143531.484
       243.000         212.000
  20733475.879     1248915.01749    976769.69847  20733475.873    20733482.026
       233.000         190.000
  21645508.874   -16505896.13749 -12825877.02946  21645508.986    21645515.801
       226.000         173.000
  19412276.117   -14244243.49749 -11080355.15747  19412275.401    19412280.960
       243.000         209.000
  20496810.118    -8106739.26649  -6301783.34847  20496809.124    20496816.460
       232.000         189.000
  21624353.404     1285406.86049   1004875.09146  21624352.692    21624361.229
       229.000         180.000
  21526230.160   -11303517.99249  -8102336.63946  21526228.582    21526237.188
       222.000         169.000
  23483678.270    -9526512.79449  -7394850.84045  23483675.949    23483687.253
       202.000         143.000
 99  5 23 17 58 29.9960000  0  8G24G 4G30G 5G 8G 9G10G 6
  19137621.006    -8097436.12849  -6292954.10247  19137620.361    19137626.507
       242.000         212.000
  20739449.525     1280306.85949   1001230.83947  20739449.598    20739455.404
       233.000         189.000
  21618292.636   -16648918.76949 -12937323.20046  21618292.987    21618298.941
       228.000         173.000
  19395003.471   -14335011.49849 -11151083.46547  19395002.589    19395008.237
       242.000         209.000
  20491950.787    -8132275.13049  -6321681.47647  20491949.668    20491957.139
       233.000         189.000
  21630106.484     1315639.27349   1028432.69646  21630106.369    21630114.180
       227.000         180.000
  21500211.356   -11440247.32849  -8208878.84246  21500209.894    21500218.817
       223.000         170.000
  23461313.192    -9644040.00249  -7486430.34645  23461311.582    23461321.424
       201.000         141.000
 99  5 23 17 58 59.9960000  0  8G24G 4G30G 5G 8G 9G10G 6
  19131798.672    -8128032.70249  -6316795.58347  19131798.362    19131804.298
       243.000         212.000
  20745470.677     1311948.18149   1025886.36847  20745470.420    20745476.754
       233.000         189.000
  21591105.114   -16791790.54949 -13048651.83446  21591105.109    21591111.308
       228.000         174.000
  19377804.622   -14425391.84849 -11221509.71247  19377804.035    19377809.350
       243.000         209.000
  20487197.668    -8157253.21449  -6341144.97047  20487196.999    20487203.884
       234.000         190.000
  21635901.903     1346094.35449   1052163.82246  21635901.687    21635909.828
       229.000         179.000
  21474236.617   -11576745.61349  -8315241.01646  21474235.486    21474244.349
       225.000         173.000
  23438945.629    -9761579.27849  -7578019.24445  23438943.557    23438955.283
       201.000         140.000
 99  5 23 17 59 29.9960000  0  8G24G 4G30G 5G 8G 9G10G 6
  19126060.505    -8158187.14249  -6340292.55047  19126060.244    19126066.449
       243.000         212.000
  20751537.496     1343829.02249   1050728.53647  20751537.769    20751543.301
       233.000         189.000
  21563951.755   -16934482.22149 -13159840.13946  21563951.977    21563958.543
       228.000         174.000
  19360682.033   -14515371.91149 -11291624.04647  19360681.179    19360686.727
       243.000         209.000
  20482552.010    -8181666.47849  -6360168.34147  20482551.325    20482558.092
       233.000         190.000
  21641736.689     1376756.10849   1076056.00046  21641737.087    21641744.620
       227.000         179.000
  21448310.483   -11712988.55549  -8421404.22646  21448309.284    21448317.798
       226.000         175.000
  23416579.280    -9879112.92449  -7669603.78845  23416578.020    23416587.556
       198.000         139.000
 99  5 23 17 59 59.9960000  0  8G24G 4G30G 5G 8G 9G10G 6
  19120408.763    -8187887.21849  -6363435.46247  19120408.347    19120414.571
       243.000         212.000
  20757646.947     1375934.60149   1075745.83247  20757647.000    20757652.690
       234.000         188.000
  21536835.426   -17076979.81949 -13270877.22346  21536836.259    21536841.299
       229.000         175.000
  19343638.676   -14604935.16349 -11361413.59347  19343637.828    19343643.799
       242.000         210.000
  20478010.458    -8205532.34549  -6378765.17247  20478010.129    20478016.595
       233.000         190.000
  21647605.424     1407595.79949   1100086.81746  21647605.794    21647614.324
       226.000         179.000
  21422434.435   -11848968.31149  -8527362.34446  21422433.478    21422441.856
       226.000         176.000
  23394214.643    -9996639.78649  -7761182.99845  23394214.432    23394224.580
       203.000         139.000
 99  5 23 18  0 29.9960000  0  8G24G 4G30G 5G 8G 9G10G 6
  19114844.174    -8217129.33649  -6386221.52447  19114843.899    19114849.921
       244.000         211.000
  20763799.423     1408265.64449   1100938.80947  20763799.701    20763805.847
       234.000         189.000
  21509757.052   -17219277.79849 -13381758.72046  21509755.826    21509762.593
       227.000         175.000
  19326678.593   -14694061.30549 -11430862.53247  19326678.089    19326683.566
       244.000         210.000
  20473572.232    -8228855.96749  -6396939.47647  20473571.551    20473578.673
       233.000         189.000
  21653505.974     1438602.47449   1124247.74546  21653504.930    21653514.336
       229.000         180.000
  21396610.420   -11984673.90649  -8633106.83346  21396609.176    21396617.860
       226.000         176.000
  23371854.788   -10114142.51049  -7852743.43045  23371853.662    23371863.763
       201.000         141.000
 99  5 23 18  0 59.9960000  0  8G24G 4G30G 5G 8G 9G10G 6
  19109363.577    -8245930.24149  -6408663.78947  19109363.123    19109369.321
       243.000         212.000
  20769993.405     1440814.39349   1126301.43847  20769993.593    20769998.864
       234.000         188.000
  21482712.937   -17361394.84649 -13492499.21346  21482712.927    21482718.623
       227.000         175.000
  19309802.863   -14782744.16849 -11499966.05647  19309802.022    19309807.767
       244.000         211.000
  20469235.605    -8251645.06149  -6414697.26247  20469235.023    20469241.834
       233.000         188.000
  21659437.175     1469771.01749   1148534.80346  21659436.384    21659445.785
       227.000         179.000
  21370834.578   -12120126.62949  -8738654.27546  21370833.350    21370841.697
       225.000         176.000
  23349499.391   -10231621.16449  -7944285.12645  23349498.828    23349508.384
       207.000         141.000
 99  5 23 18  1 29.9960000  0  8G24G 4G30G 5G 8G 9G10G 6
  19103966.246    -8274293.48649  -6430765.01647  19103965.840    19103972.258
       243.000         212.000
  20776224.751     1473559.78149   1151817.28647  20776225.109    20776230.144
       234.000         188.000
  21455699.719   -17503349.91949 -13603113.50446  21455699.079    21455706.109
       224.000         175.000
  19293008.382   -14871000.20649 -11568736.99347  19293007.709    19293013.229
       244.000         211.000
  20464998.430    -8273912.20049  -6432048.32647  20464997.787    20465004.509
       233.000         189.000
  21665397.864     1501094.28349   1172942.42846  21665397.547    21665406.544
       225.000         178.000
  21345100.379   -12255359.76549  -8844030.60546  21345098.236    21345107.468
       226.000         176.000
  23327145.948   -10349089.42049  -8035818.71245  23327145.403    23327155.215
       207.000         141.000
 99  5 23 18  1 59.9960000  0  8G24G 4G30G 5G 8G 9G10G 6
  19098654.776    -8302205.45049  -6452514.59547  19098654.297    19098660.570
       243.000         212.000
  20782497.507     1506522.57249   1177502.54147  20782497.037    20782503.253
       233.000         188.000
  21428718.081   -17645139.20249 -13713598.61746  21428717.817    21428724.338
       225.000         176.000
  19276294.595   -14958831.79549 -11637177.19147  19276293.740    19276299.299
       243.000         210.000
  20460864.556    -8295636.07849  -6448976.08047  20460863.649    20460870.673
       232.000         188.000
  21671394.057     1532604.21649   1197495.51246  21671393.097    21671402.477
       223.000         177.000
  21319409.116   -12390367.61549  -8949231.38846  21319408.061    21319416.621
       226.000         177.000
  23304797.768   -10466530.53949  -8127331.13345  23304797.614    23304805.878
       208.000         142.000
 99  5 23 18  2 29.9960000  0  8G24G 4G30G 5G 8G 9G10G 6
  19093423.755    -8329694.78949  -6473934.85747  19093423.278    19093429.499
       243.000         212.000
  20788807.728     1539682.93949   1203341.75246  20788807.338    20788812.559
       233.000         187.000
  21401763.574   -17786786.54649 -13823973.12746  21401763.567    21401769.226
       226.000         177.000
  19259655.494   -15046270.67849 -11705311.38047  19259654.449    19259660.104
       243.000         210.000
  20456833.921    -8316816.74149  -6465480.55146  20456833.149    20456840.150
       231.000         187.000
  21677424.894     1564296.18449   1222190.41846  21677424.891    21677433.489
       222.000         175.000
  21293756.351   -12525173.22249  -9054274.58546  21293753.861    21293763.280
       226.000         177.000
  23282452.021   -10583958.69049  -8218833.45145  23282450.995    23282460.631
       207.000         144.000
 99  5 23 18  2 59.9950000  0  8G24G 4G30G 5G 8G 9G10G 6
  19088274.429    -8356754.69349  -6495020.49747  19088273.923    19088280.242
       243.000         212.000
  20795154.716     1573036.89549   1229331.81246  20795154.694    20795160.445
       233.000         186.000
  21374836.313   -17928291.35749 -13934236.57346  21374835.969    21374841.517
       228.000         178.000
  19243090.300   -15133320.96849 -11773142.76947  19243089.506    19243095.001
       242.000         210.000
  20452904.566    -8337465.50449  -6481570.56046  20452904.219    20452911.367
       232.000         187.000
  21683487.916     1596157.67249   1247017.41846  21683487.564    21683496.884
       222.000         173.000
  21268141.868   -12659777.21549  -9159160.69146  21268140.283    21268149.194
       227.000         177.000
  23260105.557   -10701388.57949  -8310337.16445  23260104.405    23260113.677
       207.000         143.000
 99  5 23 18  3 29.9950000  0  8G24G 4G30G 5G 8G 9G10G 6
  19083207.537    -8383381.35949  -6515768.55247  19083207.071    19083213.487
       243.000         212.000
  20801541.666     1606600.30249   1255485.07546  20801541.562    20801547.768
       232.000         186.000
  21347940.532   -18069629.79349 -14044370.37646  21347940.358    21347945.734
       228.000         179.000
  19226598.183   -15219987.53549 -11840675.15947  19226597.174    19226602.665
       243.000         210.000
  20449077.072    -8357579.53049  -6497243.88446  20449076.769    20449083.770
       232.000         187.000
  21689585.398     1628200.14349   1271985.45546  21689585.522    21689593.004
       223.000         173.000
  21242569.851   -12794158.06749  -9263872.92246  21242568.586    21242577.347
       228.000         177.000
  23237758.608   -10818822.12149  -8401843.69145  23237757.335    23237766.957
       208.000         143.000
 99  5 23 18  3 59.9950000  0  8G24G 4G30G 5G 8G 9G10G 6
  19078216.110    -8409611.54149  -6536207.65247  19078215.646    19078221.785
       243.000         212.000
  20807967.053     1640365.82649   1281795.83646  20807966.564    20807973.102
       232.000         186.000
  21321076.121   -18210803.18549 -14154375.58546  21321076.166    21321082.261
       228.000         179.000
  19210177.187   -15306279.85249 -11907915.92747  19210176.432    19210181.722
       243.000         210.000
  20445347.065    -8377180.69849  -6512517.57146  20445346.151    20445353.399
       230.000         186.000
  21695713.710     1660403.65749   1297078.96146  21695714.419    21695722.420
       224.000         174.000
  21217041.458   -12928310.21049  -9368406.92446  21217039.789    21217048.414
       228.000         177.000
  23215407.035   -10936280.37649  -8493369.49145  23215406.818    23215414.613
       211.000         144.000
 99  5 23 18  4 29.9950000  0  8G24G 4G30G 5G 8G 9G10G 6
  19073305.575    -8435416.58949  -6556315.48147  19073305.076    19073310.968
       243.000         212.000
  20814435.856     1674360.28449   1308284.98246  20814435.366    20814442.255
       231.000         186.000
  21294249.801   -18351775.35949 -14264223.98246  21294249.118    21294255.357
       227.000         179.000
  19193836.761   -15392149.78549 -11974827.55347  19193836.124    19193841.509
       243.000         211.000
  20441720.143    -8396239.97049  -6527369.01246  20441719.502    20441726.654
       230.000         185.000
  21701875.543     1692783.50849   1322309.89446  21701875.874    21701883.580
       226.000         174.000
  21191567.051   -13062178.97549  -9472720.11946  21191565.824    21191574.675
       228.000         179.000
  23193053.045   -11053750.98849  -8584904.90045  23193051.804    23193061.235
       209.000         145.000
 99  5 23 18  4 59.9950000  0  8G24G 4G30G 5G 8G 9G10G 6
  19068477.651    -8460787.28849  -6576084.86147  19068476.978    19068483.268
       244.000         212.000
  20820949.816     1708591.28649   1334958.43646  20820950.006    20820956.388
       231.000         186.000
  21267463.430   -18492537.50649 -14373908.74246  21267462.632    21267469.490
       230.000         178.000
  19177576.692   -15477597.37949 -12041410.08947  19177575.950    19177581.808
       244.000         211.000
  20438193.057    -8414774.89749  -6541811.86546  20438192.654    20438199.476
       231.000         186.000
  21708070.856     1725339.22949   1347677.86846  21708070.665    21708079.669
       226.000         174.000
  21166150.459   -13195743.99649  -9576796.63146  21166148.640    21166157.829
       228.000         179.000
  23170696.266   -11171235.09349  -8676450.84245  23170694.092    23170705.344
       208.000         144.000
 99  5 23 18  5 29.9950000  0  8G24G 4G30G 5G 8G 9G10G 6
  19063728.000    -8485746.61049  -6595533.68747  19063727.366    19063733.766
       243.000         212.000
  20827504.436     1743036.30649   1361798.66246  20827503.859    20827510.112
       229.000         184.000
  21240716.375   -18633093.23849 -14483432.67246  21240716.408    21240722.371
       229.000         178.000
  19161395.485   -15562630.32449 -12107669.53047  19161394.593    19161400.482
       244.000         211.000
  20434765.604    -8432786.73949  -6555847.11846  20434764.587    20434772.375
       230.000         186.000
  21714297.633     1758060.73949   1373175.01146  21714298.074    21714306.271
       225.000         174.000
  21140791.401   -13329006.37849  -9680637.30846  21140790.036    21140798.879
       228.000         179.000
  23148337.498   -11288730.09249  -8768005.28545  23148336.560    23148346.776
       208.000         144.000
 99  5 23 18  5 59.9950000  0  8G24G 4G30G 5G 8G 9G10G 6
  19059058.563    -8510284.24949  -6614653.93347  19059057.979    19059064.602
       242.000         211.000
  20834098.664     1777689.87849   1388801.40546  20834098.244    20834105.365
       229.000         183.000
  21214006.168   -18773456.26149 -14592806.43846  21214006.639    21214011.927
       229.000         178.000
  19145295.612   -15647235.33349 -12173595.51547  19145294.568    19145300.647
       242.000         211.000
  20431440.730    -8450258.54149  -6569461.57346  20431439.769    20431447.909
       230.000         186.000
  21720554.339     1790939.13149   1398794.40046  21720554.563    21720562.167
       225.000         172.000
  21115489.427   -13461968.59649  -9784244.11046  21115487.852    21115496.677
       227.000         178.000
  23125977.815   -11406230.88649  -8859564.23445  23125977.559    23125985.814
       212.000         144.000
 99  5 23 18  6 29.9950000  0  8G24G 4G30G 5G 8G 9G10G 6
  19054474.711    -8534372.50049  -6633424.01047  19054474.422    19054480.566
       243.000         211.000
  20840734.002     1812558.90449   1415972.02546  20840734.030    20840740.301
       230.000         183.000
  21187334.449   -18913617.73949 -14702023.13146  21187335.243    21187340.421
       230.000         178.000
  19129282.249   -15731385.58949 -12239167.14347  19129281.484    19129287.053
       243.000         210.000
  20428223.166    -8467166.95049  -6582637.01846  20428222.816    20428230.020
       231.000         186.000
  21726844.989     1823996.19749   1424553.03146  21726844.718    21726853.357
       223.000         171.000
  21090249.233   -13594605.61949  -9887597.51146  21090247.785    21090255.745
       227.000         177.000
  23103623.686   -11523702.66349  -8951100.59245  23103623.025    23103631.744
       210.000         145.000
 99  5 23 18  6 59.9950000  0  8G24G 4G30G 5G 8G 9G10G 6
  19049967.879    -8558056.20049  -6651878.84747  19049967.612    19049973.760
       243.000         211.000
  20847402.861     1847603.59249   1443279.52246  20847403.303    20847409.403
       230.000         183.000
  21160696.297   -19053602.79349 -14811102.34946  21160696.645    21160701.668
       231.000         179.000
  19113349.870   -15815110.74449 -12304407.52047  19113349.224    19113354.661
       243.000         211.000
  20425104.358    -8483557.43549  -6595408.87846  20425104.165    20425110.859
       232.000         187.000
  21733164.382     1857204.40249   1450429.42246  21733164.553    21733172.438
       222.000         170.000
  21065061.880   -13726965.03749  -9990734.61946  21065059.972    21065069.048
       228.000         177.000
  23081272.649   -11641158.21749  -9042624.29345  23081272.358    23081279.733
       211.000         144.000
 99  5 23 18  7 29.9950000  0  8G24G 4G30G 5G 8G 9G10G 6
  19045536.145    -8581345.22049  -6670026.14547  19045535.690    19045541.930
       243.000         211.000
  20854103.670     1882815.89649   1470717.64546  20854103.904    20854109.647
       230.000         183.000
  21134092.512   -19193406.92049 -14920040.58146  21134092.282    21134098.433
       231.000         180.000
  19097501.891   -15898392.65649 -12369302.51547  19097501.115    19097506.892
       242.000         211.000
  20422086.622    -8499416.08149  -6607766.33446  20422086.334    20422093.421
       231.000         187.000
  21739512.714     1890565.05349   1476424.59046  21739512.539    21739521.302
       221.000         169.000
  21039926.352   -13859052.59849 -10093659.87346  21039925.283    21039934.010
       230.000         178.000
  23058925.429   -11758594.20349  -9134132.77245  23058924.988    23058932.759
       212.000         145.000
 99  5 23 18  7 59.9950000  0  8G24G 4G30G 5G 8G 9G10G 6
  19041184.935    -8604211.04649  -6687843.68147  19041184.712    19041190.914
       243.000         211.000
  20860841.325     1918221.93149   1498306.70646  20860841.440    20860847.218
       231.000         182.000
  21107525.022   -19333019.65549 -15028829.69346  21107524.735    21107531.449
       231.000         181.000
  19081740.889   -15981217.04849 -12433841.00747  19081740.276    19081745.948
       243.000         211.000
  20419171.526    -8514735.32849  -6619703.48646  20419171.212    20419178.649
       232.000         187.000
  21745895.189     1924104.62249   1502559.16446  21745895.390    21745905.169
       221.000         169.000
  21014845.881   -13990851.06249 -10196359.87646  21014844.676    21014853.455
       230.000         178.000
  23036583.301   -11876003.33449  -9225620.31645  23036582.866    23036590.311
       212.000         146.000
 99  5 23 18  8 29.9950000  0  8G24G 4G30G 5G 8G 9G10G 6
  19036912.987    -8626660.62149  -6705336.87247  19036912.640    19036918.799
       243.000         211.000
  20867612.228     1953802.51049   1526031.78246  20867612.403    20867618.046
       230.000         182.000
  21080994.885   -19472436.07249 -15137465.83346  21080994.121    21081000.892
       229.000         181.000
  19066062.620   -16063606.90249 -12498040.89647  19066061.910    19066067.560
       243.000         211.000
  20416351.330    -8529556.37949  -6631252.42046  20416350.914    20416358.182
       232.000         187.000
  21752311.380     1957821.58949   1528831.98646  21752311.698    21752320.861
       221.000         169.000
  20989817.779   -14122373.84249 -10298845.06646  20989816.233    20989825.258
       228.000         178.000
  23014243.348   -11993400.46349  -9317098.50045  23014242.571    23014250.610
       210.000         146.000
 99  5 23 18  8 59.9950000  0  8G24G 4G30G 5G 8G 9G10G 6
  19032724.668    -8648670.24649  -6722487.23447  19032724.239    19032730.425
       242.000         211.000
  20874416.353     1989558.33749   1553893.40346  20874416.882    20874422.268
       230.000         182.000
  21054507.079   -19611629.73549 -15245928.37846  21054507.218    21054513.680
       231.000         182.000
  19050467.750   -16145558.56349 -12561899.32847  19050467.006    19050472.726
       242.000         211.000
  20413627.548    -8543870.43949  -6642406.29946  20413627.510    20413634.574
       232.000         186.000
  21758761.688     1991718.11449   1555244.70846  21758761.283    21758770.671
       221.000         168.000
  20964842.942   -14253617.22449 -10401112.54546  20964841.452    20964850.743
       227.000         178.000
  22991904.685   -12110790.52049  -9408571.16445  22991904.316    22991911.166
       211.000         145.000
 99  5 23 18  9 29.9950000  0  8G24G 4G30G 5G 8G 9G10G 6
  19028626.180    -8670207.76649  -6739269.72347  19028625.926    19028632.283
       243.000         211.000
  20881257.478     2025508.70149   1581906.63546  20881257.366    20881263.617
       231.000         182.000
  21028063.532   -19750591.15849 -15354209.97146  21028063.604    21028069.474
       231.000         182.000
  19034958.632   -16227059.60149 -12625406.62747  19034957.843    19034963.594
       243.000         211.000
  20411004.695    -8557653.83349  -6653146.66346  20411003.756    20411011.011
       231.000         186.000
  21765248.346     2025805.55949   1581806.20546  21765248.552    21765257.037
       220.000         168.000
  20939926.275   -14384555.16349 -10503142.00446  20939925.311    20939933.626
       227.000         178.000
  22969569.456   -12228163.10749  -9500030.21245  22969567.679    22969576.154
       209.000         145.000
 99  5 23 18  9 59.9950000  0  8G24G 4G30G 5G 8G 9G10G 6
  19024622.245    -8691248.94849  -6755665.45847  19024621.748    19024628.127
       243.000         212.000
  20888140.428     2061679.01649   1610091.24446  20888140.092    20888146.710
       230.000         182.000
  21001668.661   -19889297.19349 -15462292.58046  21001668.378    21001675.065
       231.000         183.000
  19019538.824   -16308091.16949 -12688548.11547  19019538.078    19019543.828
       243.000         211.000
  20408486.448    -8570887.39849  -6663458.61746  20408486.099    20408492.845
       233.000         187.000
  21771772.899     2060090.83749   1608521.87446  21771773.085    21771781.470
       223.000         168.000
  20915074.118   -14515154.04549 -10604907.27046  20915073.236    20915081.420
       227.000         178.000
  22947239.710   -12345504.83849  -9591465.21145  22947238.777    22947246.943
       210.000         146.000
 99  5 23 18 10 29.9950000  0  8G24G 4G30G 5G 8G 9G10G 6
  19020706.328    -8711827.11149  -6771700.40347  19020706.039    19020712.392
       243.000         211.000
  20895058.338     2098032.47349   1638418.56346  20895059.062    20895064.230
       231.000         182.000
  20975321.389   -20027752.68449 -15570179.95646  20975321.477    20975327.054
       232.000         182.000
  19004207.236   -16388659.31849 -12751328.49747  19004206.632    19004212.344
       243.000         212.000
  20406069.177    -8583591.53349  -6673358.01246  20406068.483    20406075.909
       232.000         187.000
  21778325.710     2094524.75949   1635353.35646  21778325.769    21778334.542
       222.000         168.000
  20890282.970   -14645431.97749 -10706422.45346  20890281.389    20890290.186
       227.000         177.000
  22924912.186   -12462835.45049  -9682891.55645  22924911.074    22924920.012
       211.000         147.000
 99  5 23 18 10 59.9950000  0  8G24G 4G30G 5G 8G 9G10G 6
  19016872.812    -8731972.40549  -6787398.04747  19016872.683    19016878.628
       243.000         211.000
  20902010.830     2134567.39549   1666887.27846  20902010.919    20902017.168
       229.000         181.000
  20949018.042   -20165977.88449 -15677887.87946  20949018.256    20949023.590
       232.000         183.000
  18988966.083   -16468752.21449 -12813738.54947  18988965.093    18988970.727
       243.000         212.000
  20403754.246    -8595756.73349  -6682837.46246  20403753.725    20403761.114
       231.000         187.000
  21784899.991     2129072.08349   1662273.20046  21784899.828    21784909.179
       221.000         168.000
  20865552.291   -14775391.87649 -10807689.82446  20865550.670    20865559.088
       225.000         176.000
  22902586.467   -12580157.95749  -9774311.57745  22902585.710    22902594.819
       212.000         148.000
 99  5 23 18 11 29.9950000  0  8G24G 4G30G 5G 8G 9G10G 6
  19013118.347    -8751702.48149  -6802772.13347  19013118.112    19013124.040
       244.000         211.000
  20909002.656     2171309.38449   1695517.34546  20909002.379    20909008.961
       229.000         181.000
  20922759.182   -20303969.02849 -15785413.41746  20922759.135    20922765.392
       232.000         183.000
  18973818.138   -16548354.65249 -12875766.42547  18973817.300    18973823.080
       242.000         211.000
  20401543.385    -8607374.81849  -6691890.57246  20401542.666    20401550.388
       230.000         186.000
  21791495.646     2163731.53949   1689280.39946  21791495.232    21791504.724
       220.000         169.000
  20840887.366   -14905005.92549 -10908687.70146  20840885.425    20840894.528
       224.000         174.000
  22880266.287   -12697451.57249  -9865709.09745  22880265.292    22880274.214
       211.000         149.000
 99  5 23 18 11 59.9950000  0  8G24G 4G30G 5G 8G 9G10G 6
  19009437.102    -8771047.55849  -6817846.22347  19009436.811    19009442.661
       243.000         211.000
  20916029.484     2208235.30949   1724290.73446  20916029.364    20916035.675
       229.000         181.000
  20896542.960   -20441737.00249 -15892765.07346  20896542.375    20896548.374
       230.000         183.000
  18958760.817   -16627481.41349 -12937423.64547  18958760.223    18958765.763
       243.000         212.000
  20399430.822    -8618476.43449  -6700541.25546  20399430.148    20399437.614
       231.000         186.000
  21798107.911     2198478.62849   1716355.90146  21798108.414    21798116.966
       220.000         169.000
  20816283.440   -15034299.63049 -11009435.96046  20816282.358    20816290.942
       226.000         174.000
  22857946.799   -12814741.17449  -9957103.51845  22857945.773    22857954.574
       211.000         149.000
 99  5 23 18 12 29.9950000  0  8G24G 4G30G 5G 8G 9G10G 6
  19005829.556    -8790005.55349  -6832618.69447  19005829.108    19005835.190
       243.000         210.000
  20923088.841     2245332.51649   1753197.60546  20923089.027    20923094.915
       229.000         181.000
  20870369.275   -20579280.98349 -15999942.18646  20870369.144    20870374.328
       230.000         182.000
  18943793.076   -16706137.83149 -12998714.36647  18943792.485    18943798.215
       243.000         212.000
  20397414.751    -8629070.86149  -6708796.72746  20397414.584    20397421.241
       231.000         186.000
  21804739.572     2233328.15349   1743511.22646  21804739.883    21804749.162
       220.000         169.000
  20791740.293   -15163274.47049 -11109935.75546  20791739.368    20791747.414
       227.000         175.000
  22835631.711   -12932008.00049 -10048480.17245  22835630.002    22835639.599
       209.000         148.000
 99  5 23 18 12 59.9950000  0  8G24G 4G30G 5G 8G 9G10G 6
  19002290.506    -8808603.70049  -6847110.75847  19002290.148    19002296.104
       243.000         210.000
  20930177.811     2282584.90649   1782225.38946  20930178.099    20930184.802
       230.000         182.000
  20844232.896   -20716628.55449 -16106966.23646  20844232.278    20844238.280
       230.000         182.000
  18928909.529   -16784351.59349 -13059660.15848  18928909.079    18928914.572
       244.000         213.000
  20395491.590    -8639177.75049  -6716672.28246  20395491.235    20395498.474
       231.000         186.000
  21811390.532     2268278.04049   1770744.73446  21811390.269    21811399.466
       221.000         167.000
  20767255.162   -15291944.55449 -11210198.06846  20767254.269    20767262.575
       228.000         177.000
  22813317.047   -13049270.97349 -10139853.80745  22813314.501    22813325.955
       210.000         148.000
 99  5 23 18 13 29.9950000  0  8G24G 4G30G 5G 8G 9G10G 6
  18998824.390    -8826818.40349  -6861304.04147  18998823.828    18998830.291
       243.000         210.000
  20937298.512     2320003.80349   1811382.91946  20937299.369    20937304.796
       230.000         181.000
  20818139.879   -20853748.05149 -16213812.56646  20818139.542    20818144.992
       231.000         183.000
  18914110.196   -16862123.04449 -13120261.29248  18914109.494    18914115.328
       244.000         213.000
  20393662.465    -8648790.46849  -6724162.78346  20393661.362    20393669.755
       231.000         187.000
  21818065.827     2303356.31549   1798078.30546  21818066.227    21818074.666
       221.000         167.000
  20742831.672   -15420290.39449 -11310207.74446  20742830.357    20742838.839
       227.000         178.000
  22791002.552   -13166533.49549 -10231227.11245  22791001.608    22791011.227
       208.000         147.000
 99  5 23 18 13 59.9950000  0  8G24G 4G30G 5G 8G 9G10G 6
  18995434.113    -8844634.13249  -6875186.43847  18995433.415    18995439.733
       242.000         210.000
  20944448.369     2357576.40249   1840660.21346  20944447.860    20944454.973
       228.000         180.000
  20792093.601   -20990621.19849 -16320466.94846  20792092.674    20792098.782
       230.000         183.000
  18899394.941   -16939452.34749 -13180517.89248  18899394.062    18899400.019
       243.000         213.000
  20391927.430    -8657908.45449  -6731267.77946  20391926.793    20391934.447
       231.000         187.000
  21824768.620     2338578.54349   1825524.03146  21824768.597    21824777.035
       222.000         167.000
  20718469.272   -15548315.65249 -11409967.61246  20718468.473    20718476.319
       228.000         179.000
  22768686.699   -13283802.62849 -10322605.58645  22768686.376    22768694.614
       211.000         147.000
 99  5 23 18 14 29.9950000  0  8G24G 4G30G 5G 8G 9G10G 6
  18992121.655    -8862040.97749  -6888750.21947  18992121.188    18992127.573
       243.000         210.000
  20951629.571     2395313.99149   1870066.06146  20951629.269    20951636.277
       227.000         179.000
  20766098.441   -21127225.78849 -16426912.06546  20766098.749    20766103.610
       232.000         184.000
  18884765.611   -17016329.86849 -13240422.45647  18884764.699    18884770.521
       243.000         212.000
  20390290.131    -8666512.97949  -6737972.67946  20390289.656    20390296.793
       232.000         187.000
  21831500.570     2373954.59149   1853089.63346  21831500.737    21831510.280
       222.000         168.000
  20694173.515   -15675990.63749 -11509454.53446  20694172.003    20694180.757
       228.000         180.000
  22746372.362   -13401064.96249 -10413978.74345  22746371.685    22746380.254
       210.000         148.000
 99  5 23 18 14 59.9950000  0  8G24G 4G30G 5G 8G 9G10G 6
  18988890.423    -8879021.43749  -6901981.75347  18988889.905    18988896.352
       243.000         211.000
  20958848.103     2433247.82749   1899624.83646  20958847.912    20958854.144
       228.000         178.000
  20740158.541   -21263540.79149 -16533131.52446  20740158.487    20740163.528
       232.000         185.000
  18870226.732   -17092731.84849 -13299956.47247  18870225.785    18870231.796
       243.000         212.000
  20388752.750    -8674592.37549  -6744268.36846  20388752.081    20388759.467
       232.000         186.000
  21838262.393     2409487.36749   1880777.35846  21838261.986    21838271.797
       221.000         168.000
  20669947.641   -15803298.41349 -11608655.31946  20669946.824    20669955.061
       229.000         182.000
  22724059.468   -13518319.73149 -10505346.02645  22724058.642    22724066.668
       211.000         148.000
 99  5 23 18 15 29.9950000  0  8G24G 4G30G 5G 8G 9G10G 6
  18985744.425    -8895553.67149  -6914864.01947  18985743.853    18985750.228
       243.000         211.000
  20966106.104     2471388.63849   1929344.88446  20966106.966    20966112.032
       227.000         178.000
  20714275.052   -21399559.42049 -16639120.03846  20714275.186    20714280.311
       233.000         185.000
  18855780.358   -17168647.79649 -13359111.76747  18855779.446    18855785.311
       243.000         212.000
  20387315.392    -8682146.04149  -6750154.40846  20387314.366    20387321.902
       231.000         185.000
  21845055.920     2445186.76149   1908594.92346  21845056.242    21845064.949
       220.000         167.000
  20645793.805   -15930227.85449 -11707561.30846  20645792.395    20645800.746
       228.000         183.000
  22701751.967   -13635545.09249 -10596690.36045  22701750.155    22701760.413
       208.000         147.000
 99  5 23 18 15 59.9950000  0  8G24G 4G30G 5G 8G 9G10G 6
  18982683.018    -8911641.29349  -6927399.83347  18982682.612    18982688.983
       243.000         211.000
  20973400.755     2509722.11049   1959215.06646  20973400.407    20973407.201
       227.000         178.000
  20688446.055   -21535292.21449 -16744885.81746  20688446.267    20688451.583
       234.000         186.000
  18841428.196   -17244068.71949 -13417881.31847  18841427.331    18841433.360
       243.000         212.000
  20385976.280    -8689183.11049  -6755637.91046  20385975.373    20385982.787
       229.000         184.000
  21851879.180     2481042.62849   1936534.40946  21851879.848    21851888.195
       220.000         166.000
  20621712.014   -16056777.39149 -11806171.27146  20621710.517    20621719.331
       227.000         183.000
  22679455.980   -13752709.03149 -10687986.85945  22679454.980    22679464.670
       209.000         147.000
 99  5 23 18 16 29.9950000  0  8G24G 4G30G 5G 8G 9G10G 6
  18979700.737    -8927313.37949  -6939611.86047  18979700.457    18979706.507
       243.000         210.000
  20980725.486     2548214.05749   1989208.72646  20980724.996    20980731.472
       226.000         178.000
  20662662.895   -21670783.92249 -16850463.74646  20662662.676    20662668.344
       235.000         186.000
  18827167.330   -17319009.97549 -13476277.11047  18827166.654    18827172.265
       243.000         212.000
  20384728.297    -8695740.87949  -6760747.94446  20384727.007    20384735.271
       230.000         184.000
  21858722.605     2517005.18449   1964557.02546  21858722.581    21858731.982
       220.000         165.000
  20597698.767   -16182967.01449 -11904500.76946  20597697.141    20597705.989
       227.000         183.000
  22657169.397   -13869825.79549 -10779246.56145  22657169.548    22657178.967
       211.000         147.000
 99  5 23 18 16 59.9950000  0  8G24G 4G30G 5G 8G 9G10G 6
  18976798.882    -8942562.77049  -6951494.50847  18976798.346    18976804.466
       242.000         210.000
  20988081.370     2586869.63049   2019329.88546  20988081.783    20988087.596
       227.000         176.000
  20636927.325   -21806025.24149 -16955846.55346  20636927.173    20636933.091
       232.000         187.000
  18813001.281   -17393453.41549 -13534284.98347  18813000.651    18813006.333
       244.000         212.000
  20383573.404    -8701810.16249  -6765477.33846  20383572.716    20383580.542
       229.000         184.000
  21865588.656     2553085.83949   1992671.65746  21865588.308    21865597.907
       219.000         165.000
  20573756.231   -16308785.62949 -12002541.17146  20573755.176    20573763.674
       228.000         184.000
  22634896.352   -13986873.22949 -10870452.28145  22634896.797    22634904.264
       211.000         148.000
 99  5 23 18 17 29.9950000  0  8G24G 4G30G 5G 8G 9G10G 6
  18973972.226    -8957416.99349  -6963069.24147  18973971.753    18973978.153
       242.000         210.000
  20995464.238     2625667.00749   2049561.55246  20995464.382    20995470.731
       226.000         176.000
  20611239.608   -21941014.22749 -17061032.75946  20611239.096    20611245.379
       232.000         186.000
  18798928.734   -17467405.25649 -13591909.79947  18798927.583    18798933.681
       243.000         212.000
  20382510.775    -8707394.57749  -6769828.91246  20382510.192    20382517.662
       230.000         184.000
  21872474.322     2589269.35749   2020866.42446  21872473.881    21872483.594
       219.000         163.000
  20549884.940   -16434230.08249 -12100290.00846  20549883.572    20549892.031
       228.000         185.000
  22612635.082   -14103857.18449 -10961608.51845  22612635.318    22612642.281
       212.000         148.000
 99  5 23 18 17 59.9950000  0  8G24G 4G30G 5G 8G 9G10G 6
  18971221.532    -8971871.67349  -6974332.63747  18971220.977    18971227.683
       243.000         210.000
  21002875.900     2664615.31949   2079910.81646  21002876.601    21002883.205
       227.000         176.000
  20585606.322   -22075717.03449 -17165995.96946  20585605.822    20585612.286
       232.000         186.000
  18784953.903   -17540843.41449 -13649134.34548  18784953.537    18784958.881
       244.000         213.000
  20381543.492    -8712477.54049  -6773789.74446  20381542.822    20381550.774
       229.000         184.000
  21879381.016     2625563.99349   2049147.80145  21879379.930    21879390.702
       219.000         162.000
  20526088.731   -16559279.64749 -12197731.14646  20526087.695    20526095.650
       229.000         185.000
  22590385.433   -14220780.15349 -11052717.22145  22590383.973    22590392.925
       211.000         147.000
 99  5 23 18 18 29.9940000  0  8G24G 4G30G 5G 8G 9G10G 6
  18968546.327    -8985929.78949  -6985287.02647  18968545.899    18968552.046
       242.000         210.000
  21010318.549     2703726.17649   2110386.74746  21010319.039    21010324.766
       228.000         176.000
  20560030.909   -22210116.68349 -17270722.94946  20560031.486    20560036.355
       232.000         186.000
  18771077.636   -17613764.53549 -13705955.99948  18771077.074    18771082.765
       244.000         213.000
  20380672.802    -8717053.73849  -6777355.68746  20380672.614    20380680.298
       231.000         184.000
  21886311.542     2661983.79649   2077526.70045  21886311.492    21886320.505
       220.000         162.000
  20502367.669   -16683934.57249 -12294864.77846  20502366.707    20502374.533
       231.000         185.000
  22568142.982   -14337663.10949 -11143794.74945  22568142.190    22568149.867
       211.000         147.000
 99  5 23 18 18 59.9940000  0  8G24G 4G30G 5G 8G 9G10G 6
  18965943.382    -8999608.55349  -6995945.82247  18965943.221    18965949.404
       243.000         210.000
  21017795.864     2743019.17149   2141004.61846  21017796.013    21017802.443
       227.000         175.000
  20534512.810   -22344215.69949 -17375215.66746  20534512.972    20534518.552
       234.000         187.000
  18757298.585   -17686173.71949 -13762378.75148  18757297.743    18757303.446
       244.000         213.000
  20379899.870    -8721116.28749  -6780521.39146  20379899.449    20379907.117
       231.000         184.000
  21893269.387     2698547.03949   2106017.35746  21893269.555    21893279.058
       219.000         163.000
  20478718.436   -16808212.45049 -12391704.61346  20478717.219    20478724.745
       231.000         185.000
  22545904.843   -14454524.85149 -11234855.74445  22545905.055    22545911.706
       212.000         148.000
 99  5 23 18 19 29.9940000  0  8G24G 4G30G 5G 8G 9G10G 6
  18963412.420    -9012909.21649  -7006309.99247  18963412.163    18963418.376
       243.000         210.000
  21025304.858     2782479.17949   2171752.60746  21025304.644    21025311.891
       225.000         175.000
  20509050.214   -22478022.75349 -17479480.87447  20509050.310    20509055.936
       235.000         188.000
  18743615.109   -17758080.97749 -13818410.38348  18743614.586    18743620.021
       244.000         213.000
  20379220.858    -8724685.16849  -6783302.41946  20379220.539    20379227.480
       229.000         184.000
  21900251.677     2735238.76149   2134608.15246  21900252.501    21900261.906
       219.000         163.000
  20455139.562   -16932120.53449 -12488256.30446  20455138.362    20455145.879
       232.000         185.000
  22523666.760   -14571386.50049 -11325916.67445  22523666.660    22523674.120
       212.000         150.000
 99  5 23 18 19 59.9940000  0  8G24G 4G30G 5G 8G 9G10G 6
  18960955.357    -9025821.28349  -7016371.35447  18960954.974    18960961.112
       243.000         210.000
  21032845.186     2822104.37949   2202629.31946  21032845.564    21032852.430
       226.000         175.000
  20483641.319   -22611547.50849 -17583526.10847  20483641.340    20483646.960
       236.000         189.000
  18730028.595   -17829478.89549 -13874045.13548  18730027.961    18730033.335
       244.000         213.000
  20378634.868    -8727765.02549  -6785702.39646  20378633.576    20378642.076
       229.000         183.000
  21907258.113     2772057.38049   2163297.82845  21907258.081    21907267.290
       217.000         161.000
  20431628.306   -17055672.95349 -12584530.84946  20431627.289    20431635.709
       232.000         186.000
  22501426.571   -14688259.44949 -11416986.41545  22501426.856    22501434.884
       215.000         152.000
 99  5 23 18 20 29.9940000  0  8G24G 4G30G 5G 8G 9G10G 6
  18958570.070    -9038356.18649  -7026138.82647  18958569.435    18958575.788
       243.000         209.000
  21040416.045     2861889.22449   2233630.43346  21040416.193    21040422.668
       227.000         174.000
  20458282.302   -22744810.01849 -17687366.99847  20458282.286    20458287.423
       235.000         189.000
  18716535.965   -17900383.49149 -13929295.47848  18716535.052    18716540.975
       244.000         213.000
  20378141.282    -8730358.78149  -6787723.59046  20378141.766    20378147.843
       229.000         182.000
  21914284.438     2808980.08149   2192068.58545  21914284.227    21914294.160
       218.000         161.000
  20408181.542   -17178886.41749 -12680541.26846  20408180.401    20408188.969
       232.000         187.000
  22479182.795   -14805151.26849 -11508070.86545  22479181.866    22479190.896
       213.000         153.000
 99  5 23 18 20 59.9940000  0  8G24G 4G30G 5G 8G 9G10G 6
  18956261.591    -9050487.26649  -7035591.63847  18956261.183    18956267.616
       243.000         209.000
  21048020.430     2901850.33149   2264768.90346  21048020.609    21048027.162
       226.000         174.000
  20432978.702   -22877780.90549 -17790980.64047  20432978.513    20432984.364
       234.000         189.000
  18703142.025   -17970768.96749 -13984141.31948  18703141.015    18703147.031
       244.000         213.000
  20377744.248    -8732446.07949  -6789350.13346  20377743.971    20377751.452
       231.000         183.000
  21921330.997     2846009.17149   2220922.21745  21921330.998    21921341.088
       216.000         160.000
  20384808.031   -17301714.57549 -12776251.45346  20384806.362    20384814.756
       231.000         187.000
  22456940.037   -14922037.91449 -11599151.27745  22456939.484    22456946.819
       214.000         153.000
 99  5 23 18 21 29.9940000  0  8G24G 4G30G 5G 8G 9G10G 6
  18954029.928    -9062215.00549  -7044730.16147  18954029.678    18954035.876
       243.000         210.000
  21055653.228     2941960.66949   2296023.63846  21055653.355    21055660.574
       227.000         174.000
  20407733.103   -23010446.96749 -17894356.76247  20407733.020    20407738.826
       234.000         189.000
  18689844.778   -18040646.38449 -14038591.26348  18689843.840    18689849.608
       243.000         213.000
  20377440.059    -8734045.88249  -6790596.81946  20377439.742    20377447.138
       231.000         184.000
  21928392.896     2883119.10649   2249838.86045  21928392.670    21928403.342
       216.000         160.000
  20361508.732   -17424153.16349 -12871658.07446  20361507.841    20361515.320
       232.000         186.000
  22434696.740   -15038928.28649 -11690234.59145  22434695.513    22434703.210
       211.000         153.000
 99  5 23 18 21 59.9940000  0  8G24G 4G30G 5G 8G 9G10G 6
  18951866.560    -9073583.79749  -7053588.97947  18951866.166    18951872.491
       244.000         210.000
  21063309.345     2982192.98249   2327373.43146  21063309.095    21063315.886
       226.000         173.000
  20382541.366   -23142830.91349 -17997513.05347  20382541.580    20382546.767
       235.000         189.000
  18676638.528   -18110045.20849 -14092668.28247  18676637.503    18676643.333
       243.000         212.000
  20377223.530    -8735184.14349  -6791483.87446  20377222.632    20377230.319
       229.000         183.000
  21935464.530     2920280.08549   2278795.27445  21935464.804    21935474.138
       218.000         160.000
  20338279.369   -17546224.31449 -12966778.39546  20338278.213    20338285.786
       232.000         185.000
  22412449.720   -15155836.43149 -11781331.76545  22412449.414    22412456.482
       213.000         153.000
 99  5 23 18 22 29.9940000  0  8G24G 4G30G 5G 8G 9G10G 6
  18949775.318    -9084573.84849  -7062152.67447  18949774.814    18949781.199
       243.000         210.000
  21070989.559     3022552.26249   2358822.17546  21070989.238    21070996.354
       226.000         172.000
  20357408.249   -23274906.34549 -18100428.95347  20357407.970    20357413.564
       233.000         188.000
  18663523.329   -18178965.92149 -14146372.74548  18663522.842    18663528.624
       244.000         213.000
  20377096.338    -8735852.63149  -6792004.86746  20377095.310    20377103.117
       228.000         182.000
  21942549.760     2957511.81349   2307806.82445  21942550.069    21942559.387
       217.000         162.000
  20315126.230   -17667894.49949 -13061586.26346  20315124.732    20315132.846
       232.000         185.000
  22390204.723   -15272734.67449 -11872421.25445  22390203.465    22390211.478
       214.000         154.000
 99  5 23 18 22 59.9940000  0  8G24G 4G30G 5G 8G 9G10G 6
  18947756.967    -9095180.02949  -7070417.25047  18947756.191    18947762.698
       242.000         210.000
  21078690.437     3063020.19949   2390355.56446  21078691.176    21078696.827
       226.000         171.000
  20332334.452   -23406669.10149 -18203101.21847  20332334.468    20332340.384
       234.000         188.000
  18650500.739   -18247400.25549 -14199698.21948  18650500.037    18650505.836
       244.000         213.000
  20377053.976    -8736075.77249  -6792178.82646  20377053.759    20377061.270
       231.000         183.000
  21949647.626     2994809.46249   2336869.73746  21949647.925    21949657.862
       220.000         163.000
  20292051.636   -17789151.39749 -13156072.10446  20292050.276    20292058.169
       232.000         186.000
  22367961.467   -15389622.85249 -11963502.88645  22367960.903    22367968.531
       211.000         152.000
 99  5 23 18 23 29.9940000  0  8G24G 4G30G 5G 8G 9G10G 6
  18945807.775    -9105422.77649  -7078398.62547  18945807.181    18945813.626
       243.000         209.000
  21086408.210     3103577.13449   2421958.32046  21086408.643    21086415.567
       226.000         171.000
  20307314.573   -23538149.14949 -18305553.19247  20307315.048    20307320.450
       236.000         189.000
  18637568.600   -18315359.07749 -14252653.15348  18637567.680    18637573.540
       243.000         213.000
  20377092.759    -8735871.97749  -6792020.11346  20377091.593    20377099.428
       231.000         182.000
  21956756.598     3032165.64749   2365978.24746  21956756.874    21956766.077
       221.000         163.000
  20269050.738   -17910021.62349 -13250256.63546  20269048.939    20269057.629
       231.000         186.000
  22345719.425   -15506504.09249 -12054579.09645  22345718.131    22345726.928
       211.000         152.000
 99  5 23 18 23 59.9940000  0  8G24G 4G30G 5G 8G 9G10G 6
  18943927.116    -9115305.83149  -7086099.72447  18943926.553    18943933.257
       243.000         209.000
  21094141.599     3144215.97749   2453624.88346  21094141.520    21094148.985
       225.000         171.000
  20282343.778   -23669372.65949 -18407805.25747  20282343.836    20282349.360
       236.000         190.000
  18624724.903   -18382853.08249 -14305245.89248  18624724.242    18624730.014
       244.000         213.000
  20377212.102    -8735245.06649  -6791531.70146  20377211.300    20377219.401
       229.000         182.000
  21963876.369     3069579.00049   2395131.31246  21963876.135    21963886.033
       219.000         164.000
  20246120.987   -18030518.01449 -13344149.85746  20246120.033    20246127.844
       232.000         187.000
  22323478.072   -15623383.04049 -12145653.51945  22323477.128    22323485.913
       213.000         153.000
 99  5 23 18 24 29.9940000  0  8G24G 4G30G 5G 8G 9G10G 6
  18942113.430    -9124836.60049  -7093526.31347  18942113.018    18942119.419
       242.000         209.000
  21101888.294     3184924.52049   2485345.76546  21101888.517    21101895.182
       225.000         172.000
  20257420.405   -23800345.47249 -18509861.98147  20257420.440    20257426.404
       235.000         190.000
  18611970.080   -18449880.41949 -14357474.99948  18611969.452    18611974.967
       244.000         213.000
  20377411.027    -8734200.30049  -6790717.69546  20377410.632    20377418.391
       228.000         182.000
  21971002.364     3107026.03849   2424310.63746  21971001.872    21971012.473
       217.000         163.000
  20223262.742   -18150638.95349 -13437750.52446  20223261.787    20223269.167
       232.000         187.000
  22301235.043   -15740269.99249 -12236734.20945  22301233.487    22301242.664
       212.000         152.000
 99  5 23 18 24 59.9940000  0  8G24G 4G30G 5G 8G 9G10G 6
  18940363.068    -9134035.13349  -7100694.01647  18940362.920    18940369.162
       243.000         209.000
  21109653.090     3225728.09549   2517140.68546  21109653.501    21109660.003
       226.000         172.000
  20232543.742   -23931073.12749 -18611727.66347  20232543.721    20232549.572
       235.000         191.000
  18599307.795   -18516421.46049 -14409325.18048  18599307.357    18599312.595
       244.000         213.000
  20377691.759    -8732725.40349  -6789568.52546  20377690.608    20377698.725
       229.000         182.000
  21978135.272     3144509.63549   2453518.44046  21978134.744    21978145.894
       218.000         163.000
  20200476.961   -18270379.18649 -13531054.53246  20200476.061    20200483.110
       232.000         187.000
  22278994.904   -15857141.53749 -12327802.84845  22278993.714    22279002.603
       212.000         152.000
 99  5 23 18 25 29.9940000  0  8G24G 4G30G 5G 8G 9G10G 6
  18938672.616    -9142918.76149  -7107616.33747  18938672.420    18938678.854
       243.000         209.000
  21117437.687     3266635.50849   2549016.52046  21117438.182    21117444.534
       226.000         173.000
  20207713.661   -24061556.54849 -18713403.03147  20207713.741    20207718.880
       235.000         191.000
  18586736.823   -18582482.50749 -14460801.33448  18586735.920    18586741.598
       243.000         213.000
  20378056.449    -8730808.65249  -6788075.03946  20378054.826    20378063.551
       228.000         182.000
  21985276.949     3182039.14449   2482762.00346  21985276.730    21985287.892
       219.000         163.000
  20177763.198   -18389740.44749 -13624063.24147  20177761.806    20177769.175
       231.000         188.000
  22256758.886   -15973991.27749 -12418854.51645  22256757.657    22256766.674
       213.000         152.000
 99  5 23 18 25 59.9940000  0  8G24G 4G30G 5G 8G 9G10G 6
  18937039.966    -9151498.84249  -7114302.12647  18937039.810    18937045.868
       243.000         209.000
  21125241.711     3307645.21949   2580972.07746  21125241.540    21125247.677
       225.000         172.000
  20182932.516   -24191782.10149 -18814877.46047  20182932.147    20182937.823
       235.000         191.000
  18574255.242   -18648073.40149 -14511911.14048  18574254.331    18574260.191
       244.000         213.000
  20378502.097    -8728466.32549  -6786249.94946  20378501.517    20378510.069
       228.000         182.000
  21992424.220     3219597.07149   2512027.72146  21992424.291    21992434.562
       219.000         163.000
  20155120.312   -18508729.00749 -13716781.53347  20155118.722    20155126.768
       232.000         188.000
  22234523.859   -16090837.74149 -12509903.61945  22234524.239    22234531.883
       216.000         154.000
 99  5 23 18 26 29.9940000  0  8G24G 4G30G 5G 8G 9G10G 6
  18935466.599    -9159767.50249  -7120745.25547  18935466.140    18935472.388
       243.000         209.000
  21133070.177     3348784.64249   2613028.70546  21133070.260    21133076.204
       225.000         173.000
  20158206.346   -24321718.88449 -18916126.89147  20158206.464    20158211.526
       236.000         192.000
  18561869.267   -18713162.17349 -14562629.68448  18561868.616    18561874.166
       244.000         213.000
  20379030.896    -8725687.91449  -6784085.04546  20379030.411    20379038.740
       228.000         182.000
  21999580.061     3257200.44649   2541328.85945  21999580.128    21999589.792
       219.000         162.000
  20132553.999   -18627314.97649 -13809186.11647  20132552.984    20132560.928
       232.000         189.000
  22212292.623   -16207664.72049 -12600937.54745  22212292.470    22212300.065
       214.000         154.000
 99  5 23 18 26 59.9940000  0  8G24G 4G30G 5G 8G 9G10G 6
  18933952.994    -9167721.51349  -7126943.19947  18933952.457    18933958.852
       243.000         209.000
  21140922.965     3390051.70849   2645184.78946  21140922.454    21140929.677
       224.000         172.000
  20133535.769   -24451363.91849 -19017148.97047  20133535.373    20133540.612
       237.000         192.000
  18549576.633   -18777760.64849 -14612966.16848  18549576.046    18549581.680
       244.000         213.000
  20379639.248    -8722491.90749  -6781594.74146  20379639.259    20379646.146
       228.000         182.000
  22006747.133     3294862.88749   2570676.04845  22006746.696    22006756.664
       217.000         160.000
  20110060.998   -18745515.75449 -13901290.55847  20110059.376    20110067.944
       232.000         189.000
  22190060.744   -16324494.98649 -12691974.04545  22190060.641    22190068.752
       213.000         155.000
 99  5 23 18 27 29.9940000  0  8G24G 4G30G 5G 8G 9G10G 6
  18932505.229    -9175329.78949  -7132871.74347  18932504.640    18932511.028
       243.000         209.000
  21148795.980     3431424.95949   2677423.62146  21148796.173    21148803.431
       224.000         172.000
  20108926.832   -24580684.46849 -19117918.21147  20108926.460    20108931.821
       236.000         193.000
  18537376.677   -18841872.06349 -14662923.12348  18537375.992    18537381.475
       244.000         213.000
  20380325.512    -8718886.33949  -6778785.30346  20380324.315    20380332.992
       228.000         182.000
  22013924.200     3332578.42049   2600064.57245  22013923.968    22013934.720
       213.000         159.000
  20087641.141   -18863332.34149 -13993095.63347  20087640.266    20087648.240
       232.000         189.000
  22167820.772   -16441366.55549 -12783042.69945  22167820.267    22167828.047
       213.000         155.000
 99  5 23 18 27 59.9940000  0  8G24G 4G30G 5G 8G 9G10G 6
  18931127.374    -9182570.20249  -7138513.64047  18931126.914    18931133.156
       242.000         209.000
  21156688.678     3472901.63449   2709743.04446  21156688.359    21156695.899
       221.000         171.000
  20084382.385   -24709665.68649 -19218423.03847  20084382.242    20084388.065
       236.000         193.000
  18525270.262   -18905491.69549 -14712496.87648  18525269.383    18525275.004
       243.000         213.000
  20381090.343    -8714867.28449  -6775653.68046  20381089.685    20381097.215
       229.000         182.000
  22021111.577     3370348.54149   2629495.62945  22021111.971    22021123.096
       212.000         157.000
  20065296.217   -18980755.42049 -14084594.07847  20065295.445    20065302.760
       233.000         189.000
  22145572.273   -16558283.21549 -12874146.52245  22145571.500    22145580.318
       214.000         156.000
 99  5 23 18 28 29.9940000  0  8G24G 4G30G 5G 8G 9G10G 6
  18929824.460    -9189416.82649  -7143848.69147  18929824.225    18929830.543
       243.000         209.000
  21164600.854     3514481.53449   2742142.89246  21164600.482    21164608.671
       221.000         170.000
  20059904.862   -24838295.64949 -19318654.16447  20059904.637    20059910.691
       236.000         193.000
  18513260.032   -18968605.72849 -14761676.65548  18513259.157    18513265.207
       244.000         213.000
  20381939.286    -8710406.21849  -6772177.62646  20381938.787    20381946.437
       228.000         181.000
  22028313.586     3408194.83849   2658986.05345  22028313.646    22028323.987
       212.000         156.000
  20043031.996   -19097754.75549 -14175762.33847  20043030.759    20043038.725
       233.000         190.000
  22123319.712   -16675220.40749 -12965266.36445  22123319.465    22123326.706
       213.000         155.000
 99  5 23 18 28 59.9940000  0  8G24G 4G30G 5G 8G 9G10G 6
  18928593.154    -9195887.58449  -7148890.85747  18928592.768    18928599.143
       243.000         209.000
  21172525.965     3556128.16749   2774594.73846  21172526.125    21172533.629
       223.000         169.000
  20035489.686   -24966598.37749 -19418630.28747  20035489.539    20035495.338
       236.000         193.000
  18501338.591   -19031253.46049 -14810493.07948  18501338.090    18501343.698
       245.000         214.000
  20382867.584    -8705528.33349  -6768376.77946  20382866.975    20382874.591
       229.000         180.000
  22035523.559     3446083.76349   2688509.67145  22035523.534    22035534.540
       214.000         155.000
  20020844.408   -19214351.20049 -14266616.65447  20020843.419    20020851.347
       233.000         190.000
  22101059.325   -16792199.56049 -13056418.88945  22101059.095    22101065.789
       215.000         156.000
 99  5 23 18 29 29.9940000  0  8G24G 4G30G 5G 8G 9G10G 6
  18927438.225    -9201957.10749  -7153620.37047  18927437.877    18927444.026
       243.000         209.000
  21180467.982     3597863.09149   2807115.38446  21180468.167    21180475.748
       221.000         168.000
  20011141.590   -25094548.62049 -19518331.75247  20011141.325    20011147.190
       236.000         193.000
  18489513.908   -19093393.00649 -14858913.52048  18489513.196    18489518.753
       244.000         214.000
  20383881.483    -8700200.60249  -6764225.39346  20383880.453    20383889.383
       227.000         180.000
  22042744.144     3484027.61649   2718076.09245  22042744.665    22042754.580
       214.000         157.000
  19998743.624   -19330491.27149 -14357115.35347  19998742.179    19998750.778
       232.000         190.000
  22078802.910   -16909158.02749 -13147555.29345  22078802.713    22078810.346
       217.000         157.000
 99  5 23 18 29 59.9940000  0  8G24G 4G30G 5G 8G 9G10G 6
  18926350.853    -9207671.11449  -7158072.85447  18926350.440    18926356.805
       243.000         209.000
  21188425.838     3639681.51349   2839701.09046  21188426.188    21188432.738
       224.000         168.000
  19986851.828   -25222191.61349 -19617793.80547  19986851.810    19986857.955
       237.000         194.000
  18477783.572   -19155036.01949 -14906947.05148  18477782.677    18477788.701
       243.000         214.000
  20384977.831    -8694439.47149  -6759736.29546  20384977.484    20384985.402
       227.000         179.000
  22049971.529     3522007.95849   2747670.97045  22049971.193    22049982.427
       213.000         156.000
  19976728.033   -19446183.03249 -14447264.72347  19976726.800    19976734.771
       233.000         190.000
  22056553.390   -17026080.42449 -13238663.57245  22056552.926    22056560.106
       215.000         157.000
 99  5 23 18 30 29.9940000  0  8G24G 4G30G 5G 8G 9G10G 6
  18925331.055    -9213029.97449  -7162248.61147  18925330.486    18925336.940
       243.000         209.000
  21196402.657     3681599.13649   2872364.09946  21196403.305    21196410.727
       223.000         168.000
  19962622.425   -25349517.75749 -19717008.97047  19962622.764    19962628.139
       237.000         194.000
  18466153.116   -19216154.21249 -14954571.63748  18466152.619    18466157.871
       244.000         213.000
  20386156.747    -8688243.93049  -6754908.71546  20386155.488    20386164.495
       227.000         178.000
  22057205.419     3560021.86849   2777291.98645  22057205.215    22057216.879
       214.000         156.000
  19954802.220   -19561403.49249 -14537046.85547  19954801.149    19954809.035
       233.000         190.000
  22034314.247   -17142946.29749 -13329727.81545  22034313.033    22034321.169
       214.000         157.000
 99  5 23 18 30 59.9940000  0  8G24G 4G30G 5G 8G 9G10G 6
  18924373.697    -9218060.84449  -7166168.78947  18924373.489    18924379.738
       243.000         209.000
  21204395.751     3723602.40049   2905093.83946  21204395.952    21204403.288
       224.000         168.000
  19938450.291   -25476543.63249 -19815990.15547  19938450.678    19938455.687
       238.000         195.000
  18454621.392   -19276754.04649 -15001792.29948  18454620.772    18454626.499
       244.000         214.000
  20387413.918    -8681637.95649  -6749761.30446  20387412.518    20387421.978
       227.000         179.000
  22064440.461     3598042.17349   2806918.00445  22064440.076    22064451.289
       212.000         154.000
  19932963.423   -19676167.30149 -14626473.14947  19932962.137    19932970.106
       234.000         190.000
  22012083.210   -17259770.82949 -13420759.85245  22012082.642    22012091.042
       215.000         157.000
 99  5 23 18 31 29.9940000  0  8G24G 4G30G 5G 8G 9G10G 6
  18923480.381    -9222755.54449  -7169827.01447  18923479.957    18923486.263
       243.000         209.000
  21212406.518     3765698.82049   2937896.17846  21212406.137    21212414.100
       223.000         168.000
  19914337.999   -25603254.45149 -19914725.83847  19914338.101    19914343.514
       238.000         195.000
  18443194.518   -19336802.70349 -15048583.47648  18443193.643    18443199.541
       244.000         214.000
  20388753.068    -8674600.92149  -6744278.02346  20388752.291    20388760.653
       227.000         178.000
  22071678.753     3636079.45049   2836557.24445  22071677.845    22071689.693
       208.000         150.000
  19911214.588   -19790458.48949 -14715531.17747  19911213.394    19911221.140
       234.000         191.000
  21989860.622   -17376550.00049 -13511756.57145  21989859.987    21989867.809
       216.000         158.000
 99  5 23 18 31 59.9940000  0  8G24G 4G30G 5G 8G 9G10G 6
  18922651.389    -9227111.95949  -7173221.64547  18922651.001    18922657.466
       243.000         209.000
  21220435.426     3807890.41949   2970772.66846  21220435.988    21220442.227
       224.000         169.000
  19890288.009   -25729637.62349 -20013206.21147  19890287.820    19890293.332
       237.000         195.000
  18431871.445   -19396305.78749 -15094949.52948  18431870.811    18431876.618
       244.000         214.000
  20390173.946    -8667134.45549  -6738460.12246  20390173.696    20390181.960
       226.000         178.000
  22078920.754     3674135.58949   2866211.13545  22078920.681    22078931.818
       209.000         149.000
  19889554.344   -19904283.96849 -14804226.30747  19889553.269    19889561.274
       233.000         191.000
  21967641.809   -17493310.30449 -13602738.56345  21967641.049    21967649.317
       213.000         158.000
 99  5 23 18 32 29.9940000  0  8G24G 4G30G 5G 8G 9G10G 6
  18921890.643    -9231109.88049  -7176336.92647  18921890.368    18921896.606
       243.000         209.000
  21228481.778     3850173.66349   3003720.58046  21228481.518    21228489.337
       223.000         168.000
  19866306.726   -25855659.71749 -20111405.22147  19866306.342    19866312.139
       236.000         195.000
  18420653.159   -19455258.24749 -15140886.52148  18420652.278    18420658.306
       244.000         214.000
  20391679.031    -8659226.31949  -6732298.04046  20391678.655    20391686.245
       227.000         177.000
  22086168.266     3712220.35849   2895887.35445  22086168.464    22086180.185
       210.000         147.000
  19867984.799   -20017632.30949 -14892549.64047  19867983.351    19867992.020
       234.000         191.000
  21945426.390   -17610052.95749 -13693706.79045  21945425.288    21945433.238
       216.000         158.000
 99  5 23 18 32 59.9940000  0  8G24G 4G30G 5G 8G 9G10G 6
  18921197.737    -9234751.10449  -7179174.26647  18921197.368    18921203.609
       243.000         209.000
  21236548.054     3892562.34849   3036750.65446  21236548.603    21236555.857
       223.000         168.000
  19842399.202   -25981293.78149 -20209301.88047  19842399.273    19842404.454
       236.000         194.000
  18409540.378   -19513656.21949 -15186391.45548  18409539.691    18409545.400
       245.000         214.000
  20393270.001    -8650866.53449  -6725784.02546  20393269.563    20393277.972
       227.000         177.000
  22093424.896     3750353.33249   2925601.13545  22093425.180    22093436.760
       209.000         146.000
  19846506.251   -20130502.26349 -14980500.21247  19846505.170    19846513.048
       233.000         191.000
  21923216.150   -17726768.80249 -13784654.12445  21923215.224    21923223.265
       216.000         158.000
 99  5 23 18 33 29.9940000  0  8G24G 4G30G 5G 8G 9G10G 6
  18920568.950    -9238055.08349  -7181748.80947  18920568.523    18920575.104
       243.000         208.000
  21244635.483     3935061.75049   3069866.98946  21244635.205    21244642.858
       223.000         166.000
  19818566.629   -26106534.49249 -20306892.02447  19818566.612    19818572.065
       237.000         194.000
  18398531.343   -19571509.59249 -15231472.02148  18398530.742    18398536.374
       245.000         214.000
  20394941.708    -8642081.75449  -6718938.85046  20394941.116    20394949.654
       227.000         178.000
  22100688.975     3788525.11549   2955345.14145  22100689.721    22100699.886
       210.000         148.000
  19825116.425   -20242906.44449 -15068087.83547  19825115.518    19825123.012
       232.000         191.000
  21901007.351   -17843477.18849 -13875595.64645  21901006.659    21901014.008
       218.000         158.000
 99  5 23 18 33 59.9930000  0  8G24G 4G30G 5G 8G 9G10G 6
  18919997.624    -9241057.31749  -7184088.22747  18919997.388    18920003.623
       243.000         208.000
  21252740.444     3977652.84649   3103054.78646  21252740.334    21252746.735
       222.000         166.000
  19794806.685   -26231394.10249 -20404185.21347  19794806.740    19794812.705
       236.000         194.000
  18387620.247   -19628847.77249 -15276151.14248  18387619.436    18387625.145
       244.000         214.000
  20396687.648    -8632907.01249  -6711789.81546  20396687.797    20396695.761
       228.000         179.000
  22107957.914     3826721.52649   2985108.36845  22107958.759    22107969.698
       210.000         148.000
  19803811.987   -20354861.81349 -15155325.73247  19803810.347    19803818.451
       232.000         191.000
  21878798.460   -17960186.22349 -13966537.64645  21878798.513    21878805.006
       216.000         158.000
 99  5 23 18 34 29.9930000  0  8G24G 4G30G 5G 8G 9G10G 6
  18919478.042    -9243788.24549  -7186216.24047  18919477.608    18919483.773
       242.000         208.000
  21260858.927     4020315.86449   3136298.61846  21260858.924    21260865.719
       220.000         164.000
  19771112.525   -26355907.65949 -20501208.74947  19771112.674    19771118.089
       238.000         195.000
  18376805.770   -19685678.25649 -15320434.65148  18376804.993    18376810.927
       244.000         214.000
  20398503.074    -8623367.71649  -6704356.69246  20398502.860    20398511.300
       227.000         178.000
  22115227.203     3864919.87849   3014873.09145  22115228.576    22115238.617
       212.000         149.000
  19782588.991   -20466388.80949 -15242229.83247  19782588.039    19782595.876
       234.000         190.000
  21856586.009   -18076912.67449 -14057493.25445  21856586.170    21856592.296
       217.000         158.000
 99  5 23 18 34 59.9930000  0  8G24G 4G30G 5G 8G 9G10G 6
  18919014.360    -9246224.91149  -7188114.96547  18919014.009    18919020.287
       243.000         208.000
  21268996.619     4063080.07249   3169621.30546  21268995.531    21269004.069
       220.000         163.000
  19747486.898   -26480061.12849 -20597951.70547  19747487.139    19747492.713
       240.000         197.000
  18366094.941   -19741964.23449 -15364293.88348  18366094.098    18366100.118
       244.000         214.000
  20400389.518    -8613454.91149  -6696632.54946  20400388.795    20400397.032
       224.000         177.000
  22122500.980     3903141.20549   3044655.73845  22122501.571    22122512.019
       211.000         149.000
  19761453.483   -20577456.83249 -15328776.30947  19761452.821    19761460.461
       235.000         191.000
  21834373.974   -18193636.61749 -14148446.93445  21834372.898    21834381.520
       217.000         158.000
 99  5 23 18 35 29.9930000  0  8G24G 4G30G 5G 8G 9G10G 6
  18918605.500    -9248373.56149  -7189789.25647  18918605.362    18918611.457
       243.000         208.000
  21277147.046     4105911.18849   3202996.10146  21277147.457    21277153.570
       221.000         163.000
  19723922.263   -26603894.52549 -20694445.25047  19723922.253    19723928.116
       240.000         198.000
  18355483.385   -19797728.10249 -15407746.27448  18355482.674    18355488.633
       243.000         214.000
  20402344.125    -8603182.79449  -6688628.41546  20402343.442    20402352.477
       224.000         175.000
  22129773.788     3941358.78949   3074435.45745  22129773.427    22129784.938
       210.000         149.000
  19740402.900   -20688078.76849 -15414975.18947  19740401.694    19740409.907
       236.000         193.000
  21812157.322   -18310385.25249 -14239419.84945  21812156.928    21812164.247
       215.000         159.000
 99  5 23 18 35 59.9930000  0  8G24G 4G30G 5G 8G 9G10G 6
  18918256.010    -9250210.47149  -7191220.63647  18918255.474    18918262.044
       242.000         208.000
  21285307.938     4148796.17449   3236412.90646  21285308.288    21285314.540
       220.000         163.000
  19700416.887   -26727415.88749 -20790695.64947  19700416.485    19700422.841
       239.000         198.000
  18344973.776   -19852956.51249 -15450781.41148  18344972.969    18344978.922
       243.000         214.000
  20404372.668    -8592522.81549  -6680322.05346  20404371.837    20404380.455
       224.000         174.000
  22137047.382     3979581.04149   3104218.78345  22137047.411    22137058.387
       210.000         149.000
  19719438.357   -20798248.33149 -15500821.56547  19719437.358    19719444.977
       237.000         194.000
  21789941.926   -18427127.62449 -14330387.85945  21789941.587    21789948.687
       216.000         159.000
 99  5 23 18 36 29.9930000  0  8G24G 4G30G 5G 8G 9G10G 6
  18917963.335    -9251748.39249  -7192419.03947  18917962.817    18917969.282
       242.000         208.000
  21293475.463     4191716.63749   3269857.35346  21293475.294    21293482.557
       218.000         163.000
  19676967.095   -26850645.24449 -20886718.51947  19676967.139    19676972.815
       239.000         198.000
  18334561.580   -19907672.73049 -15493417.44348  18334560.698    18334566.596
       244.000         214.000
  20406469.151    -8581506.00349  -6671737.63546  20406468.676    20406477.084
       226.000         175.000
  22144315.212     4017773.22249   3133978.70945  22144314.350    22144326.431
       207.000         150.000
  19698554.007   -20907996.52949 -15586339.60147  19698552.556    19698560.286
       237.000         194.000
  21767722.726   -18543889.84249 -14421371.34445  21767721.810    21767729.942
       216.000         159.000
 99  5 23 18 36 59.9930000  0  8G24G 4G30G 5G 8G 9G10G 6
  18917724.574    -9253003.12249  -7193396.77547  18917724.512    18917730.726
       243.000         208.000
  21301647.854     4234664.31449   3303322.99845  21301647.696    21301654.948
       217.000         161.000
  19653572.658   -26973584.08049 -20982514.99847  19653572.595    19653577.808
       239.000         197.000
  18324240.202   -19961912.19449 -15535681.98848  18324239.533    18324245.365
       244.000         214.000
  20408633.243    -8570134.49249  -6662876.83146  20408632.278    20408640.042
       224.000         176.000
  22151574.952     4055923.08549   3163705.62545  22151575.593    22151586.821
       213.000         151.000
  19677744.996   -21017348.54549 -15671548.92447  19677743.841    19677751.420
       237.000         194.000
  21745496.892   -18660687.34949 -14512382.31445  21745496.516    21745504.316
       217.000         160.000
 99  5 23 18 37 29.9930000  0  8G24G 4G30G 5G 8G 9G10G 6
  18917543.113    -9253957.11849  -7194140.16847  18917542.778    18917549.101
       243.000         208.000
  21309827.260     4277647.76949   3336816.52145  21309826.874    21309834.475
       218.000         161.000
  19630239.648   -27096200.20049 -21078060.00447  19630239.748    19630244.715
       240.000         197.000
  18314010.814   -20015668.17549 -15577569.78748  18314010.135    18314015.771
       244.000         214.000
  20410869.068    -8558385.00849  -6653721.49946  20410868.850    20410876.668
       225.000         176.000
  22158829.895     4094047.58849   3193412.82645  22158829.821    22158842.194
       211.000         152.000
  19657015.021   -21126285.24649 -15756434.62947  19657013.793    19657021.513
       237.000         195.000
  21723271.416   -18777483.48249 -14603392.24145  21723271.852    21723279.287
       216.000         161.000
 99  5 23 18 37 59.9930000  0  8G24G 4G30G 5G 8G 9G10G 6
  18917417.368    -9254618.24749  -7194655.35547  18917416.925    18917423.302
       243.000         208.000
  21318014.739     4320672.70849   3370342.36845  21318015.045    21318023.061
       217.000         161.000
  19606973.357   -27218465.91249 -21173331.97747  19606973.515    19606978.865
       241.000         198.000
  18303874.180   -20068936.61549 -15619077.67648  18303873.582    18303879.457
       244.000         214.000
  20413174.905    -8546268.29449  -6644280.02246  20413174.943    20413182.843
       228.000         177.000
  22166081.405     4132154.02849   3223105.91545  22166081.501    22166093.848
       210.000         153.000
  19636365.849   -21234797.33049 -15840989.45847  19636364.778    19636372.552
       236.000         195.000
  21701048.837   -18894264.35949 -14694390.24945  21701046.978    21701055.218
       216.000         161.000
 99  5 23 18 38 29.9930000  0  8G24G 4G30G 5G 8G 9G10G 6
  18917344.986    -9254998.68049  -7194951.81747  18917344.405    18917350.913
       242.000         207.000
  21326213.807     4363758.87749   3403915.92445  21326213.829    21326221.497
       216.000         160.000
  19583780.131   -27340347.63649 -21268304.74247  19583780.251    19583785.839
       240.000         199.000
  18293828.907   -20121724.94949 -15660211.46448  18293828.286    18293834.473
       244.000         214.000
  20415547.821    -8533800.13149  -6634564.67646  20415547.441    20415555.707
       227.000         177.000
  22173329.702     4170243.62949   3252785.91445  22173329.823    22173341.985
       215.000         154.000
  19615800.873   -21342866.66249 -15925199.26947  19615799.764    19615807.319
       235.000         195.000
  21678826.232   -19011044.21649 -14785387.45645  21678825.072    21678833.241
       216.000         160.000
 99  5 23 18 38 59.9930000  0  8G24G 4G30G 5G 8G 9G10G 6
  18917325.817    -9255099.32449  -7195030.26347  18917325.098    18917331.769
       242.000         207.000
  21334424.097     4406904.34949   3437535.69645  21334424.066    21334431.002
       213.000         159.000
  19560661.306   -27461837.86149 -21362972.44247  19560660.976    19560666.971
       240.000         199.000
  18283877.682   -20174019.02849 -15700960.12248  18283876.915    18283882.864
       246.000         214.000
  20417990.873    -8520962.27349  -6624561.27246  20417990.719    20417998.970
       225.000         176.000
  22180576.911     4208326.44649   3282460.59745  22180577.156    22180589.097
       213.000         156.000
  19595325.333   -21450466.08749 -16009042.92747  19595323.999    19595331.812
       236.000         195.000
  21656607.802   -19127801.57749 -14876367.16845  21656606.643    21656614.238
       215.000         160.000
 99  5 23 18 39 29.9930000  0  8G24G 4G30G 5G 8G 9G10G 6
  18917359.746    -9254920.86349  -7194891.22847  18917359.365    18917365.870
       242.000         207.000
  21342646.059     4450111.30249   3471203.35845  21342646.233    21342654.409
       216.000         158.000
  19537617.444   -27582933.90049 -21457332.97847  19537617.549    19537622.770
       240.000         199.000
  18274022.806   -20225806.82649 -15741314.27348  18274021.988    18274028.081
       246.000         214.000
  20420500.448    -8507774.48949  -6614285.18346  20420499.322    20420509.474
       224.000         175.000
  22187823.519     4246406.95849   3312133.49045  22187823.799    22187835.088
       211.000         156.000
  19574942.200   -21557579.68549 -16092508.01947  19574940.900    19574948.730
       235.000         195.000
  21634393.858   -19244535.89049 -14967328.89045  21634393.731    21634400.725
       215.000         160.000
 99  5 23 18 39 59.9930000  0  8G24G 4G30G 5G 8G 9G10G 6
  18917445.288    -9254471.56049  -7194541.14447  18917444.775    18917451.558
       242.000         206.000
  21350881.239     4493386.28649   3504924.03345  21350881.592    21350888.557
       217.000         159.000
  19514647.765   -27703640.27449 -21551389.87547  19514647.810    19514652.955
       240.000         199.000
  18264264.403   -20277087.84849 -15781273.53348  18264263.863    18264269.742
       246.000         215.000
  20423074.872    -8494246.40349  -6603743.92546  20423073.640    20423082.158
       224.000         175.000
  22195065.523     4284463.13949   3341787.41845  22195065.796    22195077.500
       216.000         156.000
  19554650.446   -21664213.18749 -16175599.01147  19554649.418    19554656.961
       236.000         195.000
  21612179.983   -19361269.74149 -15058290.27245  21612180.129    21612188.054
       217.000         161.000
 99  5 23 18 40 29.9930000  0  8G24G 4G30G 5G 8G 9G10G 6
  18917585.090    -9253736.85649  -7193968.67447  18917584.629    18917590.760
       242.000         206.000
  21359129.594     4536730.97449   3538699.02045  21359129.992    21359138.247
       217.000         159.000
  19491750.085   -27823968.73349 -21645152.29047  19491750.202    19491755.395
       241.000         199.000
  18254602.519   -20327861.81449 -15820837.68648  18254601.792    18254607.656
       246.000         215.000
  20425715.045    -8480372.68349  -6592933.34646  20425714.122    20425722.904
       224.000         175.000
  22202301.221     4322485.54149   3371415.02345  22202301.916    22202313.045
       217.000         156.000
  19534450.960   -21770362.44649 -16258312.68247  19534449.582    19534457.293
       235.000         195.000
  21589965.380   -19478008.21749 -15149255.26246  21589965.568    21589973.384
       219.000         163.000
 99  5 23 18 40 59.9930000  0  8G24G 4G30G 5G 8G 9G10G 6
  18917779.833    -9252713.74649  -7193171.47147  18917779.644    18917785.647
       243.000         206.000
  21367385.604     4580116.02149   3572505.46645  21367385.827    21367393.111
       218.000         159.000
  19468918.677   -27943948.82749 -21738643.25847  19468918.608    19468924.077
       240.000         199.000
  18245036.838   -20378129.85749 -15860007.61148  18245035.984    18245041.945
       245.000         214.000
  20428420.111    -8466157.79249  -6581856.92446  20428419.779    20428427.996
       225.000         175.000
  22209529.137     4360467.52649   3401011.12145  22209529.493    22209540.951
       215.000         156.000
  19514341.673   -21876036.90849 -16340656.36547  19514340.014    19514348.613
       235.000         194.000
  21567748.403   -19594760.64549 -15240231.13246  21567748.009    21567755.269
       217.000         163.000
 99  5 23 18 41 29.9930000  0  8G24G 4G30G 5G 8G 9G10G 6
  18918034.984    -9251373.38249  -7192127.05647  18918034.647    18918041.031
       242.000         206.000
  21375651.970     4623555.07049   3606353.99545  21375652.664    21375660.266
       219.000         159.000
  19446158.167   -28063555.88849 -21831843.54847  19446157.795    19446163.303
       240.000         200.000
  18235571.956   -20427868.30249 -15898764.86148  18235571.507    18235577.055
       246.000         214.000
  20431192.151    -8451591.60949  -6570506.77846  20431192.080    20431200.609
       225.000         176.000
  22216751.626     4398421.08749   3430585.06945  22216751.733    22216763.091
       215.000         155.000
  19494325.719   -21981220.74749 -16422617.76147  19494324.400    19494332.136
       237.000         193.000
  21545528.569   -19711526.87249 -15331217.75145  21545527.692    21545535.340
       216.000         162.000
 99  5 23 18 41 59.9930000  0  8G24G 4G30G 5G 8G 9G10G 6
  18918350.076    -9249717.38349  -7190836.69347  18918349.429    18918356.116
       242.000         206.000
  21383923.170     4667019.58849   3640222.36045  21383924.057    21383931.421
       219.000         160.000
  19423466.320   -28182802.19549 -21924762.73347  19423466.114    19423471.653
       240.000         200.000
  18226206.534   -20477084.22349 -15937114.94948  18226205.660    18226211.590
       245.000         214.000
  20434029.638    -8436681.38349  -6558888.54046  20434029.406    20434037.433
       225.000         176.000
  22223964.923     4436326.16049   3460121.25745  22223964.320    22223977.117
       215.000         155.000
  19474403.066   -22085915.25049 -16504197.85847  19474401.722    19474409.695
       236.000         194.000
  21523306.233   -19828304.05749 -15422212.91345  21523304.017    21523313.617
       216.000         162.000
 99  5 23 18 42 29.9930000  0  8G24G 4G30G 5G 8G 9G10G 6
  18918721.790    -9247763.64549  -7189314.32747  18918721.052    18918727.694
       241.000         205.000
  21392194.558     4710484.82549   3674091.28745  21392195.511    21392202.318
       219.000         161.000
  19400844.185   -28301681.73749 -22017396.13647  19400843.835    19400849.584
       240.000         200.000
  18216942.892   -20525765.17049 -15975048.18448  18216942.193    18216948.116
       245.000         214.000
  20436932.632    -8421427.26549  -6547002.33146  20436932.086    20436940.336
       226.000         175.000
  22231171.038     4474193.65449   3489628.16045  22231171.510    22231184.036
       214.000         153.000
  19454575.036   -22190112.45249 -16585390.44547  19454574.049    19454581.435
       235.000         194.000
  21501083.384   -19945084.32249 -15513210.46045  21501082.680    21501089.644
       216.000         162.000
 99  5 23 18 42 59.9930000  0  8G24G 4G30G 5G 8G 9G10G 6
  18919146.872    -9245529.85149  -7187573.73547  18919146.278    18919152.877
       241.000         205.000
  21400467.339     4753957.85149   3707966.28045  21400468.494    21400474.935
       219.000         161.000
  19378295.859   -28420173.80349 -22109727.61447  19378295.875    19378301.203
       240.000         200.000
  18207784.866   -20573891.04849 -16012548.89248  18207784.043    18207789.900
       245.000         214.000
  20439902.765    -8405820.32449  -6534841.19246  20439901.890    20439910.677
       226.000         176.000
  22238371.727     4512032.68449   3519112.86745  22238371.596    22238384.310
       213.000         152.000
  19434842.849   -22293805.76149 -16666190.37847  19434841.619    19434848.689
       236.000         194.000
  21478861.681   -20061858.90349 -15604203.60545  21478862.033    21478868.615
       217.000         162.000
 99  5 23 18 43 29.9930000  0  8G24G 4G30G 5G 8G 9G10G 6
  18919624.056    -9243022.23949  -7185619.78247  18919623.487    18919630.224
       241.000         205.000
  21408743.970     4797450.48649   3741856.56745  21408744.625    21408751.589
       221.000         161.000
  19355824.413   -28538261.95349 -22201744.34147  19355824.542    19355829.652
       240.000         201.000
  18198732.601   -20621460.95049 -16049616.37848  18198731.960    18198737.796
       246.000         214.000
  20442939.522    -8389862.58749  -6522406.70346  20442938.998    20442948.475
       225.000         176.000
  22245564.849     4549830.90949   3548565.78045  22245565.925    22245577.561
       210.000         150.000
  19415207.888   -22396987.95149 -16746592.04547  19415206.532    19415214.288
       236.000         195.000
  21456642.355   -20178623.24749 -15695188.74145  21456642.166    21456649.391
       220.000         162.000
 99  5 23 18 43 59.9930000  0  8G24G 4G30G 5G 8G 9G10G 6
  18920150.343    -9240256.69449  -7183464.83847  18920149.983    18920156.676
       241.000         205.000
  21417024.117     4840961.81149   3775761.39745  21417024.802    21417031.476
       219.000         160.000
  19333430.076   -28655945.04749 -22293445.43547  19333430.015    19333435.237
       241.000         200.000
  18189785.535   -20668478.32749 -16086253.32048  18189784.864    18189790.415
       246.000         214.000
  20446044.339    -8373547.21849  -6509693.55746  20446043.589    20446052.644
       225.000         176.000
  22252748.953     4587582.94649   3577982.70045  22252749.852    22252761.569
       210.000         148.000
  19395672.129   -22499648.87849 -16826587.54247  19395671.066    19395678.315
       238.000         197.000
  21434425.805   -20295372.14949 -15786161.84746  21434424.786    21434432.729
       218.000         163.000
 99  5 23 18 44 29.9930000  0  8G24G 4G30G 5G 8G 9G10G 6
  18920724.224    -9237241.17549  -7181115.11447  18920723.935    18920730.152
       241.000         205.000
  21425311.265     4884509.75549   3809694.76545  21425311.426    21425318.608
       218.000         159.000
  19311113.603   -28773219.05349 -22384827.75847  19311113.764    19311118.898
       240.000         201.000
  18180944.723   -20714937.27049 -16122455.11648  18180943.984    18180949.873
       246.000         214.000
  20449217.654    -8356871.54549  -6496699.66646  20449216.442    20449225.692
       224.000         176.000
  22259923.464     4625284.42149   3607360.23745  22259922.686    22259936.083
       204.000         144.000
  19376235.396   -22601789.95449 -16906177.95547  19376234.532    19376241.423
       239.000         199.000
  21412209.193   -20412121.34249 -15877135.19046  21412208.786    21412215.057
       220.000         163.000
 99  5 23 18 44 59.9930000  0  8G24G 4G30G 5G 8G 9G10G 6
  18921350.822    -9233948.45749  -7178549.38247  18921350.352    18921356.889
       241.000         204.000
  21433609.349     4928115.96449   3843673.53645  21433609.411    21433616.836
       219.000         158.000
  19288873.841   -28890090.09949 -22475896.09047  19288873.751    19288879.528
       241.000         202.000
  18172207.619   -20760851.41949 -16158232.39548  18172206.893    18172212.982
       246.000         215.000
  20452459.125    -8339837.91849  -6483426.85446  20452458.787    20452467.765
       226.000         175.000
  22267087.260     4662930.91449   3636694.92845  22267087.816    22267100.760
       200.000         139.000
  19356897.242   -22703412.89649 -16985364.63047  19356896.240    19356903.376
       238.000         199.000
  21389992.478   -20528872.06449 -15968109.72146  21389992.247    21389998.136
       219.000         163.000
 99  5 23 18 45 29.9930000  0  8G24G 4G30G 5G 8G 9G10G 6
  18922032.170    -9230368.03949  -7175759.47647  18922031.690    18922038.490
       241.000         204.000
  21441917.620     4971775.18849   3877693.63045  21441917.200    21441925.481
       217.000         159.000
  19266708.703   -29006568.51949 -22566658.48447  19266708.775    19266714.041
       241.000         202.000
  18163572.119   -20806231.49349 -16193593.51048  18163571.161    18163577.202
       246.000         214.000
  20455765.948    -8322460.85249  -6469886.40746  20455765.978    20455774.203
       227.000         174.000
  22274239.108     4700514.29349   3665980.44645  22274240.654    22274251.701
       200.000         136.000
  19337656.261   -22804524.89149 -17064153.15047  19337654.870    19337662.666
       238.000         199.000
  21367775.581   -20645623.51749 -16059084.79646  21367774.538    21367782.110
       218.000         163.000
 99  5 23 18 45 59.9930000  0  8G24G 4G30G 5G 8G 9G10G 6
  18922767.840    -9226502.03949  -7172747.03947  18922767.321    18922774.331
       240.000         204.000
  21450235.980     5015488.04149   3911755.49845  21450235.511    21450243.414
       219.000         159.000
  19244617.966   -29122655.80749 -22657116.10147  19244617.878    19244623.320
       241.000         202.000
  18155039.105   -20851072.60849 -16228534.66748  18155038.199    18155044.284
       246.000         214.000
  20459139.316    -8304734.71149  -6456073.95046  20459138.673    20459148.264
       225.000         173.000
  22281382.376     4738051.38449   3695229.89445  22281381.890    22281398.137
       202.000         133.000
  19318513.931   -22905118.27849 -17142537.57247  19318512.522    19318519.979
       237.000         198.000
  21345560.334   -20762364.75549 -16150051.92746  21345559.856    21345567.460
       216.000         164.000
 99  5 23 18 46 29.9930000  0  8G24G 4G30G 5G 8G 9G10G 6
  18923562.299    -9222326.91049  -7169493.71947  18923561.531    18923568.864
       240.000         204.000
  21458570.409     5059284.64849   3945882.61445  21458570.671    21458578.580
       218.000         160.000
  19222606.437   -29238326.89249 -22747249.40647  19222606.247    19222612.051
       240.000         202.000
  18146611.105   -20895361.89949 -16263045.83448  18146610.313    18146616.210
       246.000         214.000
  20462578.700    -8286660.74749  -6441990.47446  20462578.072    20462587.495
       222.000         171.000
  22288522.378     4775571.22349   3724465.88145  22288523.306    22288535.305
       200.000         132.000
  19299471.505   -23005186.58449 -17220512.83747  19299470.305    19299477.482
       237.000         197.000
  21323350.422   -20879078.20749 -16240997.40746  21323349.223    21323356.895
       218.000         164.000
 99  5 23 18 46 59.9930000  0  8G24G 4G30G 5G 8G 9G10G 6
  18924410.347    -9217870.02849  -7166020.85747  18924410.243    18924417.070
       240.000         204.000
  21466916.215     5103141.48249   3980056.67645  21466915.124    21466923.525
       218.000         159.000
  19200672.895   -29353587.89349 -22837063.17147  19200672.531    19200678.543
       240.000         202.000
  18138282.570   -20939128.71749 -16297149.87548  18138281.869    18138287.790
       246.000         214.000
  20466079.023    -8268266.59249  -6427657.50546  20466078.059    20466086.861
       221.000         169.000
  22295656.126     4813058.32949   3753676.38544  22295655.909    22295669.555
       200.000         131.000
  19280525.259   -23104749.50249 -17298094.30047  19280523.841    19280531.545
       237.000         197.000
  21301144.138   -20995772.76049 -16331928.19746  21301143.026    21301151.329
       218.000         164.000
 99  5 23 18 47 29.9930000  0  8G24G 4G30G 5G 8G 9G10G 6
  18925312.617    -9213129.01149  -7162326.58547  18925312.439    18925319.405
       241.000         204.000
  21475273.416     5147058.50449   4014277.63045  21475272.768    21475280.750
       216.000         158.000
  19178823.814   -29468405.53049 -22926531.45347  19178823.717    19178829.080
       239.000         201.000
  18130058.703   -20982345.52449 -16330825.33348  18130058.022    18130064.069
       246.000         215.000
  20469642.008    -8249543.41849  -6413068.16046  20469641.842    20469651.235
       221.000         168.000
  22302784.965     4850519.55149   3782866.66444  22302785.633    22302797.513
       204.000         130.000
  19261681.416   -23203774.54249 -17375256.62147  19261680.056    19261687.298
       237.000         197.000
  21278945.429   -21112426.36249 -16422827.05246  21278944.443    21278952.053
       220.000         165.000
 99  5 23 18 47 59.9930000  0  8G24G 4G30G 5G 8G 9G10G 6
  18926269.380    -9208101.84349  -7158409.33947  18926269.077    18926275.762
       240.000         204.000
  21483642.307     5191038.32049   4048547.51345  21483642.104    21483650.829
       213.000         156.000
  19157064.210   -29582752.93749 -23015633.32247  19157064.300    19157069.674
       241.000         202.000
  18121941.383   -21025002.67849 -16364064.70248  18121940.572    18121946.604
       246.000         215.000
  20473269.037    -8230484.14549  -6398216.91046  20473268.341    20473276.754
       221.000         169.000
  22309910.701     4887964.55349   3812044.33044  22309908.402    22309924.522
       205.000         130.000
  19242944.852   -23302235.69649 -17451979.55247  19242943.747    19242950.624
       237.000         197.000
  21256755.450   -21229034.89749 -16513690.80546  21256755.305    21256762.555
       219.000         166.000
 99  5 23 18 48 29.9930000  0  8G24G 4G30G 5G 8G 9G10G 6
  18927282.188    -9202779.52849  -7154262.11547  18927282.105    18927288.348
       241.000         204.000
  21492024.379     5235087.31749   4082871.30945  21492024.811    21492031.760
       214.000         154.000
  19135398.783   -29696605.61449 -23104349.69647  19135398.899    19135403.999
       242.000         203.000
  18113933.000   -21067086.87249 -16396857.61648  18113932.066    18113938.399
       246.000         214.000
  20476957.273    -8211102.17349  -6383114.20146  20476955.639    20476965.333
       220.000         168.000
  22317031.920     4925385.22849   3841203.01245  22317034.199    22317044.980
       210.000         132.000
  19224315.189   -23400134.81649 -17528264.53847  19224313.954    19224321.652
       237.000         198.000
  21234575.008   -21345593.99349 -16604516.01946  21234574.980    21234582.193
       221.000         166.000
 99  5 23 18 48 59.9920000  0  8G24G 4G30G 5G 8G 9G10G 6
  18928349.183    -9197172.54349  -7149893.05347  18928348.827    18928355.834
       240.000         203.000
  21500409.932     5279154.14749   4117209.00845  21500408.807    21500416.903
       216.000         154.000
  19113824.939   -29809977.49749 -23192691.41547  19113824.964    19113830.534
       242.000         203.000
  18106032.905   -21108602.35249 -16429207.37548  18106032.385    18106038.369
       246.000         214.000
  20480705.660    -8191404.24749  -6367765.30546  20480704.963    20480713.997
       219.000         167.000
  22324144.602     4962760.01749   3870325.93945  22324143.957    22324158.051
       213.000         135.000
  19205790.867   -23497480.08149 -17604117.95547  19205789.239    19205797.568
       237.000         198.000
  21212404.671   -21462099.59649 -16695299.52446  21212404.608    21212412.385
       221.000         166.000
 99  5 23 18 49 29.9920000  0  8G24G 4G30G 5G 8G 9G10G 6
  18929469.896    -9191283.63649  -7145304.32347  18929469.751    18929476.122
       241.000         203.000
  21508793.756     5323211.92049   4151539.64645  21508793.492    21508801.290
       214.000         154.000
  19092337.630   -29922894.43549 -23280678.63547  19092337.700    19092343.070
       242.000         204.000
  18098240.930   -21149549.95449 -16461114.62748  18098240.389    18098246.099
       246.000         214.000
  20484511.978    -8171402.39149  -6352179.57146  20484511.278    20484520.503
       219.000         167.000
  22331248.193     5000087.84149   3899412.31145  22331249.248    22331261.974
       214.000         136.000
  19187371.802   -23594272.29249 -17679540.40747  19187370.500    19187378.459
       236.000         199.000
  21190240.625   -21578572.93449 -16786057.90846  21190240.082    21190247.849
       221.000         166.000
 99  5 23 18 49 59.9920000  0  8G24G 4G30G 5G 8G 9G10G 6
  18930643.085    -9185118.85449  -7140500.61747  18930642.869    18930649.304
       241.000         203.000
  21517178.305     5367273.25649   4185873.05545  21517177.848    21517185.768
       213.000         154.000
  19070935.352   -30035364.07149 -23368317.30547  19070935.276    19070940.922
       242.000         204.000
  18090557.123   -21189928.88949 -16492578.76348  18090556.288    18090562.376
       246.000         214.000
  20488375.132    -8151101.95849  -6336361.18246  20488374.164    20488384.108
       220.000         166.000
  22338345.641     5037383.31949   3928473.47245  22338346.055    22338359.830
       211.000         137.000
  19169056.203   -23690521.55149 -17754539.77847  19169055.129    19169062.634
       237.000         198.000
  21168082.305   -21695015.18849 -16876792.10246  21168081.672    21168089.369
       221.000         166.000
 99  5 23 18 50 29.9920000  0  8G24G 4G30G 5G 8G 9G10G 6
  18931868.161    -9178681.27449  -7135484.34347  18931867.671    18931874.514
       240.000         203.000
  21525562.171     5411331.20749   4220203.83045  21525561.664    21525570.395
       213.000         153.000
  19049612.567   -30147416.26949 -23455630.70047  19049612.448    19049617.963
       242.000         204.000
  18082980.931   -21229741.97349 -16523601.98048  18082980.173    18082986.344
       246.000         214.000
  20492293.856    -8130508.82149  -6320314.73646  20492292.721    20492304.331
       220.000         167.000
  22345433.441     5074628.86849   3957495.74345  22345432.879    22345444.727
       210.000         136.000
  19150840.497   -23786245.73249 -17829130.00247  19150839.170    19150846.537
       236.000         198.000
  21145929.923   -21811426.59049 -16967502.23846  21145929.228    21145936.809
       221.000         165.000
 99  5 23 18 50 59.9920000  0  8G24G 4G30G 5G 8G 9G10G 6
  18933144.411    -9171974.53649  -7130258.34447  18933144.007    18933150.719
       241.000         203.000
  21533945.708     5455387.07149   4254532.96845  21533946.829    21533953.956
       214.000         153.000
  19028365.478   -30259070.21249 -23542633.77247  19028365.347    19028371.024
       242.000         204.000
  18075510.479   -21268999.43249 -16554192.23848  18075509.555    18075515.859
       246.000         214.000
  20496272.174    -8109602.71649  -6304024.41446  20496273.095    20496281.772
       223.000         169.000
  22352510.501     5111818.31449   3986474.30245  22352508.910    22352523.671
       206.000         134.000
  19132727.910   -23881427.71849 -17903297.73747  19132726.609    19132733.850
       236.000         197.000
  21123782.926   -21927809.33149 -17058190.07846  21123782.750    21123790.200
       221.000         166.000
 99  5 23 18 51 29.9920000  0  8G24G 4G30G 5G 8G 9G10G 6
  18934472.931    -9164993.41049  -7124818.53147  18934472.717    18934479.177
       240.000         203.000
  21542339.459     5499495.26749   4288902.88745  21542339.908    21542347.672
       215.000         152.000
  19007197.040   -30370310.91949 -23629314.84547  19007196.911    19007202.503
       242.000         204.000
  18068147.955   -21307689.65949 -16584340.50848  18068147.402    18068153.490
       246.000         214.000
  20500312.267    -8088372.83649  -6287481.78946  20500312.229    20500321.142
       223.000         171.000
  22359575.826     5148946.39549   4015405.08345  22359576.937    22359589.074
       209.000         133.000
  19114722.823   -23976044.85449 -17977025.32847  19114721.464    19114728.889
       236.000         198.000
  21101641.249   -22044164.73549 -17148856.55446  21101640.588    21101647.963
       222.000         166.000
 99  5 23 18 51 59.9920000  0  8G24G 4G30G 5G 8G 9G10G 6
  18935857.558    -9157717.36949  -7119148.91847  18935857.069    18935864.016
       241.000         204.000
  21550752.393     5543704.43349   4323351.47445  21550752.085    21550761.212
       216.000         152.000
  18986113.853   -30481104.13749 -23715647.21847  18986113.857    18986118.891
       242.000         204.000
  18060897.016   -21345794.31849 -16614032.48048  18060896.502    18060902.309
       247.000         215.000
  20504419.808    -8066788.15849  -6270662.71146  20504419.506    20504428.998
       224.000         172.000
  22366631.439     5186022.75349   4044295.50844  22366629.854    22366643.919
       205.000         131.000
  19096827.854   -24070083.27849 -18050301.97447  19096826.462    19096834.099
       237.000         198.000
  21079511.658   -22160456.09949 -17239473.15546  21079511.138    21079519.003
       219.000         166.000
 99  5 23 18 52 29.9920000  0  8G24G 4G30G 5G 8G 9G10G 6
  18937298.998    -9150142.93949  -7113246.78747  18937298.501    18937305.475
       241.000         204.000
  21559182.045     5588001.72749   4357868.74545  21559182.099    21559190.118
       213.000         152.000
  18965119.297   -30591431.25649 -23801616.40547  18965118.941    18965124.354
       243.000         204.000
  18053755.657   -21383322.47149 -16643275.23248  18053754.876    18053760.649
       246.000         214.000
  20508596.244    -8044841.69449  -6253561.71346  20508595.944    20508605.085
       224.000         172.000
  22373672.996     5223025.46049   4073128.55845  22373674.168    22373684.295
       207.000         132.000
  19079045.156   -24163532.27449 -18123119.33147  19079044.602    19079051.183
       239.000         199.000
  21057395.982   -22276674.29949 -17330032.75846  21057395.448    21057403.012
       221.000         166.000
 99  5 23 18 52 59.9920000  0  8G24G 4G30G 5G 8G 9G10G 6
  18938794.183    -9142285.91649  -7107124.45947  18938793.896    18938800.659
       241.000         204.000
  21567624.570     5632367.89049   4392439.68145  21567624.224    21567632.635
       211.000         151.000
  18944215.211   -30701282.86849 -23887215.06447  18944215.343    18944220.590
       242.000         205.000
  18046720.660   -21420291.89649 -16672082.60648  18046719.916    18046725.818
       246.000         214.000
  20512836.520    -8022559.33249  -6236198.99246  20512836.479    20512846.172
       225.000         172.000
  22380699.200     5259946.92149   4101898.33545  22380699.924    22380711.790
       206.000         132.000
  19061373.494   -24256397.95749 -18195482.17747  19061372.017    19061379.366
       238.000         199.000
  21035288.537   -22392849.82249 -17420559.08746  21035288.213    21035296.205
       222.000         166.000
 99  5 23 18 53 29.9920000  0  8G24G 4G30G 5G 8G 9G10G 6
  18940341.882    -9134153.00249  -7100787.15147  18940341.454    18940347.878
       241.000         203.000
  21576078.209     5676793.38449   4427056.84145  21576078.612    21576086.837
       211.000         151.000
  18923404.713   -30810643.13549 -23972430.85447  18923404.740    18923409.925
       243.000         206.000
  18039793.426   -21456694.88549 -16700448.59948  18039792.342    18039798.721
       246.000         214.000
  20517136.925    -7999960.99549  -6218590.03546  20517135.742    20517146.094
       222.000         170.000
  22387710.527     5296790.46349   4130607.34845  22387709.821    22387725.648
       205.000         132.000
  19043811.202   -24348687.79949 -18267396.30547  19043809.875    19043817.198
       238.000         198.000
  21013189.039   -22508983.66749 -17511052.96246  21013188.892    21013194.699
       222.000         166.000
 99  5 23 18 53 59.9920000  0  8G24G 4G30G 5G 8G 9G10G 6
  18941943.383    -9125737.03249  -7094229.27647  18941943.036    18941949.524
       240.000         202.000
  21584539.460     5721258.27049   4461704.69245  21584540.194    21584548.699
       214.000         151.000
  18902691.137   -30919494.07449 -24057249.75847  18902690.999    18902696.250
       242.000         206.000
  18032973.505   -21492533.55849 -16728374.87348  18032972.783    18032978.727
       246.000         214.000
  20521497.658    -7977046.08749  -6200734.38446  20521496.883    20521506.273
       223.000         169.000
  22394709.907     5333572.75249   4159268.64344  22394708.716    22394724.232
       204.000         130.000
  19026359.465   -24440396.90449 -18338857.91047  19026358.266    19026365.313
       238.000         199.000
  20991100.093   -22625062.24449 -17601503.75746  20991099.764    20991106.267
       221.000         166.000
 99  5 23 18 54 29.9920000  0  8G24G 4G30G 5G 8G 9G10G 6
  18943596.718    -9117048.24249  -7087458.81147  18943596.001    18943603.087
       239.000         202.000
  21593001.992     5765728.64749   4496356.83945  21593002.346    21593010.229
       214.000         152.000
  18882070.312   -31027856.96349 -24141688.36747  18882070.045    18882075.596
       242.000         206.000
  18026261.218   -21527807.17149 -16755860.83548  18026260.520    18026266.499
       247.000         214.000
  20525916.100    -7953827.34049  -6182642.01546  20525915.045    20525925.999
       221.000         168.000
  22401697.098     5370290.51949   4187879.67344  22401696.668    22401710.131
       204.000         130.000
  19009016.518   -24531534.76449 -18409874.40047  19009015.692    19009022.610
       239.000         200.000
  20969015.954   -22741115.07349 -17691934.46746  20969014.323    20969021.984
       221.000         166.000
 99  5 23 18 54 59.9920000  0  8G24G 4G30G 5G 8G 9G10G 6
  18945300.301    -9108095.79349  -7080482.90347  18945299.722    18945306.896
       240.000         202.000
  21601466.510     5810209.17549   4531016.87845  21601466.686    21601474.535
       215.000         152.000
  18861541.656   -31135735.44149 -24225749.51947  18861541.337    18861546.837
       242.000         206.000
  18019660.181   -21562495.82349 -16782890.99248  18019659.329    18019665.488
       246.000         214.000
  20530389.943    -7930317.30349  -6164322.64246  20530389.387    20530400.422
       222.000         168.000
  22408676.809     5406968.63549   4216459.79844  22408675.447    22408691.634
       200.000         129.000
  18991784.271   -24622091.05549 -18480437.71847  18991783.202    18991790.625
       239.000         201.000
  20946938.188   -22857134.68149 -17782339.30246  20946937.097    20946944.101
       222.000         167.000
 99  5 23 18 55 29.9920000  0  8G24G 4G30G 5G 8G 9G10G 6
  18947045.172    -9098926.85249  -7073338.30947  18947044.664    18947051.697
       240.000         202.000
  21609927.785     5854672.50649   4565663.53045  21609928.928    21609935.383
       215.000         151.000
  18841098.755   -31243163.59049 -24309459.77247  18841098.639    18841104.061
       243.000         206.000
  18013164.281   -21596632.18949 -16809490.79148  18013163.636    18013169.508
       246.000         214.000
  20534913.658    -7906545.48649  -6145799.29846  20534913.255    20534921.975
       223.000         169.000
  22415642.224     5443571.44249   4244981.22344  22415641.784    22415654.701
       199.000         127.000
  18974655.670   -24712102.46549 -18550576.46447  18974654.320    18974661.774
       238.000         201.000
  20924864.729   -22973131.20849 -17872726.16146  20924863.888    20924871.779
       221.000         168.000
 99  5 23 18 55 59.9920000  0  8G24G 4G30G 5G 8G 9G10G 6
  18948837.515    -9089507.83749  -7065998.84447  18948836.883    18948844.035
       240.000         202.000
  21618390.519     5899143.79049   4600316.36445  21618390.540    21618399.434
       215.000         151.000
  18820744.834   -31350124.21049 -24392805.70447  18820744.560    18820750.667
       243.000         206.000
  18006776.083   -21630202.82549 -16835649.76348  18006775.119    18006781.351
       246.000         214.000
  20539491.896    -7882486.54049  -6127052.23146  20539491.926    20539500.609
       219.000         169.000
  22422599.135     5480129.01349   4273467.38744  22422602.245    22422613.961
       198.000         126.000
  18957634.582   -24801548.43349 -18620274.59647  18957633.453    18957640.736
       239.000         201.000
  20902800.239   -23089080.88449 -17963076.50046  20902799.253    20902806.893
       222.000         169.000
 99  5 23 18 56 29.9920000  0  8G24G 4G30G 5G 8G 9G10G 6
  18950676.945    -9079841.79349  -7058466.89847  18950676.560    18950683.302
       240.000         202.000
  21626857.818     5943638.57849   4634987.51745  21626858.567    21626865.866
       213.000         149.000
  18800481.493   -31456608.47349 -24475780.45647  18800481.228    18800487.063
       242.000         206.000
  18000498.667   -21663190.90149 -16861354.79748  18000497.855    18000503.924
       246.000         214.000
  20544124.779    -7858140.73449  -6108081.63946  20544124.738    20544134.060
       221.000         168.000
  22429548.408     5516645.88049   4301921.90244  22429547.747    22429563.417
       201.000         124.000
  18940724.376   -24890411.74249 -18689518.71247  18940723.270    18940730.352
       238.000         201.000
  20880743.231   -23204990.92749 -18053395.99446  20880742.353    20880749.532
       221.000         169.000
 99  5 23 18 56 59.9920000  0  8G24G 4G30G 5G 8G 9G10G 6
  18952559.450    -9069949.61549  -7050758.74647  18952559.286    18952565.702
       241.000         202.000
  21635329.924     5988158.64549   4669678.37045  21635329.203    21635337.795
       212.000         148.000
  18780309.490   -31562613.21249 -24558381.54347  18780309.782    18780315.111
       243.000         206.000
  17994326.229   -21695627.27949 -16886629.93148  17994325.578    17994331.639
       246.000         214.000
  20548807.959    -7833531.79249  -6088906.01946  20548809.026    20548816.760
       221.000         166.000
  22436483.370     5553085.86049   4330316.46644  22436483.925    22436497.749
       200.000         124.000
  18923922.581   -24978705.81649 -18758319.27447  18923921.462    18923928.473
       238.000         201.000
  20858692.754   -23320866.45549 -18143688.57946  20858692.708    20858698.895
       221.000         168.000
 99  5 23 18 57 29.9920000  0  8G24G 4G30G 5G 8G 9G10G 6
  18954489.675    -9059806.73149  -7042855.22647  18954489.230    18954495.684
       240.000         202.000
  21643808.441     6032712.30949   4704395.41245  21643808.863    21643816.934
       214.000         147.000
  18760229.802   -31668133.03849 -24640604.78047  18760229.893    18760235.300
       243.000         207.000
  17988256.841   -21727522.56349 -16911483.43048  17988256.039    17988261.991
       244.000         214.000
  20553544.252    -7808643.14949  -6069512.42146  20553544.068    20553553.906
       220.000         165.000
  22443400.761     5589435.33849   4358640.52144  22443400.977    22443414.790
       197.000         121.000
  18907227.910   -25066436.85649 -18826681.10047  18907226.559    18907233.795
       237.000         200.000
  20836646.119   -23436722.24549 -18233965.78446  20836645.520    20836652.806
       221.000         168.000
 99  5 23 18 57 59.9920000  0  8G24G 4G30G 5G 8G 9G10G 6
  18956467.625    -9049412.62349  -7034755.94347  18956467.051    18956473.630
       240.000         201.000
  21652293.108     6077298.31649   4739137.63345  21652292.930    21652300.575
       214.000         148.000
  18740243.795   -31773160.50549 -24722444.35847  18740243.629    18740249.161
       243.000         207.000
  17982293.403   -21758860.57549 -16935902.68948  17982292.568    17982298.858
       244.000         214.000
  20558333.204    -7783478.14549  -6049903.50746  20558333.462    20558343.096
       219.000         164.000
  22450300.586     5625692.62049   4386892.75044  22450298.782    22450314.858
       195.000         118.000
  18890643.729   -25153586.75349 -18894590.08747  18890642.370    18890649.858
       236.000         200.000
  20814599.854   -23552575.56449 -18324241.08046  20814598.543    20814605.595
       224.000         168.000
 99  5 23 18 58 29.9920000  0  8G24G 4G30G 5G 8G 9G10G 6
  18958491.579    -9038776.93149  -7026468.42847  18958491.040    18958497.701
       240.000         201.000
  21660784.096     6121918.06449   4773906.15145  21660783.472    21660791.673
       212.000         149.000
  18720353.171   -31877686.00549 -24803892.79947  18720352.849    18720358.427
       243.000         206.000
  17976440.632   -21789617.30749 -16959869.00948  17976439.750    17976445.899
       244.000         214.000
  20563174.773    -7758036.26649  -6030078.81346  20563173.551    20563186.179
       217.000         164.000
  22457181.444     5661851.44549   4415068.22444  22457180.008    22457191.241
       195.000         114.000
  18874173.879   -25240135.86349 -18962030.92547  18874172.492    18874180.201
       237.000         200.000
  20792555.951   -23668417.60249 -18414507.57846  20792556.063    20792562.515
       224.000         169.000
 99  5 23 18 58 59.9920000  0  8G24G 4G30G 5G 8G 9G10G 6
  18960564.952    -9027881.28149  -7017978.34647  18960564.284    18960571.000
       240.000         200.000
  21669282.263     6166576.28349   4808704.64945  21669282.048    21669290.912
       214.000         149.000
  18700558.830   -31981705.98449 -24884947.33147  18700559.112    18700563.986
       244.000         207.000
  17970699.669   -21819786.13449 -16983377.22648  17970698.964    17970704.993
       244.000         214.000
  20568070.549    -7732309.29349  -6010032.02446  20568071.111    20568080.899
       219.000         164.000
  22464046.111     5697926.13348   4443178.19844  22464045.405    22464060.348
       190.000         113.000
  18857820.002   -25326075.97049 -19028997.22347  18857818.934    18857826.049
       237.000         200.000
  20770520.214   -23784217.01749 -18504740.86746  20770519.249    20770526.208
       224.000         170.000
 99  5 23 18 59 29.9920000  0  8G24G 4G30G 5G 8G 9G10G 6
  18962687.460    -9016727.53049  -7009287.15447  18962687.235    18962693.289
       240.000         200.000
  21677785.346     6211260.33049   4843523.26745  21677785.092    21677794.414
       210.000         148.000
  18680860.364   -32085222.42749 -24965609.49447  18680860.020    18680865.420
       243.000         207.000
  17965070.883   -21849365.95549 -17006426.47048  17965070.151    17965076.206
       244.000         214.000
  20573020.905    -7706296.10749  -5989762.14246  20573019.065    20573031.066
       217.000         164.000
  22470898.093     5733934.56848   4471236.48244  22470897.252    22470912.324
       189.000         109.000
  18841586.578   -25411383.20449 -19095470.37647  18841585.562    18841592.738
       238.000         201.000
  20748492.902   -23899971.73849 -18594939.31446  20748492.388    20748499.522
       224.000         170.000
 99  5 23 18 59 59.9920000  0  8G24G 4G30G 5G 8G 9G10G 6
  18964854.462    -9005340.18249  -7000413.92747  18964854.045    18964860.940
       239.000         200.000
  21686289.363     6255949.09349   4878345.56145  21686289.394    21686298.378
       210.000         148.000
  18661257.363   -32188236.37549 -25045880.10147  18661256.771    18661262.490
       242.000         206.000
  17959553.294   -21878361.03649 -17029020.08248  17959552.770    17959559.045
       244.000         214.000
  20578021.386    -7680018.80549  -5969286.51446  20578020.563    20578030.404
       217.000         165.000
  22477734.980     5769862.56948                  22477734.019
       190.000         106.000
  18825473.411   -25496058.22949 -19161450.89247  18825472.527    18825480.009
       239.000         202.000
  20726475.071   -24015675.45549 -18685098.03646  20726474.490    20726481.410
       224.000         171.000
 99  5 23 19  0 29.9920000  0  8G24G 4G30G 5G 8G 9G10G 6
  18967067.215    -8993712.01549  -6991353.05847  18967067.113    18967073.155
       240.000         200.000
  21694793.947     6300639.75649   4913169.33845  21694794.416    21694801.359
       211.000         147.000
  18641749.123   -32290752.32749 -25125762.66347  18641748.826    18641754.433
       243.000         206.000
  17954143.309   -21906790.95849 -17051173.31248  17954142.626    17954148.846
       244.000         214.000
  20583070.381    -7653487.42149  -5948612.87046  20583070.777    20583079.861
       221.000         166.000
  22484554.638     5805698.48448                  22484554.986
       183.000         103.000
  18809476.455   -25580123.37249 -19226956.17947  18809475.541    18809482.962
       240.000         203.000
  20704470.709   -24131309.17649 -18775202.21746  20704469.634    20704476.848
       223.000         171.000
 99  5 23 19  0 59.9920000  0  8G24G 4G30G 5G 8G 9G10G 6
  18969324.550    -8981849.91549  -6982109.89347  18969324.190    18969330.968
       240.000         200.000
  21703297.130     6345323.29849   4947987.58545  21703296.261    21703305.903
       213.000         146.000
  18622334.961   -32392774.52049 -25205260.47647  18622335.136    18622340.321
       244.000         207.000
  17948835.996   -21934680.97649 -17072905.82548  17948835.430    17948841.364
       244.000         214.000
  20588165.903    -7626711.78349  -5927748.89946  20588165.450    20588175.995
       218.000         166.000
  22491354.194     5841429.95348                  22491352.541
       185.000         102.000
  18793592.877   -25663592.45449 -19291997.00547  18793592.027    18793598.951
       238.000         202.000
  20682479.490   -24246873.74549 -18865252.49746  20682478.328    20682485.483
       223.000         172.000
 99  5 23 19  1 29.9920000  0  8G24G 4G30G 5G 8G 9G10G 6
  18971628.478    -8969742.62349  -6972675.67847  18971627.645    18971634.691
       239.000         200.000
  21711800.263     6390007.53249   4982806.32745  21711800.174    21711808.560
       209.000         146.000
  18603018.399   -32494284.13049 -25284358.87547  18603018.159    18603023.493
       244.000         207.000
  17943635.775   -21962008.55349 -17094200.07748  17943634.930    17943641.175
       244.000         214.000
  20593308.423    -7599688.36149  -5906691.87246  20593307.670    20593317.257
       219.000         166.000

       182.000          74.000
  18777822.210   -25746468.02849 -19356575.34847  18777821.145    18777828.281
       238.000         202.000
  20660502.366   -24362363.88249 -18955244.77646  20660502.042    20660508.758
       225.000         172.000
 99  5 23 19  1 59.9920000  0  8G24G 4G30G 5G 8G 9G10G 6
  18973972.678    -8957423.30449  -6963076.24847  18973971.813    18973978.840
       238.000         199.000
  21720298.880     6434668.42949   5017606.89645  21720298.660    21720307.990
       209.000         146.000
  18583793.981   -32595309.22449 -25363079.73147  18583793.967    18583799.325
       244.000         208.000
  17938541.685   -21988778.35249 -17115059.70748  17938541.066    17938547.091
       244.000         214.000
  20598491.369    -7572452.35349  -5885469.18946  20598489.792    20598501.754
       216.000         166.000

       181.000          74.000
  18762154.820   -25828800.78649 -19420730.72447  18762153.901    18762161.087
       239.000         202.000
  20638533.601   -24477810.18549 -19045202.90446  20638532.711    20638540.334
       223.000         172.000
 99  5 23 19  2 29.9920000  0  8G24G 4G30G 5G 8G 9G10G 6
  18976362.713    -8944863.27549  -6953289.25347  18976362.208    18976369.307
       239.000         199.000
  21728798.850     6479335.46149   5052412.25145  21728798.046    21728807.675
       209.000         146.000
  18564664.863   -32695833.19549 -25441410.08947  18564664.810    18564670.262
       243.000         208.000
  17933559.787   -22014958.59849 -17135459.93348  17933559.055    17933565.272
       245.000         214.000
  20603721.411    -7544968.18049  -5864053.15946  20603721.141    20603731.377
       217.000         165.000

       186.000          74.000
  18746598.646   -25910549.03249 -19484430.64047  18746597.311    18746604.727
       239.000         202.000
  20616577.133   -24593191.24449 -19135110.19646  20616575.941    20616583.372
       222.000         172.000
 99  5 23 19  2 59.9920000  0  8G24G 4G30G 5G 8G 9G10G 6
  18978797.101    -8932070.42649  -6943320.83647  18978796.732    18978803.484
       239.000         199.000
  21737297.036     6523992.90249   5087210.14645  21737297.282    21737306.914
       211.000         147.000
  18545633.516   -32795843.64449 -25519340.30747  18545633.415    18545638.856
       244.000         208.000
  17928690.497   -22040547.14149 -17155399.09548  17928689.616    17928696.038
       244.000         214.000
  20609000.198    -7517228.65949  -5842438.12846  20609000.636    20609010.568
       218.000         166.000

       189.000          74.000
  18731158.585   -25991686.86349 -19547654.89647  18731156.890    18731164.397
       237.000         201.000
  20594629.687   -24708524.93449 -19224980.57746  20594629.844    20594637.221
       223.000         172.000
 99  5 23 19  3 29.9920000  0  8G24G 4G30G 5G 8G 9G10G 6
  18981273.823    -8919055.75049  -6933179.56647  18981273.528    18981280.028
       239.000         199.000
  21745791.092     6568629.23749   5121991.60045  21745790.672    21745800.081
       211.000         147.000
  18526699.243   -32895344.33649 -25596873.30147  18526699.003    18526704.423
       244.000         208.000
  17923933.087   -22065547.46449 -17174879.91148  17923932.270    17923938.593
       244.000         214.000
  20614325.656    -7489244.20649  -5820632.23046  20614325.699    20614335.826
       220.000         166.000

       186.000          74.000
  18715831.330   -26072231.78449 -19610417.15547  18715830.030    18715837.137
       239.000         201.000
  20572686.693   -24823836.63149 -19314833.82546  20572685.186    20572692.864
       223.000         172.000
 99  5 23 19  3 59.9920000  0  8G24G 4G30G 5G 8G 9G10G 6
  18983794.832    -8905808.04949  -6922856.71847  18983794.423    18983801.091
       239.000         199.000
  21754284.355     6613263.00849   5156771.04245  21754285.172    21754294.372
       211.000         148.000
  18507864.249   -32994322.45549 -25673999.11047  18507863.583    18507869.364
       243.000         207.000
  17919288.361   -22089955.80949 -17193899.43948  17919287.615    17919293.632
       244.000         214.000
  20619704.258    -7460980.10349  -5798608.43946  20619702.657    20619714.471
       217.000         166.000

       183.000          74.000
  18700623.900   -26152147.24349 -19672688.91947  18700622.518    18700629.656
       239.000         201.000
  20550751.315   -24939107.28149 -19404655.07646  20550750.601    20550757.982
       222.000         172.000
 99  5 23 19  4 29.9910000  0  7G24G 4G30G 5G 8G10G 6
  18986360.768    -8892323.88849  -6912349.62147  18986360.406    18986367.664
       238.000         199.000
  21762775.729     6657886.23249   5191542.28145  21762776.343    21762786.005
       208.000         147.000
  18489129.772   -33092772.17949 -25750713.17647  18489129.462    18489135.330
       244.000         208.000
  17914749.451   -22113808.12349 -17212485.69548  17914749.027    17914755.054
       245.000         214.000
  20625134.237    -7432444.76849  -5776373.30446  20625133.877    20625143.887
       218.000         164.000
  18685535.316   -26231438.20949 -19734474.06447  18685534.444    18685541.350
       240.000         202.000
  20528825.294   -25054328.52349 -19494437.82646  20528824.501    20528832.849
       222.000         172.000
 99  5 23 19  4 59.9910000  0  7G24G 4G30G 5G 8G10G 6
  18988969.286    -8878616.50749  -6901668.58347  18988969.260    18988975.713
       239.000         199.000
  21771266.860     6702506.23449   5226310.98545  21771267.785    21771276.165
       210.000         147.000
  18470495.775   -33190694.58249 -25827016.34947  18470496.012    18470501.421
       244.000         208.000
  17910314.320   -22137115.47349 -17230647.30948  17910313.658    17910319.974
       244.000         214.000
  20630612.111    -7403658.69349  -5753942.78245  20630611.685    20630621.512
       219.000         162.000
  18670556.580   -26310152.44049 -19795809.81047  18670555.553    18670562.192
       240.000         203.000
  20506906.109   -25169514.36049 -19584193.01846  20506905.625    20506912.782
       222.000         172.000
 99  5 23 19  5 29.9910000  0  7G24G 4G30G 5G 8G10G 6
  18991618.406    -8864695.58949  -6890821.16047  18991617.777    18991624.932
       238.000         199.000
  21779759.308     6747131.59349   5261083.88145  21779759.646    21779768.557
       212.000         146.000
  18451957.882   -33288112.22349 -25902926.20147  18451957.805    18451963.231
       243.000         209.000
  17905982.278   -22159880.55549 -17248386.37448  17905981.297    17905987.977
       243.000         213.000
  20636135.132    -7374635.83149  -5731327.71245  20636136.020    20636145.083
       220.000         162.000
  18655683.123   -26388313.15649 -19856714.24947  18655682.100    18655688.735
       240.000         203.000
  20484993.836   -25284663.78849 -19673919.81546  20484993.464    20485000.528
       224.000         172.000
 99  5 23 19  5 59.9910000  0  7G24G 4G30G 5G 8G10G 6
  18994306.450    -8850570.09749  -6879814.32247  18994306.016    18994312.668
       239.000         198.000
  21788252.607     6791762.54849   5295861.12145  21788253.126    21788261.175
       211.000         146.000
  18433514.787   -33385031.12449 -25978447.42547  18433514.663    18433520.233
       244.000         209.000
  17901751.401   -22182113.77049 -17265711.00048  17901750.536    17901757.171
       244.000         213.000
  20641700.373    -7345391.54249  -5708540.11145  20641699.839    20641710.150
       220.000         161.000
  18640918.025   -26465904.03549 -19917174.65347  18640916.632    18640924.060
       239.000         202.000
  20463088.558   -25399777.58249 -19763618.84646  20463088.439    20463095.966
       225.000         173.000
 99  5 23 19  6 29.9910000  0  7G24G 4G30G 5G 8G10G 6
  18997033.783    -8836237.79249  -6868646.33047  18997032.898    18997040.254
       238.000         198.000
  21796748.384     6836408.15849   5330649.78445  21796748.795    21796757.484
       210.000         146.000
  18415171.066   -33481427.98649 -26053561.86347  18415170.813    18415176.419
       243.000         208.000
  17897623.346   -22203806.80549 -17282614.70048  17897622.664    17897629.218
       244.000         213.000
  20647306.329    -7315932.42549  -5685585.10145  20647305.028    20647316.160
       218.000         160.000
  18626262.940   -26542916.55249 -19977184.38747  18626261.428    18626268.760
       239.000         202.000
  20441191.683   -25514847.18649 -19853283.43546  20441191.388    20441198.629
       225.000         174.000
 99  5 23 19  6 59.9910000  0  7G24G 4G30G 5G 8G10G 6
  18999800.912    -8821696.42749  -6857315.43847  18999800.402    18999807.625
       238.000         197.000
  21805249.217     6881080.55049   5365459.31545  21805249.650    21805258.477
       211.000         145.000
  18396929.871   -33577286.10749 -26128256.50547  18396929.791    18396935.306
       244.000         208.000
  17893604.043   -22224928.63449 -17299073.30648  17893603.406    17893609.952
       244.000         213.000
  20652954.953    -7286249.61949  -5662455.84645  20652954.437    20652966.002
       219.000         160.000
  18611726.275   -26619307.31449 -20036709.63647  18611725.301    18611732.265
       240.000         202.000
  20419303.912   -25629867.64249 -19942909.73546  20419303.570    20419311.097
       224.000         174.000
 99  5 23 19  7 29.9910000  0  7G24G 4G30G 5G 8G10G 6
  19002608.747    -8806941.34049  -6845818.01347  19002608.288    19002614.904
       237.000         197.000
  21813754.157     6925773.24949   5400284.68245  21813753.323    21813764.010
       210.000         142.000
  18378792.045   -33672601.15349 -26202527.97147  18378791.897    18378797.474
       244.000         209.000
  17889692.600   -22245483.81149 -17315090.37148  17889691.924    17889698.391
       244.000         213.000
  20658646.501    -7256341.05349  -5639150.66845  20658646.297    20658657.153
       218.000         159.000
  18597316.271   -26695032.39349 -20095716.17147  18597315.087    18597321.993
       238.000         202.000
  20397427.393   -25744829.67449 -20032490.50646  20397425.976    20397433.865
       224.000         173.000
 99  5 23 19  7 59.9910000  0  7G24G 4G30G 5G 8G10G 6
  19005458.510    -8791966.02449  -6834148.97447  19005458.385    19005464.790
       238.000         197.000
  21822261.985     6970480.38749   5435121.30645  21822262.152    21822270.544
       210.000         140.000
  18360761.301   -33767352.96649 -26276360.55847  18360761.329    18360766.982
       244.000         209.000
  17885888.104   -22265476.63749 -17330669.23848  17885886.988    17885893.574
       243.000         213.000
  20664379.338    -7226216.50049  -5615677.17945  20664380.007    20664391.199
       216.000         158.000
  18583034.696   -26770082.51549 -20154196.76447  18583033.454    18583040.284
       239.000         202.000
  20375563.481   -25859724.41649 -20122018.84246  20375562.741    20375570.305
       224.000         172.000
 99  5 23 19  8 29.9910000  0  8G17G24G 4G30G 5G 8G10G 6
  22560201.276    -2619918.61949  -2006832.73645  22560199.639    22560216.343
       207.000         140.000
  19008352.425    -8776758.49949  -6822298.98447  19008351.922    19008358.773
       238.000         196.000
  21830772.898     7015205.05749   5469971.59245  21830773.260    21830782.384
       210.000         139.000
  18342840.435   -33861528.04249 -26349743.74247  18342840.366    18342845.937
       244.000         210.000
  17882194.037   -22284888.98149 -17345795.78647  17882193.275    17882199.807
       244.000         212.000
  20670154.368    -7195869.73049  -5592030.53945  20670153.920    20670165.346
       215.000         157.000
  18568881.098   -26844460.13549 -20212153.32847  18568879.952    18568887.240
       239.000         202.000
  20353715.532   -25974535.59349 -20211482.07846  20353715.186    20353721.729
       225.000         172.000
 99  5 23 19  8 59.9910000  0  8G17G24G 4G30G 5G 8G10G 6
  22533699.469    -2759185.92649  -2115352.54445  22533698.975    22533712.982
       204.000         137.000
  19011287.835    -8761332.74549  -6810278.95947  19011287.490    19011294.520
       238.000         196.000
  21839283.250     7059926.23349   5504819.15745  21839283.559    21839291.101
       211.000         138.000
  18325025.311   -33955146.94949 -26422693.53947  18325025.349    18325031.025
       244.000         210.000
  17878611.544   -22303715.38949 -17360465.76448  17878611.025    17878617.463
       244.000         213.000
  20675967.616    -7165321.08749  -5568226.59045  20675967.376    20675979.336
       216.000         157.000
  18554852.139   -26918182.70549 -20269599.47147  18554851.044    18554858.082
       239.000         202.000
  20331880.001   -26089283.13949 -20300895.73546  20331880.042    20331886.195
       225.000         173.000
 99  5 23 19  9 29.9910000  0  8G17G24G 4G30G 5G 8G10G 6
  22507229.878    -2898283.48249  -2223740.04445  22507228.740    22507244.347
       207.000         138.000
  19014264.770    -8745689.30549  -6798089.30347  19014264.489    19014271.367
       238.000         196.000
  21847789.648     7104626.50049   5539650.41945  21847790.170    21847798.601
       208.000         138.000
  18307315.516   -34048213.15549 -26495212.66047  18307315.409    18307320.847
       244.000         210.000
  17875139.545   -22321961.30249 -17374683.40448  17875138.919    17875145.344
       244.000         213.000
  20681819.983    -7134566.74749  -5544262.36745  20681820.074    20681831.258
       214.000         157.000
  18540943.914   -26991270.49449 -20326550.96947  18540942.503    18540949.974
       239.000         202.000
  20310057.763   -26203960.33649 -20390254.56846  20310057.610    20310063.750
       227.000         174.000
 99  5 23 19  9 59.9910000  0  8G17G24G 4G30G 5G 8G10G 6
  22480798.529    -3037180.80149  -2331971.52145  22480797.568    22480810.811
       203.000         137.000
  19017283.493    -8729826.65749  -6785728.84947  19017283.039    19017289.991
       237.000         196.000
  21856291.785     7149304.96649   5574464.68445  21856290.665    21856299.305
       207.000         138.000
  18289713.184   -34140713.92949 -26567291.18547  18289713.185    18289718.596
       244.000         210.000
  17871782.080   -22339605.25349 -17388431.98748  17871781.483    17871787.791
       244.000         213.000
  20687715.641    -7103585.80349  -5520121.56845  20687715.373    20687726.242
       214.000         157.000
  18527156.512   -27063723.48849 -20383007.82147  18527155.377    18527162.603
       239.000         203.000
  20288251.178   -26318555.38749 -20479549.38946  20288251.216    20288257.475
       226.000         174.000
 99  5 23 19 10 29.9910000  0  8G17G24G 4G30G 5G 8G10G 6
  22454406.145    -3175873.89649  -2440043.82245  22454405.608    22454419.401
       201.000         134.000
  19020340.560    -8713761.62749  -6773210.69347  19020340.083    19020347.369
       236.000         196.000
  21864788.219     7193953.65949   5609255.73345  21864788.192    21864797.230
       205.000         139.000
  18272218.596   -34232648.82749 -26638928.77147  18272218.586    18272224.057
       246.000         210.000
  17868540.072   -22356642.29249 -17401707.65348  17868539.498    17868545.740
       244.000         213.000
  20693656.467    -7072368.86449  -5495796.91445  20693656.270    20693666.561
       214.000         158.000
  18513491.273   -27135534.78549 -20438964.64847  18513490.147    18513497.151
       239.000         203.000
  20266459.271   -26433071.88649 -20568783.02246  20266458.193    20266466.232
       224.000         174.000
 99  5 23 19 10 59.9910000  0  8G17G24G 4G30G 5G 8G10G 6
  22428051.170    -3314370.21249  -2547962.81345  22428049.774    22428064.583
       202.000         133.000
  19023433.738    -8697506.82649  -6760544.65447  19023432.831    19023440.876
       236.000         196.000
  21873275.943     7238557.38549   5644011.75045  21873274.957    21873286.033
       206.000         141.000
  18254830.983   -34324021.43249 -26710128.20747  18254830.983    18254836.092
       247.000         210.000
  17865409.122   -22373095.63549 -17414528.49347  17865408.375    17865414.510
       243.000         212.000
  20699641.315    -7040920.07149  -5471291.59445  20699640.247    20699652.457
       212.000         157.000
  18499947.389   -27206708.41749 -20494424.58847  18499946.124    18499953.554
       239.000         203.000
  20244680.796   -26547517.64449 -20657961.50546  20244679.680    20244688.221
       225.000         174.000
 99  5 23 19 11 29.9910000  0  8G17G24G 4G30G 5G 8G10G 6
  22401737.427    -3452649.84049  -2655712.99045  22401736.211    22401749.558
       204.000         134.000
  19026566.304    -8681044.87449  -6747717.20047  19026565.813    19026572.854
       237.000         196.000
  21881761.199     7283147.21949   5678756.96345  21881761.332    21881770.470
       209.000         142.000
  18237553.413   -34414815.87749 -26780877.13047  18237552.895    18237558.964
       246.000         210.000
  17862387.391   -22388975.07549 -17426902.13347  17862386.557    17862393.107
       243.000         212.000
  20705671.783    -7009229.54649  -5446597.90545  20705670.842    20705683.183
       212.000         157.000
  18486528.027   -27277227.37749 -20549374.40847  18486526.664    18486533.877
       239.000         203.000
  20222919.240   -26661875.17549 -20747071.27446  20222919.094    20222925.520
       225.000         174.000
 99  5 23 19 11 59.9910000  0  8G17G24G 4G30G 5G 8G10G 6
  22375462.037    -3590729.00649  -2763306.96445  22375461.081    22375474.856
       201.000         132.000
  19029739.561    -8664369.53549  -6734723.47547  19029739.565    19029746.344
       237.000         195.000
  21890247.866     7327744.41149   5713507.87945  21890247.887    21890256.437
       209.000         142.000
  18220385.578   -34505033.10649 -26851176.27747  18220385.310    18220391.203
       246.000         210.000
  17859475.032   -22404279.88249 -17438828.01348  17859474.613    17859480.803
       244.000         213.000
  20711744.259    -6977319.19049  -5421732.90245  20711742.749    20711755.956
       216.000         158.000
  18473231.838   -27347099.14049 -20603819.91747  18473230.539    18473237.808
       239.000         203.000
  20201171.574   -26776160.12849 -20836124.46146  20201170.770    20201178.389
       225.000         175.000
 99  5 23 19 12 29.9910000  0  8G17G24G 4G30G 5G 8G10G 6
  22349218.872    -3728637.37349  -2870767.85544  22349215.810    22349232.307
       203.000         131.000
  19032952.946    -8647483.51449  -6721565.58247  19032952.801    19032959.681
       237.000         195.000
  21898734.232     7372340.40749   5748257.89945  21898734.472    21898743.813
       206.000         141.000
  18203324.943   -34594687.23749 -26921036.64447  18203324.691    18203330.101
       247.000         210.000
  17856667.440   -22419034.36949 -17450325.07047  17856666.547    17856673.082
       243.000         212.000
  20717849.961    -6945233.76649  -5396731.50445  20717850.271    20717860.371
       218.000         159.000
  18460054.354   -27416347.22949 -20657779.45247  18460053.221    18460060.443
       240.000         203.000
  20179432.133   -26890402.26249 -20925144.28146  20179431.770    20179438.271
       226.000         175.000
 99  5 23 19 12 59.9910000  0  8G17G24G 4G30G 5G 8G10G 6
  22323008.192    -3866373.40949  -2978094.52544  22323006.634    22323020.882
       201.000         131.000
  19036205.715    -8630390.50749  -6708246.40047  19036205.009    19036212.264
       237.000         194.000
  21907220.332     7416935.66049   5783007.33445  21907219.797    21907230.129
       207.000         139.000
  18186368.815   -34683792.39149 -26990469.23847  18186368.609    18186374.097
       246.000         210.000
  17853961.996   -22433251.28049 -17461403.24047  17853961.310    17853967.871
       243.000         212.000
  20723983.775    -6913000.99949  -5371615.28045  20723983.605    20723994.409
       219.000         161.000
  18446992.800   -27484986.51249 -20711264.59447  18446991.593    18446998.872
       239.000         203.000
  20157698.602   -27004612.67049 -21014139.37546  20157698.076    20157704.715
       225.000         176.000
 99  5 23 19 13 29.9910000  0  8G17G24G 4G30G 5G 8G10G 6
  22296836.021    -4003907.99749  -3085264.10445  22296833.493    22296847.889
       204.000         133.000
  19039499.034    -8613083.72549  -6694760.63847  19039498.140    19039505.724
       235.000         193.000
  21915710.583     7461552.38349   5817773.47645  21915711.299    21915719.959
       205.000         139.000
  18169517.982   -34772343.82949 -27059470.36147  18169518.084    18169523.660
       246.000         211.000
  17851364.057   -22446904.03149 -17472041.79647  17851363.578    17851370.039
       243.000         212.000
  20730146.874    -6880614.89849  -5346379.60145  20730147.757    20730156.245
       219.000         161.000
  18434049.806   -27553002.29049 -20764263.88647  18434048.774    18434055.811
       239.000         203.000
  20135973.296   -27118779.36149 -21103100.39846  20135972.476    20135978.837
       226.000         177.000
 99  5 23 19 13 59.9910000  0  8G17G24G 4G30G 5G 8G10G 6
  22270703.338    -4141234.39949  -3192271.50845  22270700.585    22270716.757
       201.000         132.000
  19042831.713    -8595570.09749  -6681113.70747  19042831.502    19042838.967
       236.000         193.000
  21924201.336     7506170.89649   5852541.03945  21924200.072    21924211.718
       204.000         139.000
  18152772.650   -34860341.50749 -27128039.98147  18152772.457    18152778.331
       247.000         212.000
  17848874.794   -22459985.40149 -17482235.12947  17848874.012    17848880.740
       243.000         212.000
  20736340.564    -6848067.30149  -5321018.05445  20736341.260    20736350.636
       221.000         161.000
  18421226.937   -27620386.87449 -20816771.34647  18421225.931    18421233.174
       239.000         204.000
  20114257.879   -27232894.98249 -21192021.63746  20114257.489    20114264.201
       227.000         177.000
 99  5 23 19 14 29.9910000  0  8G17G24G 4G30G 5G 8G10G 6
  22244611.302    -4278347.06049  -3299112.32445  22244609.018    22244622.508
       204.000         134.000
  19046197.818    -8577881.44949  -6667330.39147  19046197.722    19046204.345
       235.000         193.000
  21932688.217     7550770.43849   5887293.81445  21932688.786    21932698.404
       204.000         139.000
  18136131.011   -34947793.93749 -27196184.74047  18136130.948    18136136.116
       246.000         211.000
  17846491.118   -22472511.64449 -17491995.89047  17846490.662    17846497.173
       243.000         212.000
  20742563.714    -6815365.76349  -5295536.55145  20742564.172    20742575.656
       216.000         159.000
  18408525.046   -27687135.84449 -20868783.51147  18408523.904    18408531.156
       239.000         204.000
  20092553.455   -27346952.53349 -21280897.61046  20092552.815    20092559.556
       226.000         177.000
 99  5 23 19 14 59.9910000  0  8G17G24G 4G30G 5G 8G10G 6
  22218561.281    -4415240.29549  -3405782.15745  22218559.481    22218573.951
       205.000         135.000
  19049596.744    -8560020.78249  -6653413.03247  19049596.559    19049603.145
       237.000         194.000
  21941172.760     7595356.14349   5922035.79045  21941172.642    21941182.491
       207.000         140.000
  18119592.677   -35034703.35449 -27263906.37347  18119592.567    18119598.198
       246.000         211.000
  17844214.512   -22484475.71049 -17501318.59047  17844213.828    17844220.388
       244.000         212.000
  20748820.597    -6782486.29849  -5269916.38645  20748820.510    20748832.108
       216.000         157.000
  18395946.258   -27753237.76549 -20920291.49547  18395944.972    18395952.040
       240.000         204.000
  20070865.629   -27460921.92949 -21369704.90746  20070864.630    20070871.902
       226.000         177.000
 99  5 23 19 15 29.9910000  0  8G17G24G 4G30G 5G 8G10G 6
  22192547.440    -4551942.89149  -3512303.47445  22192545.590    22192560.087
       209.000         136.000
  19053024.954    -8542005.67249  -6639375.32247  19053024.086    19053031.196
       236.000         193.000
  21949649.297     7639899.39849   5956744.70145  21949648.584    21949659.991
       206.000         141.000
  18103154.257   -35121087.67849 -27331218.84247  18103154.227    18103159.861
       247.000         211.000
  17842040.499   -22495900.37649 -17510220.98947  17842039.703    17842046.421
       243.000         212.000
  20755109.119    -6749440.65649  -5244166.77845  20755110.276    20755120.567
       215.000         156.000
  18383486.169   -27818715.85849 -20971313.37847  18383485.208    18383492.251
       240.000         204.000
  20049190.694   -27574824.56649 -21458460.17946  20049190.624    20049197.033
       227.000         177.000
 99  5 23 19 15 59.9910000  0  8G17G24G 4G30G 5G 8G10G 6
  22166573.340    -4688437.64549  -3618662.83745  22166572.111    22166586.300
       208.000         139.000
  19056491.369    -8523789.25849  -6625180.75647  19056490.916    19056498.112
       236.000         193.000
  21958122.210     7684425.37649   5991440.13845  21958122.068    21958132.927
       206.000         140.000
  18086825.963   -35206893.69449 -27398080.67447  18086826.181    18086831.466
       247.000         211.000
  17839975.696   -22506751.24749 -17518676.26747  17839975.092    17839981.433
       243.000         211.000
  20761435.959    -6716194.59749  -5218260.97945  20761435.777    20761445.666
       213.000         154.000
  18371150.745   -27883538.87249 -21021824.81047  18371149.528    18371156.762
       240.000         204.000
  20027534.831   -27688627.41049 -21547137.70046  20027534.247    20027540.953
       228.000         178.000
 99  5 23 19 16 29.9910000  0  8G17G24G 4G30G 5G 8G10G 6
  22140634.474    -4824746.04149  -3724876.96545  22140632.449    22140647.943
       209.000         141.000
  19059994.177    -8505382.36249  -6610837.76547  19059993.541    19060000.217
       236.000         193.000
  21966590.498     7728926.26549   6026116.03845  21966590.066    21966600.744
       206.000         141.000
  18070607.086   -35292125.00749 -27464494.68847  18070607.469    18070612.390
       248.000         212.000
  17838017.172   -22517043.57449 -17526696.31847  17838016.608    17838022.996
       243.000         211.000
  20767797.566    -6682764.30049  -5192211.63745  20767797.763    20767807.626
       212.000         153.000
  18358936.154   -27947726.94949 -21071841.49547  18358935.024    18358941.990
       240.000         204.000
  20005894.624   -27802347.88949 -21635751.05146  20005894.058    20005900.325
       228.000         177.000
 99  5 23 19 16 59.9910000  0  8G17G24G 4G30G 5G 8G10G 6
  22114736.051    -4960841.73749  -3830925.34745  22114735.327    22114748.484
       210.000         142.000
  19063540.282    -8486747.32449  -6596316.99947  19063539.576    19063546.964
       235.000         192.000
  21975058.355     7773424.28249   6060789.68745  21975058.334    21975068.260
       208.000         142.000
  18054502.836   -35376753.66849 -27530439.10247  18054502.498    18054507.933
       246.000         212.000
  17836170.689   -22526747.46949 -17534257.85047  17836170.096    17836176.462
       244.000         211.000
  20774201.450    -6649112.22149  -5165989.46745  20774202.169    20774212.640
       213.000         152.000
  18346847.994   -28011250.56249 -21121340.41047  18346846.672    18346853.766
       240.000         204.000
  19984272.652   -27915971.89149 -21724289.20946  19984272.336    19984278.292
       226.000         176.000
 99  5 23 19 17 29.9910000  0  8G17G24G 4G30G 5G 8G10G 6
  22088880.833    -5096711.00449  -3936797.26945  22088879.277    22088893.493
       210.000         142.000
  19067130.349    -8467881.02649  -6581616.02947  19067130.250    19067136.998
       235.000         192.000
  21983528.553     7817935.34549   6095473.51845  21983527.411    21983538.663
       206.000         142.000
  18038517.073   -35460759.38049 -27595898.10947  18038516.995    18038522.362
       247.000         211.000
  17834438.487   -22535850.70549 -17541351.33247  17834437.866    17834444.072
       244.000         211.000
  20780646.869    -6615243.14349  -5139598.20545  20780646.538    20780658.795
       212.000         152.000
  18334889.028   -28074095.29749 -21170310.33447  18334888.041    18334894.728
       240.000         204.000
  19962666.613   -28029511.56549 -21812761.65046  19962666.144    19962672.588
       227.000         176.000
 99  5 23 19 17 59.9910000  0  8G17G24G 4G30G 5G 8G10G 6
  22063066.131    -5232367.79249  -4042503.68445  22063064.868    22063079.660
       208.000         142.000
  19070760.631    -8448804.08949  -6566750.93247  19070760.257    19070767.530
       235.000         192.000
  21991998.411     7862444.54049   6130155.89245  21991998.017    21992007.360
       208.000         143.000
  18022647.094   -35544156.81349 -27660883.12847  18022647.061    18022652.147
       247.000         212.000
  17832818.163   -22544365.91649 -17547986.61347  17832817.397    17832824.042
       243.000         211.000
  20787129.816    -6581175.68849  -5113052.37645  20787129.460    20787141.320
       212.000         153.000
  18323059.140   -28136261.89249 -21218751.82847  18323057.781    18323064.789
       239.000         204.000
  19941075.197   -28142975.49349 -21901175.07046  19941074.881    19941081.515
       227.000         176.000
 99  5 23 19 18 29.9910000  0  7G17G24G30G 5G 8G10G 6
  22037289.370    -5367824.41949  -4148054.10345  22037288.293    22037301.491
       208.000         142.000
  19074425.541    -8429544.91049  -6551743.82047  19074425.070    19074432.355
       235.000         191.000
  18006887.054   -35626976.48349 -27725417.94747  18006886.912    18006892.168
       247.000         211.000
  17831305.860   -22552313.28249 -17554179.42147  17831305.124    17831311.823
       243.000         211.000
  20793646.763    -6546929.42749  -5086367.22645  20793646.828    20793657.318
       214.000         154.000
  18311357.834   -28197752.90949 -21266666.90447  18311356.821    18311363.631
       240.000         203.000
  19919496.206   -28256373.85449 -21989537.40046  19919496.330    19919502.826
       228.000         177.000
 99  5 23 19 18 59.9910000  0  7G17G24G30G 5G 8G10G 6
  22011550.103    -5503085.00949  -4253451.76845  22011548.082    22011562.971
       207.000         139.000
  19078122.663    -8410116.53449  -6536604.87447  19078122.800    19078129.604
       236.000         191.000
  17991236.246   -35709221.60749 -27789505.06947  17991235.797    17991241.738
       246.000         211.000
  17829900.551   -22559698.25149 -17559934.00047  17829899.967    17829906.501
       243.000         211.000
  20800193.010    -6512528.82549  -5059561.80645  20800192.227    20800205.604
       213.000         155.000
  18299784.022   -28258573.69349 -21314059.72147  18299782.674    18299789.812
       240.000         204.000
  19897928.249   -28369714.42449 -22077854.69646  19897927.821    19897934.577
       227.000         177.000
 99  5 23 19 19 29.9910000  0  7G17G24G30G 5G 8G10G 6
  21985849.620    -5638141.10949  -4358690.11445  21985847.445    21985861.959
       206.000         138.000
  19081853.383    -8390512.04849  -6521328.69547  19081853.028    19081860.474
       235.000         192.000
  17975698.418   -35790872.89149 -27853129.45547  17975698.093    17975704.050
       244.000         211.000
  17828604.248   -22566510.98549 -17565242.67947  17828603.784    17828610.116
       243.000         211.000
  20806768.407    -6477975.32249  -5032637.19645  20806768.294    20806780.355
       214.000         155.000
  18288338.349   -28318720.67249 -21360927.49747  18288337.078    18288344.446
       241.000         204.000
  19876374.966   -28482977.71449 -22166111.77446  19876374.872    19876380.878
       228.000         177.000
 99  5 23 19 19 59.9910000  0  7G17G24G30G 5G 8G10G 6
  21960190.295    -5772979.98349  -4463759.17045  21960189.167    21960202.937
       205.000         136.000
  19085618.773    -8370724.82249  -6505910.11947  19085618.661    19085626.044
       235.000         191.000
  17960275.231   -35871921.99449 -27916284.61447  17960275.420    17960280.909
       245.000         212.000
  17827416.581   -22572752.58649 -17570106.32247  17827415.767    17827422.486
       243.000         211.000
  20813374.211    -6443262.27449  -5005588.28845  20813374.101    20813385.223
       215.000         155.000
  18277022.199   -28378187.56549 -21407265.33647  18277021.082    18277028.155
       241.000         204.000
  19854839.009   -28596149.87749 -22254297.86046  19854837.902    19854844.725
       227.000         178.000
 99  5 23 19 20 29.9900000  0  7G17G24G30G 5G 8G10G 6
  21934573.832    -5907594.65449  -4568653.49645  21934572.142    21934585.991
       203.000         136.000
  19089419.501    -8350751.95949  -6490346.88847  19089419.100    19089426.685
       234.000         191.000
  17944969.324   -35952355.42249 -27978960.02647  17944969.276    17944974.881
       244.000         212.000
  17826336.438   -22578428.62749 -17574529.27547  17826335.495    17826342.282
       243.000         211.000
  20820006.666    -6408408.91349  -4978430.06345  20820007.219    20820018.220
       215.000         156.000
  18265835.523   -28436974.06749 -21453073.00047  18265834.386    18265841.363
       241.000         204.000
  19833319.594   -28709234.62049 -22342415.81446  19833319.069    19833325.513
       227.000         178.000
 99  5 23 19 20 59.9900000  0  7G17G24G30G 5G 8G10G 6
  21908997.047    -6042001.26749  -4673385.73545  21908996.038    21909009.899
       205.000         136.000
  19093252.392    -8330610.06249  -6474651.95347  19093252.217    19093259.404
       235.000         191.000
  17929777.738   -36032187.39049 -28041166.76947  17929777.773    17929783.360
       245.000         212.000
  17825360.214   -22583558.63849 -17578526.74347  17825359.191    17825366.054
       242.000         210.000
  20826661.306    -6373440.71049  -4951182.32945  20826661.742    20826674.246
       217.000         157.000
  18254770.441   -28495121.60649 -21498382.76847  18254769.316    18254776.498
       241.000         204.000
  19811810.470   -28822264.77049 -22430491.23646  19811809.470    19811816.407
       226.000         178.000
 99  5 23 19 21 29.9900000  0  7G17G24G30G 5G 8G10G 6
  21883455.986    -6176219.62149  -4777971.23645  21883454.290    21883467.596
       203.000         137.000
  19097111.062    -8310333.18249  -6458851.83147  19097110.665    19097117.695
       235.000         191.000
  17914693.676   -36111454.92749 -28102933.68547  17914693.746    17914699.291
       245.000         212.000
  17824481.749   -22588174.84549 -17582123.85447  17824481.099    17824487.519
       243.000         210.000
  20833332.119    -6338387.89649  -4923868.66345  20833331.405    20833343.991
       214.000         157.000
  18243822.179   -28552654.78549 -21543213.80847  18243820.866    18243827.973
       240.000         204.000
  19790307.479   -28935263.12749 -22518541.87646  19790306.856    19790313.352
       228.000         179.000
 99  5 23 19 21 59.9900000  0  7G17G24G30G 5G 8G10G 6
  21857950.003    -6310253.23149  -4882412.80645  21857947.948    21857961.796
       205.000         140.000
  19100994.211    -8289927.31749  -6442951.20447  19100993.577    19101000.991
       235.000         191.000
  17899715.978   -36190163.32949 -28164264.91248  17899715.725    17899721.382
       246.000         213.000
  17823700.646   -22592279.82149 -17585322.59747  17823699.779    17823706.626
       243.000         210.000
  20840016.567    -6303261.50549  -4896497.69045  20840015.338    20840027.882
       211.000         156.000
  18232990.621   -28609574.45949 -21587566.78547  18232989.154    18232996.669
       240.000         203.000
  19768809.533   -29048235.54349 -22606572.29946  19768808.858    19768815.517
       230.000         180.000
 99  5 23 19 22 29.9900000  0  7G17G24G30G 5G 8G10G 6
  21832478.513    -6444106.08549  -4986713.52545  21832477.131    21832490.884
       206.000         143.000
  19104900.381    -8269400.63349  -6426956.42347  19104900.053    19104907.048
       234.000         190.000
  17884844.040   -36268315.73749 -28225162.89948  17884844.070    17884849.584
       246.000         213.000
  17823018.057   -22595867.06849 -17588117.91747  17823017.272    17823024.168
       242.000         209.000
  20846715.295    -6268060.09949  -4869068.22445  20846715.609    20846728.067
       214.000         156.000
  18222275.090   -28665884.75949 -21631444.94447  18222274.122    18222281.069
       241.000         204.000
  19747319.823   -29161164.76249 -22694569.08046  19747319.615    19747326.439
       230.000         181.000
 99  5 23 19 22 59.9900000  0  7G17G24G30G 5G 8G10G 6
  21807043.245    -6577768.49449  -5090865.80745  21807041.899    21807056.010
       204.000         145.000
  19108826.630    -8248767.76549  -6410878.90247  19108826.225    19108833.864
       234.000         190.000
  17870075.527   -36345924.98349 -28285637.64248  17870075.694    17870081.190
       246.000         213.000
  17822436.380   -22598924.19849 -17590500.15947  17822435.944    17822442.409
       242.000         209.000
  20853432.053    -6232764.90549  -4841565.69645  20853432.309    20853445.044
       215.000         155.000
  18211675.595   -28721585.94249 -21674848.46047  18211674.330    18211681.416
       241.000         204.000
  19725841.535   -29274034.06049 -22782519.15146  19725840.625    19725848.418
       230.000         182.000
 99  5 23 19 23 29.9900000  0  7G17G24G30G 5G 8G10G 6
  21781638.317    -6711271.50849  -5194893.85845  21781636.587    21781651.409
       204.000         144.000
  19112770.017    -8228045.03449  -6394731.36447  19112769.665    19112777.460
       234.000         190.000
  17855406.470   -36423011.85549 -28345705.34548  17855406.369    17855411.808
       246.000         213.000
  17821950.651   -22601477.07149 -17592489.47047  17821950.041    17821956.901
       242.000         209.000
  20860164.967    -6197385.00849  -4813997.21045  20860164.688    20860175.488
       214.000         154.000
  18201191.138   -28776681.98549 -21717780.44247  18201189.749    18201196.893
       240.000         204.000
  19704371.933   -29386857.13349 -22870433.20846  19704371.557    19704378.675
       230.000         184.000
 99  5 23 19 23 59.9900000  0  7G17G24G30G 5G 8G10G 6
  21756267.098    -6844596.47949  -5298783.20045  21756265.990    21756279.682
       204.000         145.000
  19116737.178    -8207198.06749  -6378487.01047  19116736.878    19116744.312
       234.000         190.000
  17840842.818   -36499544.37349 -28405341.08448  17840842.871    17840848.017
       245.000         213.000
  17821565.283   -22603502.67749 -17594067.92147  17821564.687    17821571.532
       242.000         209.000
  20866920.526    -6161885.26949  -4786335.31845  20866921.621    20866932.844
       216.000         156.000
  18190825.387   -28831153.64949 -21760225.88547  18190824.394    18190831.604
       241.000         204.000
  19682917.283   -29499602.54849 -22958286.75246  19682917.570    19682923.769
       231.000         184.000
 99  5 23 19 24 29.9900000  0  7G17G24G30G 5G 8G10G 6
  21730923.756    -6977775.30949  -5402558.63845  21730922.046    21730935.634
       204.000         144.000
  19120723.410    -8186250.39149  -6362164.19447  19120722.949    19120730.364
       233.000         189.000
  17826378.988   -36575552.13349 -28464567.91648  17826378.995    17826384.637
       245.000         213.000
  17821273.089   -22605038.05049 -17595264.37647  17821272.360    17821279.189
       242.000         209.000
  20873693.786    -6126292.95049  -4758601.30045  20873694.202    20873705.951
       213.000         155.000
  18180571.681   -28885037.78749 -21802213.51647  18180570.773    18180577.744
       242.000         205.000
  19661473.766   -29612289.30349 -23046094.57846  19661473.055    19661480.177
       230.000         184.000
 99  5 23 19 24 59.9900000  0  7G17G24G30G 5G 8G10G 6
  21705605.067    -7110823.79849  -5506232.52145  21705603.913    21705617.199
       205.000         143.000
  19124729.811    -8165196.51549  -6345758.63047  19124729.495    19124737.100
       233.000         188.000
  17812014.752   -36651036.69549 -28523387.06648  17812014.679    17812020.358
       245.000         213.000
  17821069.736   -22606106.72949 -17596097.16847  17821069.101    17821076.011
       242.000         208.000
  20880479.615    -6090633.47949  -4730814.93645  20880479.375    20880490.739
       212.000         154.000
  18170425.061   -28938359.03449 -21843762.52947  18170423.847    18170430.952
       241.000         205.000
  19640035.090   -29724949.72849 -23133881.89846  19640034.387    19640041.287
       231.000         183.000
 99  5 23 19 25 29.9900000  0  7G17G24G30G 5G 8G10G 6
  21680309.974    -7243748.86749  -5609810.23345  21680308.025    21680322.531
       208.000         142.000
  19128758.630    -8144025.16549  -6329261.52147  19128758.556    19128765.836
       234.000         188.000
  17797751.781   -36725988.89349 -28581791.38748  17797751.663    17797757.431
       245.000         213.000
  17820953.071   -22606720.17749 -17596575.23847  17820952.511    17820959.476
       242.000         209.000
  20887274.562    -6054925.19149  -4702990.58745  20887274.501    20887286.966
       212.000         153.000
  18160382.658   -28991132.04849 -21884884.35547  18160381.460    18160388.545
       241.000         205.000
  19618599.309   -29837595.64249 -23221657.90946  19618598.897    19618605.869
       230.000         183.000
 99  5 23 19 25 59.9900000  0  7G17G24G30G 5G 8G10G 6
  21655043.993    -7376522.70949  -5713270.09945  21655042.146    21655056.534
       210.000         143.000
  19132809.797    -8122736.28149  -6312672.82647  19132809.112    19132816.777
       233.000         188.000
  17783593.558   -36800390.51649 -28639766.69148  17783593.634    17783599.287
       245.000         213.000
  17820927.770   -22606853.33349 -17596679.05447  17820927.059    17820934.121
       242.000         209.000
  20894079.566    -6019165.55649  -4675126.15945  20894078.920    20894092.624
       212.000         153.000
  18150449.038   -29043333.56449 -21925560.85647  18150447.956    18150454.872
       241.000         205.000
  19597170.359   -29950205.51149 -23309405.83246  19597170.361    19597176.379
       230.000         183.000
 99  5 23 19 26 29.9900000  0  7G17G24G30G 5G 8G10G 6
  21629809.904    -7509128.57749  -5816599.11645  21629809.245    21629821.190
       209.000         144.000
  19136882.226    -8101335.76249  -6295997.14046  19136882.062    19136889.461
       234.000         187.000
  17769540.999   -36874237.64349 -28697309.91548  17769541.103    17769546.707
       245.000         213.000
  17820995.579   -22606497.42949 -17596401.78547  17820994.992    17821001.525
       243.000         209.000
  20900891.567    -5983369.43249  -4647233.31345  20900891.254    20900903.379
       214.000         153.000
  18140626.946   -29094949.10749 -21965780.74947  18140626.036    18140632.813
       242.000         205.000
  19575744.943   -30062797.01149 -23397139.42746  19575744.524    19575751.292
       231.000         183.000
 99  5 23 19 26 59.9900000  0  7G17G24G30G 5G 8G10G 6
  21604611.108    -7641549.16249  -5919783.74545  21604610.310    21604622.911
       209.000         144.000
  19140974.295    -8079832.40249  -6279241.32846  19140973.870    19140981.072
       233.000         187.000
  17755594.917   -36947525.00149 -28754416.95648  17755595.057    17755600.516
       246.000         213.000
  17821157.822   -22605645.27149 -17595737.82747  17821157.330    17821163.595
       243.000         209.000
  20907711.198    -5947533.67849  -4619309.57845  20907710.663    20907723.113
       212.000         154.000
  18130920.740   -29145955.68549 -22005526.12147  18130919.566    18130926.574
       241.000         206.000
  19554318.956   -30175391.56849 -23484875.42446  19554318.357    19554324.654
       231.000         183.000
 99  5 23 19 27 29.9900000  0  7G17G24G30G 5G 8G10G 6
  21579453.058    -7773755.20149  -6022801.23445  21579451.277    21579463.732
       212.000         144.000
  19145086.009    -8058225.35249  -6262404.71446  19145085.673    19145092.803
       233.000         187.000
  17741758.847   -37020234.30749 -28811073.56848  17741758.676    17741764.169
       246.000         213.000
  17821418.835   -22604274.19149 -17594669.52147  17821417.939    17821425.399
       242.000         208.000
  20914543.254    -5911631.99449  -4591334.48245  20914542.244    20914556.570
       212.000         153.000
  18121340.213   -29196301.39149 -22044756.53347  18121338.828    18121346.036
       240.000         205.000
  19532896.270   -30287968.10449 -23572597.38446  19532895.518    19532902.810
       231.000         183.000
 99  5 23 19 27 59.9900000  0  7G17G24G30G 5G 8G10G 6
  21554334.356    -7905753.77449  -6125657.06445  21554332.356    21554345.289
       210.000         145.000
  19149215.421    -8036525.52549  -6245495.80146  19149215.374    19149222.128
       234.000         186.000
  17728033.547   -37092361.04149 -28867276.22948  17728033.578    17728039.131
       245.000         213.000
  17821777.611   -22602388.86449 -17593200.50147  17821777.120    17821783.776
       241.000         208.000
  20921387.117    -5875668.04749  -4563310.87245  20921387.675    20921399.719
       214.000         153.000
  18111886.358   -29245981.47749 -22083468.27847  18111885.233    18111892.520
       241.000         205.000
  19511476.084   -30400531.90549 -23660309.40646  19511475.676    19511481.861
       231.000         183.000
 99  5 23 19 28 29.9900000  0  7G17G24G30G 5G 8G10G 6
  21529252.670    -8037558.21449  -6228361.60645  21529251.419    21529264.006
       211.000         145.000
  19153363.114    -8014729.78149  -6228512.16046  19153362.883    19153369.436
       232.000         186.000
  17714418.952   -37163906.45149 -28923025.91148  17714419.223    17714424.812
       246.000         214.000
  17822231.479   -22600003.73149 -17591342.02047  17822230.527    17822237.517
       241.000         207.000
  20928242.510    -5839644.42949  -4535240.76145  20928241.800    20928255.846
       212.000         153.000
  18102554.334   -29295021.88649 -22121681.56847  18102553.293    18102560.469
       241.000         206.000
  19490054.505   -30513102.94749 -23748027.06846  19490054.546    19490060.463
       231.000         183.000
 99  5 23 19 28 59.9900000  0  7G17G24G30G 5G 8G10G 6
  21504210.971    -8169153.14149  -6330902.89645  21504209.096    21504221.598
       210.000         146.000
  19157533.977    -7992811.66749  -6211433.15846  19157533.565    19157540.446
       233.000         186.000
  17700920.680   -37234840.87849 -28978299.50648  17700920.648    17700926.291
       246.000         214.000
  17822783.800   -22597101.30149 -17589080.45147  17822782.954    17822789.958
       241.000         207.000
  20935115.309    -5803527.61949  -4507098.05045  20935114.452    20935127.719
       210.000         151.000
  18093347.736   -29343402.79849 -22159380.96647  18093346.637    18093353.793
       240.000         206.000
  19468642.808   -30625622.14949 -23835704.34346  19468642.140    19468649.328
       232.000         184.000
 99  5 23 19 29 29.9900000  0  7G17G24G30G 5G 8G10G 6
  21479205.826    -8300555.20349  -6433293.87245  21479203.467    21479216.601
       207.000         146.000
  19161727.112    -7970776.57849  -6194263.00246  19161726.793    19161734.104
       232.000         186.000
  17687539.716   -37305158.28049 -29033092.30248  17687539.681    17687545.020
       246.000         214.000
  17823435.174   -22593678.64049 -17586413.50547  17823434.583    17823441.758
       241.000         207.000
  20942002.457    -5767334.92449  -4478896.23645  20942001.404    20942016.473
       209.000         148.000
  18084262.857   -29391144.03449 -22196581.91847  18084261.696    18084268.879
       241.000         205.000
  19447246.413   -30738060.69449 -23923318.77446  19447245.622    19447252.352
       230.000         185.000
 99  5 23 19 29 59.9900000  0  7G17G24G30G 5G 8G10G 6
  21454233.291    -8431785.60649  -6535551.13245  21454231.085    21454244.622
       208.000         145.000
  19165939.995    -7948637.76649  -6177012.02446  19165939.416    19165947.159
       232.000         186.000
  17674273.331   -37374873.47349 -29087415.84648  17674273.475    17674278.852
       246.000         213.000
  17824183.402   -22589746.95949 -17583349.92247  17824182.715    17824189.768
       241.000         207.000
  20948899.707    -5731089.38249  -4450653.20045  20948898.130    20948912.521
       206.000         146.000
  18075290.871   -29438292.02649 -22233320.60547  18075289.537    18075296.599
       241.000         205.000
  19425864.969   -30850420.49349 -24010871.84646  19425864.454    19425871.511
       231.000         185.000
 99  5 23 19 30 29.9900000  0  7G17G24G30G 5G 8G10G 6
  21429292.725    -8562847.55749  -6637677.11645  21429291.290    21429303.495
       210.000         147.000
  19170171.542    -7926400.88349  -6159684.63846  19170171.197    19170178.631
       232.000         187.000
  17661119.602   -37443996.99749 -29141278.34848  17661119.511    17661125.039
       246.000         213.000
  17825025.824   -22585320.20849 -17579900.57947  17825025.132    17825032.116
       240.000         206.000
  20955803.673    -5694809.21349  -4422383.14945  20955803.969    20955817.171
       209.000         145.000
  18066431.304   -29484849.51349 -22269599.15647  18066430.221    18066437.293
       241.000         205.000
  19404500.144   -30962693.65649 -24098357.41646  19404499.894    19404505.986
       231.000         186.000
 99  5 23 19 30 59.9900000  0  7G17G24G30G 5G 8G10G 6
  21404381.493    -8693755.22449  -6739682.87845  21404380.126    21404392.240
       212.000         149.000
  19174419.025    -7904080.43849  -6142292.14346  19174418.506    19174425.793
       233.000         187.000
  17648074.769   -37512548.13049 -29194694.83148  17648074.762    17648080.364
       245.000         213.000
  17825956.494   -22580429.97249 -17576090.07847  17825956.107    17825962.665
       242.000         206.000
  20962707.376    -5658530.55249  -4394114.31945  20962707.709    20962720.808
       206.000         144.000
  18057681.639   -29530829.23549 -22305427.49947  18057680.448    18057687.646
       241.000         205.000
  19383152.437   -31074876.67849 -24185772.73246  19383152.153    19383158.433
       231.000         186.000
 99  5 23 19 31 29.9900000  0  7G17G24G30G 5G 8G10G 6
  21379502.209    -8824496.67849  -6841559.14345  21379501.699    21379512.800
       214.000         151.000
  19178683.245    -7881672.12549  -6124831.17746  19178683.354    19178690.242
       233.000         187.000
  17635139.111   -37580525.45049 -29247664.18748  17635138.987    17635144.916
       246.000         213.000
  17826975.491   -22575075.87549 -17571918.12147  17826974.832    17826981.619
       241.000         206.000
  20969612.258    -5622246.49149  -4365841.29645  20969612.439    20969626.733
       208.000         144.000
  18049042.799   -29576226.71249 -22340802.14747  18049041.539    18049048.713
       241.000         206.000
  19361818.997   -31186984.28949 -24273129.28046  19361818.022    19361825.083
       230.000         186.000
 99  5 23 19 31 59.9900000  0  7G17G24G30G 5G 8G10G 6
  21354654.550    -8955072.20349  -6943306.11345  21354653.581    21354665.284
       214.000         150.000
  19182964.969    -7859171.43549  -6107298.23446  19182964.270    19182971.998
       232.000         186.000
  17622310.177   -37647941.88149 -29300196.49048  17622310.149    17622315.886
       245.000         213.000
  17828077.790   -22569283.43149 -17567404.59047  17828076.839    17828083.892
       240.000         206.000
  20976520.497    -5585944.67449  -4337554.43645  20976521.276    20976533.166
       207.000         143.000
  18040515.947   -29621035.36149 -22375717.96347  18040514.931    18040522.084
       241.000         206.000
  19340495.122   -31299041.08149 -24360446.24146  19340494.204    19340501.496
       228.000         185.000
 99  5 23 19 32 29.9900000  0  7G17G24G30G 5G 8G10G 6
  21329836.837    -9085489.60949  -7044929.90045  21329835.742    21329847.071
       214.000         150.000
  19187261.002    -7836596.42649  -6089707.37746  19187260.986    19187267.607
       233.000         185.000
  17609582.775   -37714824.75349 -29352313.02548  17609582.700    17609588.246
       245.000         213.000
  17829259.240   -22563074.64149 -17562566.63647  17829258.591    17829265.357
       240.000         205.000
  20983431.235    -5549630.46249  -4309257.89245  20983431.163    20983444.977
       209.000         142.000
  18032103.178   -29665244.87949 -22410166.92547  18032102.275    18032109.091
       241.000         206.000
  19319177.616   -31411064.48949 -24447737.20246  19319177.312    19319184.237
       229.000         185.000
 99  5 23 19 32 59.9900000  0  7G17G24G30G 5G 8G10G 6
  21305051.870    -9215734.58949  -7146419.30745  21305049.951    21305063.042
       213.000         149.000
  19191570.460    -7813951.03049  -6072061.66446  19191570.562    19191577.462
       233.000         185.000
  17596955.773   -37781180.23549 -29404018.61548  17596955.711    17596961.355
       245.000         213.000
  17830524.110   -22556427.74849 -17557387.31247  17830523.565    17830530.411
       241.000         205.000
  20990349.449    -5513276.70949  -4280930.54445  20990349.983    20990362.199
       209.000         141.000
  18023804.332   -29708855.82349 -22444149.48147  18023803.001    18023810.052
       240.000         205.000
  19297865.137   -31523062.18349 -24535008.11546  19297864.766    19297871.994
       229.000         185.000
 99  5 23 19 33 29.9900000  0  7G17G24G30G 5G 8G10G 6
  21280296.630    -9345823.03449  -7247786.74245  21280295.518    21280307.655
       214.000         148.000
  19195886.518    -7791270.31649  -6054388.42646  19195886.284    19195893.840
       233.000         185.000
  17584425.968   -37847024.82249 -29455326.09748  17584426.005    17584431.504
       246.000         213.000
  17831874.615   -22549331.61549 -17551857.91947  17831874.160    17831880.830
       241.000         206.000
  20997272.621    -5476897.14049  -4252583.09345  20997272.671    20997285.604
       208.000         140.000
  18015617.012   -29751880.02649 -22477674.82247  18015615.699    18015622.759
       240.000         204.000
  19276550.428   -31635071.98249 -24622288.46246  19276550.392    19276557.467
       231.000         186.000
 99  5 23 19 33 59.9900000  0  7G17G24G30G 5G 8G10G 6
  21255563.320    -9475796.83249  -7349064.84345  21255561.321    21255573.039
       210.000         147.000
  19200202.564    -7768589.88749  -6036715.42146  19200201.857    19200209.371
       233.000         185.000
  17571987.107   -37912391.80349 -29506261.42248  17571987.196    17571992.593
       246.000         213.000
  17833305.010   -22541815.23149 -17546001.06247  17833304.320    17833311.402
       241.000         206.000
  21004188.234    -5440556.99649  -4224266.31045  21004187.084    21004201.550
       205.000         137.000
  18007535.178   -29794350.35649 -22510768.58547  18007534.164    18007540.968
       241.000         204.000
  19255226.946   -31747128.15049 -24709604.93646  19255226.934    19255232.768
       232.000         186.000
 99  5 23 19 34 29.9900000  0  7G17G24G30G 5G 8G10G 6
  21230848.947    -9605669.33649  -7450263.97345  21230847.120    21230859.326
       208.000         145.000
  19204513.169    -7745937.57349  -6019064.32646  19204513.082    19204520.065
       232.000         185.000
  17559635.960   -37977297.68449 -29556837.44948  17559635.657    17559641.489
       245.000         213.000
  17834814.028   -22533885.37049 -17539822.01747  17834813.086    17834820.284
       241.000         205.000
  21011087.337    -5404303.14849  -4196016.84045  21011087.377    21011101.312
       204.000         134.000
  17999553.788   -29836293.26149 -22543451.36647  17999552.549    17999559.436
       242.000         205.000
  19233892.261   -31859242.94649 -24796967.09946  19233892.114    19233898.406
       232.000         186.000
 99  5 23 19 34 59.9900000  0  7G17G24G30G 5G 8G10G 6
  21206156.753    -9735425.85849  -7551372.74445  21206155.044    21206168.680
       210.000         147.000
  19208824.631    -7723280.68849  -6001409.67746  19208824.278    19208831.698
       232.000         185.000
  17547380.546   -38041700.16049 -29607021.21448  17547380.471    17547386.427
       245.000         213.000
  17836406.967   -22525514.59949 -17533299.41647  17836406.273    17836413.275
       240.000         205.000
  21017968.703    -5368141.67949  -4167839.32244  21017968.513    21017982.410
       204.000         131.000
  17991674.083   -29877701.33049 -22575717.39347  17991672.864    17991680.366
       241.000         205.000
  19212549.051   -31971402.84649 -24884364.40146  19212548.509    19212554.598
       232.000         186.000
 99  5 23 19 35 29.9900000  0  7G17G24G30G 5G 8G10G 6
  21181486.029    -9865070.13449  -7652394.06245  21181484.613    21181497.725
       212.000         149.000
  19213140.842    -7700598.81049  -5983735.53846  19213140.240    19213147.231
       231.000         184.000
  17535225.719   -38105574.01849 -29656793.07548  17535225.626    17535230.993
       246.000         213.000
  17838081.913   -22516712.61549 -17526440.80447  17838081.093    17838088.494
       240.000         205.000
  21024831.570    -5332078.56049  -4139738.41844  21024833.071    21024843.873
       200.000         128.000
  17983901.694   -29918545.56049 -22607544.07147  17983900.595    17983907.366
       241.000         205.000
  19191200.819   -32083589.09149 -24971782.21946  19191200.109    19191206.676
       232.000         186.000
 99  5 23 19 35 59.9900000  0  7G17G24G30G 5G 8G10G 6
  21156833.835    -9994617.65149  -7753339.96045  21156832.200    21156845.388
       211.000         150.000
  19217460.367    -7677899.59749  -5966047.90246  19217459.140    19217466.830
       230.000         183.000
  17523169.264   -38168931.33749 -29706162.42748  17523169.382    17523174.711
       246.000         213.000
  17839832.087   -22507515.86649 -17519274.57747  17839831.582    17839838.623
       241.000         205.000
  21031673.186    -5296125.96649  -4111723.64144  21031673.136    21031689.767
       203.000         126.000
  17976234.128   -29958838.85749 -22638941.44647  17976233.133    17976239.697
       241.000         205.000
  19169848.524   -32195796.03949 -25059216.18146  19169847.781    19169854.814
       232.000         187.000
 99  5 23 19 36 29.9890000  0  7G17G24G30G 5G 8G10G 6
  21132204.781   -10124043.47349  -7854191.05645  21132203.080    21132216.813
       211.000         149.000
  19221784.324    -7655176.56349  -5948341.71146  19221783.976    19221792.159
       231.000         183.000
  17511214.951   -38231751.95949 -29755113.57648  17511214.858    17511220.502
       245.000         213.000
  17841658.749   -22497917.27849 -17511795.23147  17841658.427    17841664.873
       241.000         205.000
  21038501.268    -5260244.69949  -4083764.46844  21038499.920    21038512.808
       202.000         126.000
  17968674.264   -29998566.56549 -22669898.10747  17968672.877    17968679.723
       240.000         205.000
  19148498.166   -32307993.03549 -25146642.38846  19148497.191    19148504.067
       232.000         187.000
 99  5 23 19 36 59.9890000  0  7G17G24G30G 5G 8G10G 6
  21107599.567   -10253343.90849  -7954944.44545  21107598.664    21107609.957
       213.000         150.000
  19226116.959    -7632408.89449  -5930600.72946  19226117.116    19226124.467
       230.000         183.000
  17499366.276   -38294016.94849 -29803631.77648  17499366.431    17499371.845
       246.000         214.000
  17843565.306   -22487898.75549 -17503988.66147  17843564.507    17843571.561
       240.000         204.000
  21045321.546    -5224405.97949  -4055838.42444  21045320.648    21045336.219
       204.000         126.000
  17961225.210   -30037711.10349 -22700400.34347  17961224.083    17961231.026
       240.000         205.000
  19127152.341   -32420165.35549 -25234049.36146  19127151.099    19127158.626
       230.000         187.000
 99  5 23 19 37 29.9890000  0  7G17G24G30G 5G 8G10G 6
  21083018.651   -10382516.43749  -8055598.20645  21083017.840    21083029.662
       209.000         152.000
  19230453.895    -7609618.32749  -5912841.90346  19230453.884    19230460.687
       230.000         182.000
  17487623.145   -38355727.88849 -29851718.23848  17487623.140    17487628.559
       246.000         214.000
  17845550.039   -22477468.72849 -17495861.43947  17845549.133    17845556.486
       239.000         204.000
  21052136.499    -5188594.90549  -4027933.95844  21052136.729    21052149.537
       205.000         128.000
  17953888.714   -30076264.70349 -22730442.11047  17953887.562    17953895.015
       240.000         205.000
  19105814.739   -32532294.40849 -25321422.62346  19105814.180    19105820.258
       231.000         187.000
 99  5 23 19 37 59.9890000  0  7G17G24G30G 5G 8G10G 6
  21058464.364   -10511548.89649  -8156142.78945  21058462.979    21058475.460
       207.000         149.000
  19234795.689    -7586802.42249  -5895063.32346  19234794.909    19234803.080
       231.000         182.000
  17475987.756   -38416872.16049 -29899363.14548  17475987.715    17475993.278
       246.000         214.000
  17847617.703   -22466603.00949 -17487394.71747  17847616.652    17847624.637
       239.000         204.000
  21058946.879    -5152807.36849  -4000047.78844  21058945.915    21058962.624
       202.000         127.000
  17946662.795   -30114237.16049 -22760031.03847  17946661.455    17946668.641
       240.000         205.000
  19084488.009   -32644367.31349 -25408752.12246  19084487.634    19084493.663
       232.000         187.000
 99  5 23 19 38 29.9890000  0  7G17G24G30G 5G 8G10G 6
  21033940.203   -10640422.64849  -8256563.68545  21033938.997    21033951.012
       211.000         149.000
  19239145.022    -7563946.83749  -5877253.85746  19239144.597    19239152.564
       230.000         182.000
  17464462.313   -38477439.06949 -29946558.15948  17464462.404    17464467.796
       246.000         214.000
  17849772.093   -22455281.37449 -17478572.74047  17849771.410    17849778.676
       239.000         204.000
  21065754.618    -5117033.94749  -3972172.63744  21065755.971    21065768.042
       199.000         124.000
  17939549.085   -30151619.56949 -22789160.19747  17939547.919    17939554.857
       240.000         204.000
  19063172.827   -32756379.12049 -25496034.02446  19063171.911    19063178.538
       231.000         187.000
 99  5 23 19 38 59.9890000  0  7G17G24G30G 5G 8G10G 6
  21009440.201   -10769170.59449  -8356886.59245  21009438.788    21009450.192
       208.000         147.000
  19243495.688    -7541084.43349  -5859439.07046  19243495.575    19243502.925
       231.000         181.000
  17453040.880   -38537459.25149 -29993327.14948  17453040.671    17453046.481
       246.000         214.000
  17852009.377   -22443524.82249 -17469411.86747  17852008.762    17852016.102
       240.000         204.000
  21072550.479    -5081319.62149  -3944343.52144  21072545.490    21072565.187
       197.000         121.000
  17932540.032   -30188452.42549 -22817861.12747  17932538.892    17932545.780
       240.000         204.000
  19041862.629   -32868364.53149 -25583295.36147  19041862.423    19041868.605
       232.000         188.000
 99  5 23 19 39 29.9890000  0  7G17G24G30G 5G 8G10G 6
  20984964.844   -10897789.12349  -8457108.63545  20984963.192    20984975.236
       206.000         148.000
  19247845.336    -7518227.67049  -5841628.66846  19247845.444    19247852.103
       231.000         181.000
  17441722.605   -38596937.25049 -30039673.66248  17441722.307    17441728.045
       246.000         214.000
  17854326.618   -22431348.50849 -17459923.90947  17854326.097    17854332.992
       240.000         203.000
  21079334.827    -5045667.07449  -3916562.56044  21079333.031    21079349.005
       197.000         119.000
  17925635.044   -30224738.42749 -22846135.93647  17925633.892    17925641.113
       240.000         204.000
  19020557.696   -32980322.75849 -25670535.50647  19020557.312    19020563.635
       233.000         188.000
 99  5 23 19 39 59.9890000  0  7G17G24G30G 5G 8G10G 6
  20960521.701   -11026238.12849  -8557198.58945  20960520.394    20960531.748
       209.000         150.000
  19252201.010    -7495338.69049  -5823793.15846  19252200.559    19252207.876
       230.000         180.000
  17430511.265   -38655852.77049 -30085581.88248  17430511.118    17430516.823
       246.000         214.000
  17856726.825   -22418735.79549 -17450095.89947  17856725.606    17856733.087
       240.000         203.000
  21086111.911    -5010055.42249  -3888813.43144  21086109.570    21086128.018
       195.000         116.000
  17918838.196   -30260456.24249 -22873968.00547  17918837.147    17918844.347
       240.000         205.000
  18999261.812   -33092233.56949 -25757738.71147  18999261.165    18999267.695
       234.000         189.000
 99  5 23 19 40 29.9890000  0  7G17G24G30G 5G 8G10G 6
  20936121.004   -11154463.40449  -8657114.22545  20936119.566    20936132.325
       211.000         152.000
  19256570.275    -7472378.33549  -5805902.04446  19256569.524    19256577.424
       230.000         180.000
  17419413.579   -38714171.87549 -30131025.36248  17419413.761    17419419.299
       246.000         214.000
  17859213.432   -22405668.61249 -17439913.75647  17859212.894    17859220.299
       239.000         203.000
  21092890.164    -4974437.37149  -3861059.41944  21092890.426    21092898.486
       195.000         111.000
  17912156.408   -30295569.29949 -22901328.84047  17912155.073    17912162.117
       240.000         205.000
  18977981.964   -33204060.30649 -25844876.40047  18977981.956    18977987.664
       235.000         189.000
 99  5 23 19 40 59.9890000  0  7G17G24G30G 5G 8G10G 6
  20911762.156   -11282469.59649  -8756859.12045  20911761.729    20911773.179
       214.000         155.000
  19260952.285    -7449350.76349  -5787958.54146  19260952.370    19260959.183
       231.000         181.000
  17408428.614   -38771898.57249 -30176007.22848  17408428.556    17408434.218
       246.000         214.000
  17861782.469   -22392168.63149 -17429394.37747  17861781.846    17861789.350
       239.000         202.000
  21099668.117    -4938820.79348                                  21099666.395
       194.000         109.000
  17905588.648   -30330082.79649 -22928222.48347  17905587.280    17905594.795
       239.000         204.000
  18956715.835   -33315814.65549 -25931957.68547  18956715.309    18956721.555
       234.000         189.000
 99  5 23 19 41 29.9890000  0  7G17G24G30G 5G 8G10G 6
  20887449.731   -11410233.13449  -8856414.94745  20887448.920    20887461.140
       218.000         158.000
  19265352.745    -7426226.56749  -5769939.74546  19265351.705    19265360.048
       229.000         180.000
  17397559.583   -38829015.97649 -30220514.31648  17397559.730    17397565.038
       246.000         214.000
  17864435.044   -22378229.79649 -17418533.02547  17864434.499    17864441.786
       239.000         202.000
  21106450.059    -4903184.92149  -3805538.49644  21106452.287    21106462.712
       196.000         108.000
  17899141.106   -30363964.88849 -22954624.12747  17899140.033    17899147.122
       240.000         204.000
  18935465.386   -33427485.56649 -26018973.96447  18935464.850    18935471.857
       233.000         190.000
 99  5 23 19 41 59.9890000  0  7G17G24G30G 5G 8G10G 6
  20863187.315   -11537732.69149  -8955765.10045  20863186.686    20863197.642
       216.000         160.000
  19269776.312    -7402980.29549  -5751825.83246  19269775.622    19269783.507
       229.000         180.000
  17386809.553   -38885508.05249 -30264534.13548  17386809.562    17386814.951
       246.000         214.000
  17867177.508   -22363818.62149 -17407303.62247  17867176.701    17867183.942
       239.000         203.000
  21113236.907    -4867522.58049                  21113237.130
       195.000         107.000
  17892816.295   -30397202.16649 -22980523.32047  17892814.922    17892822.184
       239.000         204.000
  18914232.089   -33539066.88849 -26105920.43047  18914231.900    18914238.403
       234.000         189.000
